<?xml version="1.0" encoding="UTF-8" standalone="no" ?>
<gpx xmlns="http://www.topografix.com/GPX/1/1" xmlns:xsi="http://www.w3.org/2001/XMLSchema-instance" xsi:schemaLocation="http://www.topografix.com/GPX/1/1 http://www.topografix.com/GPX/1/1/gpx.xsd" version="1.1" creator="VisuGPX - https://www.visugpx.com">
  <metadata>
    <name>VTT AM la ramasse</name>
    <desc><![CDATA[Une petite sortie typée AM avec les 3 plus belles descentes de la Ramasse .
Au départ de l'ancien stade de foot on attaque la 1éré ascension qui nous conduit au point haut du "travers de nebian", ensuite on traverse le plateau par un joli single avant d'attaquer la 1ère descente dont le début est un peu pentu. Arrivé en bas on remonte une 2eme fois au travers de Nébian pour faire la joli descente "ouest". ici c'est pareil le début est un peu pentu et les épingles faciles. on descend jusqu'au moulin haut du Mas de Roujou. Direction Villeneuvette pour monter le joli single technique (ça passe en 30 x 42). on enchaine sur le sentier pour aller longer la dourbie (le virage à gauche dans les escaliers n'est pas facile !) une fois revenu à Villeneuvette on repart vers la D8 pour aller vers "les faysses" afin d'éviter la D908. Arrivé à clermont on prend la montée de Cassoulès pour aboutir au départ de la 3éme descente (la plus longue) du parcours.
retour au parking de l'ancien stade. une sortie d'entrainement roulante.]]></desc>
  </metadata>
  <trk>
    <name><![CDATA[VTT AM la ramasse_1]]></name>
    <trkseg>
      <trkpt lat="43.60938" lon="3.43557">
        <ele>164.7</ele>
        <time>2017-01-08T12:50:32Z</time>
      </trkpt>
      <trkpt lat="43.60938" lon="3.43557">
        <ele>164.7</ele>
        <time>2017-01-08T12:54:10Z</time>
      </trkpt>
      <trkpt lat="43.60927" lon="3.43556">
        <ele>163.4</ele>
        <time>2017-01-08T12:54:12Z</time>
      </trkpt>
      <trkpt lat="43.60917" lon="3.43555">
        <ele>162</ele>
        <time>2017-01-08T12:54:14Z</time>
      </trkpt>
      <trkpt lat="43.60905" lon="3.43554">
        <ele>161.2</ele>
        <time>2017-01-08T12:54:16Z</time>
      </trkpt>
      <trkpt lat="43.60897" lon="3.43545">
        <ele>160.5</ele>
        <time>2017-01-08T12:54:18Z</time>
      </trkpt>
      <trkpt lat="43.60894" lon="3.43532">
        <ele>159.6</ele>
        <time>2017-01-08T12:54:20Z</time>
      </trkpt>
      <trkpt lat="43.60894" lon="3.4352">
        <ele>158.6</ele>
        <time>2017-01-08T12:54:22Z</time>
      </trkpt>
      <trkpt lat="43.60892" lon="3.43507">
        <ele>158.5</ele>
        <time>2017-01-08T12:54:24Z</time>
      </trkpt>
      <trkpt lat="43.6089" lon="3.43496">
        <ele>159.2</ele>
        <time>2017-01-08T12:54:26Z</time>
      </trkpt>
      <trkpt lat="43.60887" lon="3.43487">
        <ele>159.7</ele>
        <time>2017-01-08T12:54:28Z</time>
      </trkpt>
      <trkpt lat="43.60882" lon="3.43476">
        <ele>159.9</ele>
        <time>2017-01-08T12:54:31Z</time>
      </trkpt>
      <trkpt lat="43.60877" lon="3.43468">
        <ele>159.9</ele>
        <time>2017-01-08T12:54:33Z</time>
      </trkpt>
      <trkpt lat="43.60872" lon="3.43461">
        <ele>159.9</ele>
        <time>2017-01-08T12:54:35Z</time>
      </trkpt>
      <trkpt lat="43.60868" lon="3.43449">
        <ele>159.9</ele>
        <time>2017-01-08T12:54:38Z</time>
      </trkpt>
      <trkpt lat="43.60868" lon="3.43439">
        <ele>159.8</ele>
        <time>2017-01-08T12:54:41Z</time>
      </trkpt>
      <trkpt lat="43.60867" lon="3.43426">
        <ele>159.7</ele>
        <time>2017-01-08T12:54:44Z</time>
      </trkpt>
      <trkpt lat="43.60867" lon="3.43416">
        <ele>159.6</ele>
        <time>2017-01-08T12:54:47Z</time>
      </trkpt>
      <trkpt lat="43.60867" lon="3.43406">
        <ele>159.6</ele>
        <time>2017-01-08T12:54:50Z</time>
      </trkpt>
      <trkpt lat="43.60867" lon="3.43393">
        <ele>159.6</ele>
        <time>2017-01-08T12:54:54Z</time>
      </trkpt>
      <trkpt lat="43.60866" lon="3.43382">
        <ele>159.6</ele>
        <time>2017-01-08T12:54:57Z</time>
      </trkpt>
      <trkpt lat="43.60865" lon="3.43369">
        <ele>159.9</ele>
        <time>2017-01-08T12:55:00Z</time>
      </trkpt>
      <trkpt lat="43.60862" lon="3.43357">
        <ele>160.2</ele>
        <time>2017-01-08T12:55:03Z</time>
      </trkpt>
      <trkpt lat="43.60859" lon="3.43346">
        <ele>160.5</ele>
        <time>2017-01-08T12:55:06Z</time>
      </trkpt>
      <trkpt lat="43.60856" lon="3.43336">
        <ele>161</ele>
        <time>2017-01-08T12:55:09Z</time>
      </trkpt>
      <trkpt lat="43.60851" lon="3.43325">
        <ele>161.6</ele>
        <time>2017-01-08T12:55:13Z</time>
      </trkpt>
      <trkpt lat="43.6085" lon="3.43313">
        <ele>162.2</ele>
        <time>2017-01-08T12:55:17Z</time>
      </trkpt>
      <trkpt lat="43.60852" lon="3.43301">
        <ele>162.8</ele>
        <time>2017-01-08T12:55:21Z</time>
      </trkpt>
      <trkpt lat="43.60853" lon="3.43291">
        <ele>163.3</ele>
        <time>2017-01-08T12:55:25Z</time>
      </trkpt>
      <trkpt lat="43.60855" lon="3.43281">
        <ele>163.9</ele>
        <time>2017-01-08T12:55:29Z</time>
      </trkpt>
      <trkpt lat="43.6086" lon="3.4327">
        <ele>164.4</ele>
        <time>2017-01-08T12:55:33Z</time>
      </trkpt>
      <trkpt lat="43.60866" lon="3.43259">
        <ele>164.7</ele>
        <time>2017-01-08T12:55:37Z</time>
      </trkpt>
      <trkpt lat="43.6087" lon="3.4325">
        <ele>165.1</ele>
        <time>2017-01-08T12:55:41Z</time>
      </trkpt>
      <trkpt lat="43.60871" lon="3.4324">
        <ele>165.5</ele>
        <time>2017-01-08T12:55:45Z</time>
      </trkpt>
      <trkpt lat="43.60864" lon="3.43232">
        <ele>166.2</ele>
        <time>2017-01-08T12:55:50Z</time>
      </trkpt>
      <trkpt lat="43.60856" lon="3.43227">
        <ele>166.7</ele>
        <time>2017-01-08T12:55:54Z</time>
      </trkpt>
      <trkpt lat="43.60848" lon="3.4322">
        <ele>167.1</ele>
        <time>2017-01-08T12:55:57Z</time>
      </trkpt>
      <trkpt lat="43.60842" lon="3.43215">
        <ele>167.3</ele>
        <time>2017-01-08T12:55:59Z</time>
      </trkpt>
      <trkpt lat="43.60833" lon="3.4321">
        <ele>167.6</ele>
        <time>2017-01-08T12:56:02Z</time>
      </trkpt>
      <trkpt lat="43.60825" lon="3.43205">
        <ele>167.5</ele>
        <time>2017-01-08T12:56:04Z</time>
      </trkpt>
      <trkpt lat="43.60817" lon="3.432">
        <ele>167.9</ele>
        <time>2017-01-08T12:56:06Z</time>
      </trkpt>
      <trkpt lat="43.60809" lon="3.43194">
        <ele>168.7</ele>
        <time>2017-01-08T12:56:08Z</time>
      </trkpt>
      <trkpt lat="43.60802" lon="3.4319">
        <ele>169.7</ele>
        <time>2017-01-08T12:56:10Z</time>
      </trkpt>
      <trkpt lat="43.60793" lon="3.43183">
        <ele>170.1</ele>
        <time>2017-01-08T12:56:12Z</time>
      </trkpt>
      <trkpt lat="43.6079" lon="3.43173">
        <ele>170.8</ele>
        <time>2017-01-08T12:56:14Z</time>
      </trkpt>
      <trkpt lat="43.60789" lon="3.43163">
        <ele>171</ele>
        <time>2017-01-08T12:56:16Z</time>
      </trkpt>
      <trkpt lat="43.60795" lon="3.43155">
        <ele>171.2</ele>
        <time>2017-01-08T12:56:19Z</time>
      </trkpt>
      <trkpt lat="43.60797" lon="3.43145">
        <ele>171.5</ele>
        <time>2017-01-08T12:56:23Z</time>
      </trkpt>
      <trkpt lat="43.60795" lon="3.43133">
        <ele>172</ele>
        <time>2017-01-08T12:56:27Z</time>
      </trkpt>
      <trkpt lat="43.60791" lon="3.43123">
        <ele>172.7</ele>
        <time>2017-01-08T12:56:31Z</time>
      </trkpt>
      <trkpt lat="43.60783" lon="3.43113">
        <ele>173.2</ele>
        <time>2017-01-08T12:56:34Z</time>
      </trkpt>
      <trkpt lat="43.60776" lon="3.43108">
        <ele>173.7</ele>
        <time>2017-01-08T12:56:37Z</time>
      </trkpt>
      <trkpt lat="43.60769" lon="3.43102">
        <ele>174.8</ele>
        <time>2017-01-08T12:56:39Z</time>
      </trkpt>
      <trkpt lat="43.60761" lon="3.43097">
        <ele>176.3</ele>
        <time>2017-01-08T12:56:41Z</time>
      </trkpt>
      <trkpt lat="43.60754" lon="3.4309">
        <ele>178</ele>
        <time>2017-01-08T12:56:43Z</time>
      </trkpt>
      <trkpt lat="43.60747" lon="3.43081">
        <ele>178</ele>
        <time>2017-01-08T12:56:45Z</time>
      </trkpt>
      <trkpt lat="43.60738" lon="3.43075">
        <ele>177</ele>
        <time>2017-01-08T12:56:47Z</time>
      </trkpt>
      <trkpt lat="43.60732" lon="3.43065">
        <ele>177.2</ele>
        <time>2017-01-08T12:56:49Z</time>
      </trkpt>
      <trkpt lat="43.60724" lon="3.43055">
        <ele>177.2</ele>
        <time>2017-01-08T12:56:52Z</time>
      </trkpt>
      <trkpt lat="43.60718" lon="3.43047">
        <ele>177.3</ele>
        <time>2017-01-08T12:56:54Z</time>
      </trkpt>
      <trkpt lat="43.6071" lon="3.4304">
        <ele>177.4</ele>
        <time>2017-01-08T12:56:56Z</time>
      </trkpt>
      <trkpt lat="43.60701" lon="3.4303">
        <ele>177.7</ele>
        <time>2017-01-08T12:56:58Z</time>
      </trkpt>
      <trkpt lat="43.60695" lon="3.43018">
        <ele>177.1</ele>
        <time>2017-01-08T12:57:00Z</time>
      </trkpt>
      <trkpt lat="43.60695" lon="3.43005">
        <ele>177.6</ele>
        <time>2017-01-08T12:57:02Z</time>
      </trkpt>
      <trkpt lat="43.60697" lon="3.42989">
        <ele>177.5</ele>
        <time>2017-01-08T12:57:04Z</time>
      </trkpt>
      <trkpt lat="43.60701" lon="3.42977">
        <ele>177.4</ele>
        <time>2017-01-08T12:57:06Z</time>
      </trkpt>
      <trkpt lat="43.60706" lon="3.42965">
        <ele>177.4</ele>
        <time>2017-01-08T12:57:10Z</time>
      </trkpt>
      <trkpt lat="43.60708" lon="3.42955">
        <ele>177.4</ele>
        <time>2017-01-08T12:57:12Z</time>
      </trkpt>
      <trkpt lat="43.60712" lon="3.42943">
        <ele>177.7</ele>
        <time>2017-01-08T12:57:16Z</time>
      </trkpt>
      <trkpt lat="43.60716" lon="3.42932">
        <ele>177.9</ele>
        <time>2017-01-08T12:57:20Z</time>
      </trkpt>
      <trkpt lat="43.6072" lon="3.42922">
        <ele>178.3</ele>
        <time>2017-01-08T12:57:23Z</time>
      </trkpt>
      <trkpt lat="43.60716" lon="3.42913">
        <ele>177.3</ele>
        <time>2017-01-08T12:57:27Z</time>
      </trkpt>
      <trkpt lat="43.60723" lon="3.42904">
        <ele>177.3</ele>
        <time>2017-01-08T12:57:30Z</time>
      </trkpt>
      <trkpt lat="43.60715" lon="3.42907">
        <ele>178.2</ele>
        <time>2017-01-08T12:57:36Z</time>
      </trkpt>
      <trkpt lat="43.60708" lon="3.42905">
        <ele>178.9</ele>
        <time>2017-01-08T12:57:41Z</time>
      </trkpt>
      <trkpt lat="43.60701" lon="3.42898">
        <ele>179</ele>
        <time>2017-01-08T12:57:43Z</time>
      </trkpt>
      <trkpt lat="43.60696" lon="3.4289">
        <ele>179</ele>
        <time>2017-01-08T12:57:47Z</time>
      </trkpt>
      <trkpt lat="43.60691" lon="3.4288">
        <ele>178.8</ele>
        <time>2017-01-08T12:57:52Z</time>
      </trkpt>
      <trkpt lat="43.60687" lon="3.4287">
        <ele>179</ele>
        <time>2017-01-08T12:57:56Z</time>
      </trkpt>
      <trkpt lat="43.60695" lon="3.42867">
        <ele>179.5</ele>
        <time>2017-01-08T12:58:02Z</time>
      </trkpt>
      <trkpt lat="43.60703" lon="3.42866">
        <ele>179.7</ele>
        <time>2017-01-08T12:58:06Z</time>
      </trkpt>
      <trkpt lat="43.60712" lon="3.42865">
        <ele>180.1</ele>
        <time>2017-01-08T12:58:11Z</time>
      </trkpt>
      <trkpt lat="43.60719" lon="3.42861">
        <ele>180.5</ele>
        <time>2017-01-08T12:58:15Z</time>
      </trkpt>
      <trkpt lat="43.60726" lon="3.42857">
        <ele>180.9</ele>
        <time>2017-01-08T12:58:19Z</time>
      </trkpt>
      <trkpt lat="43.60733" lon="3.42852">
        <ele>181.4</ele>
        <time>2017-01-08T12:58:23Z</time>
      </trkpt>
      <trkpt lat="43.60739" lon="3.42846">
        <ele>181.8</ele>
        <time>2017-01-08T12:58:27Z</time>
      </trkpt>
      <trkpt lat="43.60747" lon="3.42841">
        <ele>182.3</ele>
        <time>2017-01-08T12:58:31Z</time>
      </trkpt>
      <trkpt lat="43.60754" lon="3.42834">
        <ele>182.7</ele>
        <time>2017-01-08T12:58:35Z</time>
      </trkpt>
      <trkpt lat="43.60761" lon="3.42828">
        <ele>182.7</ele>
        <time>2017-01-08T12:58:39Z</time>
      </trkpt>
      <trkpt lat="43.60767" lon="3.42822">
        <ele>182.8</ele>
        <time>2017-01-08T12:58:43Z</time>
      </trkpt>
      <trkpt lat="43.60772" lon="3.42814">
        <ele>183.1</ele>
        <time>2017-01-08T12:58:47Z</time>
      </trkpt>
      <trkpt lat="43.60776" lon="3.42805">
        <ele>183.5</ele>
        <time>2017-01-08T12:58:51Z</time>
      </trkpt>
      <trkpt lat="43.60781" lon="3.42795">
        <ele>183.8</ele>
        <time>2017-01-08T12:58:55Z</time>
      </trkpt>
      <trkpt lat="43.60786" lon="3.42786">
        <ele>184.4</ele>
        <time>2017-01-08T12:58:59Z</time>
      </trkpt>
      <trkpt lat="43.60791" lon="3.42777">
        <ele>185.1</ele>
        <time>2017-01-08T12:59:03Z</time>
      </trkpt>
      <trkpt lat="43.60797" lon="3.4277">
        <ele>185.8</ele>
        <time>2017-01-08T12:59:06Z</time>
      </trkpt>
      <trkpt lat="43.60803" lon="3.42763">
        <ele>186.8</ele>
        <time>2017-01-08T12:59:10Z</time>
      </trkpt>
      <trkpt lat="43.60808" lon="3.42757">
        <ele>187.5</ele>
        <time>2017-01-08T12:59:13Z</time>
      </trkpt>
      <trkpt lat="43.60815" lon="3.42751">
        <ele>188.3</ele>
        <time>2017-01-08T12:59:16Z</time>
      </trkpt>
      <trkpt lat="43.60821" lon="3.42744">
        <ele>189</ele>
        <time>2017-01-08T12:59:19Z</time>
      </trkpt>
      <trkpt lat="43.60825" lon="3.42736">
        <ele>189.8</ele>
        <time>2017-01-08T12:59:22Z</time>
      </trkpt>
      <trkpt lat="43.6083" lon="3.42724">
        <ele>190.7</ele>
        <time>2017-01-08T12:59:26Z</time>
      </trkpt>
      <trkpt lat="43.60837" lon="3.42715">
        <ele>191.6</ele>
        <time>2017-01-08T12:59:30Z</time>
      </trkpt>
      <trkpt lat="43.6084" lon="3.42706">
        <ele>191.8</ele>
        <time>2017-01-08T12:59:32Z</time>
      </trkpt>
      <trkpt lat="43.60844" lon="3.42696">
        <ele>192.1</ele>
        <time>2017-01-08T12:59:34Z</time>
      </trkpt>
      <trkpt lat="43.60846" lon="3.42684">
        <ele>194.7</ele>
        <time>2017-01-08T12:59:36Z</time>
      </trkpt>
      <trkpt lat="43.60848" lon="3.42673">
        <ele>195.6</ele>
        <time>2017-01-08T12:59:38Z</time>
      </trkpt>
      <trkpt lat="43.60851" lon="3.42662">
        <ele>196</ele>
        <time>2017-01-08T12:59:40Z</time>
      </trkpt>
      <trkpt lat="43.60855" lon="3.42649">
        <ele>197</ele>
        <time>2017-01-08T12:59:42Z</time>
      </trkpt>
      <trkpt lat="43.60859" lon="3.42638">
        <ele>197.3</ele>
        <time>2017-01-08T12:59:44Z</time>
      </trkpt>
      <trkpt lat="43.60863" lon="3.42628">
        <ele>197.4</ele>
        <time>2017-01-08T12:59:46Z</time>
      </trkpt>
      <trkpt lat="43.60867" lon="3.42617">
        <ele>197.6</ele>
        <time>2017-01-08T12:59:49Z</time>
      </trkpt>
      <trkpt lat="43.60866" lon="3.42607">
        <ele>197.8</ele>
        <time>2017-01-08T12:59:56Z</time>
      </trkpt>
      <trkpt lat="43.60858" lon="3.42605">
        <ele>197.8</ele>
        <time>2017-01-08T13:00:03Z</time>
      </trkpt>
      <trkpt lat="43.60852" lon="3.426">
        <ele>197.7</ele>
        <time>2017-01-08T13:00:07Z</time>
      </trkpt>
      <trkpt lat="43.60843" lon="3.42594">
        <ele>197.4</ele>
        <time>2017-01-08T13:00:13Z</time>
      </trkpt>
      <trkpt lat="43.60839" lon="3.42583">
        <ele>197.4</ele>
        <time>2017-01-08T13:00:18Z</time>
      </trkpt>
      <trkpt lat="43.60839" lon="3.42571">
        <ele>197.4</ele>
        <time>2017-01-08T13:00:22Z</time>
      </trkpt>
      <trkpt lat="43.6084" lon="3.4256">
        <ele>197.3</ele>
        <time>2017-01-08T13:00:25Z</time>
      </trkpt>
      <trkpt lat="43.60841" lon="3.42549">
        <ele>197.4</ele>
        <time>2017-01-08T13:00:28Z</time>
      </trkpt>
      <trkpt lat="43.60842" lon="3.4254">
        <ele>197.6</ele>
        <time>2017-01-08T13:00:31Z</time>
      </trkpt>
      <trkpt lat="43.60844" lon="3.42527">
        <ele>197.8</ele>
        <time>2017-01-08T13:00:35Z</time>
      </trkpt>
      <trkpt lat="43.60847" lon="3.42516">
        <ele>198</ele>
        <time>2017-01-08T13:00:39Z</time>
      </trkpt>
      <trkpt lat="43.60852" lon="3.42506">
        <ele>198.6</ele>
        <time>2017-01-08T13:00:43Z</time>
      </trkpt>
      <trkpt lat="43.60853" lon="3.42494">
        <ele>199.1</ele>
        <time>2017-01-08T13:00:47Z</time>
      </trkpt>
      <trkpt lat="43.60856" lon="3.42482">
        <ele>199.6</ele>
        <time>2017-01-08T13:00:51Z</time>
      </trkpt>
      <trkpt lat="43.60857" lon="3.4247">
        <ele>200.3</ele>
        <time>2017-01-08T13:00:55Z</time>
      </trkpt>
      <trkpt lat="43.6086" lon="3.4246">
        <ele>200.7</ele>
        <time>2017-01-08T13:00:58Z</time>
      </trkpt>
      <trkpt lat="43.60862" lon="3.42449">
        <ele>201</ele>
        <time>2017-01-08T13:01:01Z</time>
      </trkpt>
      <trkpt lat="43.60864" lon="3.42437">
        <ele>201.4</ele>
        <time>2017-01-08T13:01:05Z</time>
      </trkpt>
      <trkpt lat="43.60866" lon="3.42426">
        <ele>201.8</ele>
        <time>2017-01-08T13:01:08Z</time>
      </trkpt>
      <trkpt lat="43.60867" lon="3.42417">
        <ele>202.4</ele>
        <time>2017-01-08T13:01:11Z</time>
      </trkpt>
      <trkpt lat="43.60871" lon="3.42405">
        <ele>202.8</ele>
        <time>2017-01-08T13:01:14Z</time>
      </trkpt>
      <trkpt lat="43.60873" lon="3.42395">
        <ele>203</ele>
        <time>2017-01-08T13:01:17Z</time>
      </trkpt>
      <trkpt lat="43.60877" lon="3.42382">
        <ele>203.2</ele>
        <time>2017-01-08T13:01:20Z</time>
      </trkpt>
      <trkpt lat="43.60879" lon="3.42373">
        <ele>203.4</ele>
        <time>2017-01-08T13:01:23Z</time>
      </trkpt>
      <trkpt lat="43.6088" lon="3.4236">
        <ele>203.4</ele>
        <time>2017-01-08T13:01:26Z</time>
      </trkpt>
      <trkpt lat="43.60881" lon="3.42349">
        <ele>203.5</ele>
        <time>2017-01-08T13:01:29Z</time>
      </trkpt>
      <trkpt lat="43.60882" lon="3.42339">
        <ele>203.7</ele>
        <time>2017-01-08T13:01:32Z</time>
      </trkpt>
      <trkpt lat="43.60884" lon="3.42329">
        <ele>203.9</ele>
        <time>2017-01-08T13:01:35Z</time>
      </trkpt>
      <trkpt lat="43.6089" lon="3.42319">
        <ele>204.3</ele>
        <time>2017-01-08T13:01:39Z</time>
      </trkpt>
      <trkpt lat="43.60896" lon="3.42312">
        <ele>204.7</ele>
        <time>2017-01-08T13:01:42Z</time>
      </trkpt>
      <trkpt lat="43.60901" lon="3.42303">
        <ele>204.9</ele>
        <time>2017-01-08T13:01:45Z</time>
      </trkpt>
      <trkpt lat="43.60907" lon="3.42294">
        <ele>205.2</ele>
        <time>2017-01-08T13:01:48Z</time>
      </trkpt>
      <trkpt lat="43.60913" lon="3.42285">
        <ele>205.4</ele>
        <time>2017-01-08T13:01:52Z</time>
      </trkpt>
      <trkpt lat="43.6092" lon="3.42279">
        <ele>205.6</ele>
        <time>2017-01-08T13:01:55Z</time>
      </trkpt>
      <trkpt lat="43.60926" lon="3.42275">
        <ele>205.8</ele>
        <time>2017-01-08T13:01:58Z</time>
      </trkpt>
      <trkpt lat="43.60934" lon="3.42269">
        <ele>206.3</ele>
        <time>2017-01-08T13:02:02Z</time>
      </trkpt>
      <trkpt lat="43.60941" lon="3.42263">
        <ele>206.8</ele>
        <time>2017-01-08T13:02:06Z</time>
      </trkpt>
      <trkpt lat="43.6095" lon="3.4226">
        <ele>207.2</ele>
        <time>2017-01-08T13:02:10Z</time>
      </trkpt>
      <trkpt lat="43.60958" lon="3.42256">
        <ele>207.7</ele>
        <time>2017-01-08T13:02:14Z</time>
      </trkpt>
      <trkpt lat="43.60966" lon="3.42254">
        <ele>208</ele>
        <time>2017-01-08T13:02:17Z</time>
      </trkpt>
      <trkpt lat="43.60974" lon="3.42249">
        <ele>208.4</ele>
        <time>2017-01-08T13:02:21Z</time>
      </trkpt>
      <trkpt lat="43.60979" lon="3.42242">
        <ele>208.6</ele>
        <time>2017-01-08T13:02:25Z</time>
      </trkpt>
      <trkpt lat="43.60985" lon="3.42233">
        <ele>209.1</ele>
        <time>2017-01-08T13:02:29Z</time>
      </trkpt>
      <trkpt lat="43.60991" lon="3.42226">
        <ele>209.8</ele>
        <time>2017-01-08T13:02:33Z</time>
      </trkpt>
      <trkpt lat="43.60998" lon="3.42221">
        <ele>210.4</ele>
        <time>2017-01-08T13:02:37Z</time>
      </trkpt>
      <trkpt lat="43.61007" lon="3.42216">
        <ele>211.1</ele>
        <time>2017-01-08T13:02:41Z</time>
      </trkpt>
      <trkpt lat="43.61014" lon="3.42211">
        <ele>211.5</ele>
        <time>2017-01-08T13:02:44Z</time>
      </trkpt>
      <trkpt lat="43.61021" lon="3.42206">
        <ele>212.1</ele>
        <time>2017-01-08T13:02:48Z</time>
      </trkpt>
      <trkpt lat="43.61028" lon="3.42199">
        <ele>212.8</ele>
        <time>2017-01-08T13:02:52Z</time>
      </trkpt>
      <trkpt lat="43.61033" lon="3.42192">
        <ele>213.6</ele>
        <time>2017-01-08T13:02:56Z</time>
      </trkpt>
      <trkpt lat="43.61039" lon="3.42184">
        <ele>214.2</ele>
        <time>2017-01-08T13:03:00Z</time>
      </trkpt>
      <trkpt lat="43.61043" lon="3.42176">
        <ele>214.7</ele>
        <time>2017-01-08T13:03:03Z</time>
      </trkpt>
      <trkpt lat="43.6105" lon="3.42168">
        <ele>215.4</ele>
        <time>2017-01-08T13:03:06Z</time>
      </trkpt>
      <trkpt lat="43.61055" lon="3.42157">
        <ele>216.1</ele>
        <time>2017-01-08T13:03:10Z</time>
      </trkpt>
      <trkpt lat="43.61059" lon="3.42149">
        <ele>216.6</ele>
        <time>2017-01-08T13:03:13Z</time>
      </trkpt>
      <trkpt lat="43.61064" lon="3.42138">
        <ele>217.3</ele>
        <time>2017-01-08T13:03:17Z</time>
      </trkpt>
      <trkpt lat="43.61068" lon="3.42128">
        <ele>218.3</ele>
        <time>2017-01-08T13:03:22Z</time>
      </trkpt>
      <trkpt lat="43.61072" lon="3.4212">
        <ele>219.1</ele>
        <time>2017-01-08T13:03:26Z</time>
      </trkpt>
      <trkpt lat="43.61076" lon="3.42109">
        <ele>219.7</ele>
        <time>2017-01-08T13:03:30Z</time>
      </trkpt>
      <trkpt lat="43.61079" lon="3.421">
        <ele>220.3</ele>
        <time>2017-01-08T13:03:33Z</time>
      </trkpt>
      <trkpt lat="43.61085" lon="3.4209">
        <ele>221.2</ele>
        <time>2017-01-08T13:03:37Z</time>
      </trkpt>
      <trkpt lat="43.61091" lon="3.42081">
        <ele>221.9</ele>
        <time>2017-01-08T13:03:41Z</time>
      </trkpt>
      <trkpt lat="43.61095" lon="3.4207">
        <ele>222.5</ele>
        <time>2017-01-08T13:03:45Z</time>
      </trkpt>
      <trkpt lat="43.61099" lon="3.42061">
        <ele>223.2</ele>
        <time>2017-01-08T13:03:49Z</time>
      </trkpt>
      <trkpt lat="43.61104" lon="3.42053">
        <ele>223.9</ele>
        <time>2017-01-08T13:03:53Z</time>
      </trkpt>
      <trkpt lat="43.6111" lon="3.42044">
        <ele>224.6</ele>
        <time>2017-01-08T13:03:57Z</time>
      </trkpt>
      <trkpt lat="43.61114" lon="3.42035">
        <ele>225.3</ele>
        <time>2017-01-08T13:04:00Z</time>
      </trkpt>
      <trkpt lat="43.61118" lon="3.42027">
        <ele>225.9</ele>
        <time>2017-01-08T13:04:03Z</time>
      </trkpt>
      <trkpt lat="43.61123" lon="3.42019">
        <ele>226.5</ele>
        <time>2017-01-08T13:04:06Z</time>
      </trkpt>
      <trkpt lat="43.61128" lon="3.42007">
        <ele>227.3</ele>
        <time>2017-01-08T13:04:10Z</time>
      </trkpt>
      <trkpt lat="43.61133" lon="3.42">
        <ele>228</ele>
        <time>2017-01-08T13:04:13Z</time>
      </trkpt>
      <trkpt lat="43.61138" lon="3.41989">
        <ele>228.8</ele>
        <time>2017-01-08T13:04:17Z</time>
      </trkpt>
      <trkpt lat="43.61135" lon="3.41977">
        <ele>229.9</ele>
        <time>2017-01-08T13:04:22Z</time>
      </trkpt>
      <trkpt lat="43.61135" lon="3.41964">
        <ele>230.4</ele>
        <time>2017-01-08T13:04:26Z</time>
      </trkpt>
      <trkpt lat="43.61135" lon="3.41954">
        <ele>231.1</ele>
        <time>2017-01-08T13:04:30Z</time>
      </trkpt>
      <trkpt lat="43.61136" lon="3.41943">
        <ele>231.7</ele>
        <time>2017-01-08T13:04:34Z</time>
      </trkpt>
      <trkpt lat="43.61134" lon="3.41932">
        <ele>232.3</ele>
        <time>2017-01-08T13:04:38Z</time>
      </trkpt>
      <trkpt lat="43.61131" lon="3.4192">
        <ele>233.1</ele>
        <time>2017-01-08T13:04:42Z</time>
      </trkpt>
      <trkpt lat="43.6113" lon="3.41908">
        <ele>233.9</ele>
        <time>2017-01-08T13:04:46Z</time>
      </trkpt>
      <trkpt lat="43.6113" lon="3.41897">
        <ele>234.4</ele>
        <time>2017-01-08T13:04:49Z</time>
      </trkpt>
      <trkpt lat="43.61131" lon="3.41883">
        <ele>235</ele>
        <time>2017-01-08T13:04:52Z</time>
      </trkpt>
      <trkpt lat="43.61133" lon="3.41872">
        <ele>235.8</ele>
        <time>2017-01-08T13:04:57Z</time>
      </trkpt>
      <trkpt lat="43.61135" lon="3.41861">
        <ele>236.9</ele>
        <time>2017-01-08T13:05:02Z</time>
      </trkpt>
      <trkpt lat="43.6114" lon="3.41854">
        <ele>237.9</ele>
        <time>2017-01-08T13:05:06Z</time>
      </trkpt>
      <trkpt lat="43.61145" lon="3.41844">
        <ele>238.6</ele>
        <time>2017-01-08T13:05:10Z</time>
      </trkpt>
      <trkpt lat="43.61147" lon="3.41835">
        <ele>239.3</ele>
        <time>2017-01-08T13:05:14Z</time>
      </trkpt>
      <trkpt lat="43.61148" lon="3.41824">
        <ele>240</ele>
        <time>2017-01-08T13:05:18Z</time>
      </trkpt>
      <trkpt lat="43.61148" lon="3.41814">
        <ele>240.7</ele>
        <time>2017-01-08T13:05:21Z</time>
      </trkpt>
      <trkpt lat="43.61148" lon="3.41801">
        <ele>241.5</ele>
        <time>2017-01-08T13:05:25Z</time>
      </trkpt>
      <trkpt lat="43.61147" lon="3.41791">
        <ele>242.8</ele>
        <time>2017-01-08T13:05:30Z</time>
      </trkpt>
      <trkpt lat="43.61147" lon="3.41781">
        <ele>244.1</ele>
        <time>2017-01-08T13:05:34Z</time>
      </trkpt>
      <trkpt lat="43.61146" lon="3.4177">
        <ele>245.8</ele>
        <time>2017-01-08T13:05:39Z</time>
      </trkpt>
      <trkpt lat="43.6115" lon="3.41757">
        <ele>247.5</ele>
        <time>2017-01-08T13:05:44Z</time>
      </trkpt>
      <trkpt lat="43.61152" lon="3.41747">
        <ele>249.2</ele>
        <time>2017-01-08T13:05:49Z</time>
      </trkpt>
      <trkpt lat="43.61153" lon="3.41736">
        <ele>250.2</ele>
        <time>2017-01-08T13:05:54Z</time>
      </trkpt>
      <trkpt lat="43.61155" lon="3.41725">
        <ele>251.1</ele>
        <time>2017-01-08T13:05:58Z</time>
      </trkpt>
      <trkpt lat="43.61157" lon="3.41713">
        <ele>253</ele>
        <time>2017-01-08T13:06:05Z</time>
      </trkpt>
      <trkpt lat="43.61157" lon="3.41702">
        <ele>254.1</ele>
        <time>2017-01-08T13:06:09Z</time>
      </trkpt>
      <trkpt lat="43.61159" lon="3.41692">
        <ele>255.1</ele>
        <time>2017-01-08T13:06:13Z</time>
      </trkpt>
      <trkpt lat="43.61161" lon="3.41682">
        <ele>256.1</ele>
        <time>2017-01-08T13:06:17Z</time>
      </trkpt>
      <trkpt lat="43.61163" lon="3.41671">
        <ele>257.1</ele>
        <time>2017-01-08T13:06:22Z</time>
      </trkpt>
      <trkpt lat="43.61166" lon="3.4166">
        <ele>258</ele>
        <time>2017-01-08T13:06:27Z</time>
      </trkpt>
      <trkpt lat="43.61169" lon="3.41651">
        <ele>258.7</ele>
        <time>2017-01-08T13:06:30Z</time>
      </trkpt>
      <trkpt lat="43.61171" lon="3.41641">
        <ele>259.4</ele>
        <time>2017-01-08T13:06:34Z</time>
      </trkpt>
      <trkpt lat="43.61175" lon="3.41631">
        <ele>260.4</ele>
        <time>2017-01-08T13:06:39Z</time>
      </trkpt>
      <trkpt lat="43.61177" lon="3.41621">
        <ele>261.2</ele>
        <time>2017-01-08T13:06:42Z</time>
      </trkpt>
      <trkpt lat="43.6118" lon="3.41609">
        <ele>262.2</ele>
        <time>2017-01-08T13:06:47Z</time>
      </trkpt>
      <trkpt lat="43.61182" lon="3.41599">
        <ele>262.8</ele>
        <time>2017-01-08T13:06:51Z</time>
      </trkpt>
      <trkpt lat="43.61184" lon="3.41588">
        <ele>263.1</ele>
        <time>2017-01-08T13:06:54Z</time>
      </trkpt>
      <trkpt lat="43.61185" lon="3.41576">
        <ele>263.4</ele>
        <time>2017-01-08T13:06:57Z</time>
      </trkpt>
      <trkpt lat="43.61185" lon="3.41564">
        <ele>263.6</ele>
        <time>2017-01-08T13:07:01Z</time>
      </trkpt>
      <trkpt lat="43.61185" lon="3.41554">
        <ele>264.1</ele>
        <time>2017-01-08T13:07:05Z</time>
      </trkpt>
      <trkpt lat="43.61186" lon="3.41541">
        <ele>264.5</ele>
        <time>2017-01-08T13:07:09Z</time>
      </trkpt>
      <trkpt lat="43.61188" lon="3.4153">
        <ele>265</ele>
        <time>2017-01-08T13:07:13Z</time>
      </trkpt>
      <trkpt lat="43.61191" lon="3.41519">
        <ele>265.5</ele>
        <time>2017-01-08T13:07:17Z</time>
      </trkpt>
      <trkpt lat="43.61195" lon="3.41509">
        <ele>266</ele>
        <time>2017-01-08T13:07:21Z</time>
      </trkpt>
      <trkpt lat="43.61199" lon="3.41498">
        <ele>266.3</ele>
        <time>2017-01-08T13:07:25Z</time>
      </trkpt>
      <trkpt lat="43.61202" lon="3.41487">
        <ele>266.6</ele>
        <time>2017-01-08T13:07:29Z</time>
      </trkpt>
      <trkpt lat="43.61205" lon="3.41478">
        <ele>267.1</ele>
        <time>2017-01-08T13:07:32Z</time>
      </trkpt>
      <trkpt lat="43.61207" lon="3.41468">
        <ele>267.5</ele>
        <time>2017-01-08T13:07:35Z</time>
      </trkpt>
      <trkpt lat="43.61205" lon="3.41456">
        <ele>267.9</ele>
        <time>2017-01-08T13:07:39Z</time>
      </trkpt>
      <trkpt lat="43.61198" lon="3.41451">
        <ele>268.7</ele>
        <time>2017-01-08T13:07:44Z</time>
      </trkpt>
      <trkpt lat="43.6119" lon="3.4145">
        <ele>269.2</ele>
        <time>2017-01-08T13:07:49Z</time>
      </trkpt>
      <trkpt lat="43.61182" lon="3.41451">
        <ele>269.6</ele>
        <time>2017-01-08T13:07:53Z</time>
      </trkpt>
      <trkpt lat="43.61174" lon="3.41447">
        <ele>270.5</ele>
        <time>2017-01-08T13:07:58Z</time>
      </trkpt>
      <trkpt lat="43.61169" lon="3.41441">
        <ele>271.6</ele>
        <time>2017-01-08T13:08:03Z</time>
      </trkpt>
      <trkpt lat="43.61164" lon="3.41433">
        <ele>272.4</ele>
        <time>2017-01-08T13:08:08Z</time>
      </trkpt>
      <trkpt lat="43.61161" lon="3.41423">
        <ele>273.4</ele>
        <time>2017-01-08T13:08:13Z</time>
      </trkpt>
      <trkpt lat="43.61156" lon="3.41413">
        <ele>274.7</ele>
        <time>2017-01-08T13:08:19Z</time>
      </trkpt>
      <trkpt lat="43.6115" lon="3.41406">
        <ele>276.2</ele>
        <time>2017-01-08T13:08:26Z</time>
      </trkpt>
      <trkpt lat="43.61145" lon="3.41397">
        <ele>277.3</ele>
        <time>2017-01-08T13:08:31Z</time>
      </trkpt>
      <trkpt lat="43.61142" lon="3.41388">
        <ele>278.6</ele>
        <time>2017-01-08T13:08:37Z</time>
      </trkpt>
      <trkpt lat="43.61136" lon="3.4138">
        <ele>279.6</ele>
        <time>2017-01-08T13:08:43Z</time>
      </trkpt>
      <trkpt lat="43.61129" lon="3.41372">
        <ele>280.4</ele>
        <time>2017-01-08T13:08:48Z</time>
      </trkpt>
      <trkpt lat="43.61122" lon="3.41366">
        <ele>281.3</ele>
        <time>2017-01-08T13:08:53Z</time>
      </trkpt>
      <trkpt lat="43.61115" lon="3.41358">
        <ele>281.9</ele>
        <time>2017-01-08T13:08:57Z</time>
      </trkpt>
      <trkpt lat="43.61109" lon="3.41351">
        <ele>282.4</ele>
        <time>2017-01-08T13:09:00Z</time>
      </trkpt>
      <trkpt lat="43.61102" lon="3.41343">
        <ele>283</ele>
        <time>2017-01-08T13:09:04Z</time>
      </trkpt>
      <trkpt lat="43.61095" lon="3.41337">
        <ele>283.6</ele>
        <time>2017-01-08T13:09:08Z</time>
      </trkpt>
      <trkpt lat="43.61088" lon="3.41333">
        <ele>284.1</ele>
        <time>2017-01-08T13:09:12Z</time>
      </trkpt>
      <trkpt lat="43.61081" lon="3.41326">
        <ele>284.4</ele>
        <time>2017-01-08T13:09:16Z</time>
      </trkpt>
      <trkpt lat="43.61075" lon="3.41317">
        <ele>284.9</ele>
        <time>2017-01-08T13:09:20Z</time>
      </trkpt>
      <trkpt lat="43.61068" lon="3.41308">
        <ele>285.3</ele>
        <time>2017-01-08T13:09:24Z</time>
      </trkpt>
      <trkpt lat="43.61063" lon="3.41301">
        <ele>285.6</ele>
        <time>2017-01-08T13:09:27Z</time>
      </trkpt>
      <trkpt lat="43.61057" lon="3.41291">
        <ele>286</ele>
        <time>2017-01-08T13:09:31Z</time>
      </trkpt>
      <trkpt lat="43.6105" lon="3.41283">
        <ele>286.5</ele>
        <time>2017-01-08T13:09:35Z</time>
      </trkpt>
      <trkpt lat="43.61044" lon="3.41278">
        <ele>287</ele>
        <time>2017-01-08T13:09:39Z</time>
      </trkpt>
      <trkpt lat="43.61037" lon="3.41272">
        <ele>287.7</ele>
        <time>2017-01-08T13:09:43Z</time>
      </trkpt>
      <trkpt lat="43.61029" lon="3.41266">
        <ele>288.1</ele>
        <time>2017-01-08T13:09:47Z</time>
      </trkpt>
      <trkpt lat="43.61022" lon="3.4126">
        <ele>288.5</ele>
        <time>2017-01-08T13:09:51Z</time>
      </trkpt>
      <trkpt lat="43.61016" lon="3.41253">
        <ele>288.8</ele>
        <time>2017-01-08T13:09:54Z</time>
      </trkpt>
      <trkpt lat="43.61011" lon="3.41243">
        <ele>289.4</ele>
        <time>2017-01-08T13:09:58Z</time>
      </trkpt>
      <trkpt lat="43.61003" lon="3.41237">
        <ele>290.4</ele>
        <time>2017-01-08T13:10:03Z</time>
      </trkpt>
      <trkpt lat="43.60995" lon="3.41235">
        <ele>290.9</ele>
        <time>2017-01-08T13:10:07Z</time>
      </trkpt>
      <trkpt lat="43.60987" lon="3.41232">
        <ele>291.3</ele>
        <time>2017-01-08T13:10:11Z</time>
      </trkpt>
      <trkpt lat="43.6098" lon="3.41224">
        <ele>292</ele>
        <time>2017-01-08T13:10:15Z</time>
      </trkpt>
      <trkpt lat="43.60972" lon="3.41216">
        <ele>293.1</ele>
        <time>2017-01-08T13:10:19Z</time>
      </trkpt>
      <trkpt lat="43.60965" lon="3.4121">
        <ele>294</ele>
        <time>2017-01-08T13:10:23Z</time>
      </trkpt>
      <trkpt lat="43.60958" lon="3.41204">
        <ele>295</ele>
        <time>2017-01-08T13:10:27Z</time>
      </trkpt>
      <trkpt lat="43.6095" lon="3.41202">
        <ele>295.7</ele>
        <time>2017-01-08T13:10:31Z</time>
      </trkpt>
      <trkpt lat="43.60938" lon="3.41205">
        <ele>296.7</ele>
        <time>2017-01-08T13:10:34Z</time>
      </trkpt>
      <trkpt lat="43.6093" lon="3.41205">
        <ele>297.2</ele>
        <time>2017-01-08T13:10:36Z</time>
      </trkpt>
      <trkpt lat="43.6092" lon="3.41205">
        <ele>298.3</ele>
        <time>2017-01-08T13:10:38Z</time>
      </trkpt>
      <trkpt lat="43.60913" lon="3.41205">
        <ele>298.4</ele>
        <time>2017-01-08T13:10:40Z</time>
      </trkpt>
      <trkpt lat="43.60903" lon="3.41207">
        <ele>298.7</ele>
        <time>2017-01-08T13:10:43Z</time>
      </trkpt>
      <trkpt lat="43.60895" lon="3.4121">
        <ele>298.5</ele>
        <time>2017-01-08T13:10:45Z</time>
      </trkpt>
      <trkpt lat="43.60884" lon="3.41212">
        <ele>297.6</ele>
        <time>2017-01-08T13:10:47Z</time>
      </trkpt>
      <trkpt lat="43.60876" lon="3.41213">
        <ele>296.9</ele>
        <time>2017-01-08T13:10:49Z</time>
      </trkpt>
      <trkpt lat="43.60869" lon="3.41217">
        <ele>296.5</ele>
        <time>2017-01-08T13:10:51Z</time>
      </trkpt>
      <trkpt lat="43.60862" lon="3.41221">
        <ele>297.4</ele>
        <time>2017-01-08T13:10:53Z</time>
      </trkpt>
      <trkpt lat="43.60852" lon="3.41225">
        <ele>298.2</ele>
        <time>2017-01-08T13:10:55Z</time>
      </trkpt>
      <trkpt lat="43.60842" lon="3.41228">
        <ele>299</ele>
        <time>2017-01-08T13:10:57Z</time>
      </trkpt>
      <trkpt lat="43.60834" lon="3.41231">
        <ele>299.5</ele>
        <time>2017-01-08T13:10:59Z</time>
      </trkpt>
      <trkpt lat="43.60826" lon="3.41237">
        <ele>299.8</ele>
        <time>2017-01-08T13:11:01Z</time>
      </trkpt>
      <trkpt lat="43.60819" lon="3.4124">
        <ele>299.9</ele>
        <time>2017-01-08T13:11:04Z</time>
      </trkpt>
      <trkpt lat="43.60812" lon="3.4125">
        <ele>300.1</ele>
        <time>2017-01-08T13:11:08Z</time>
      </trkpt>
      <trkpt lat="43.60805" lon="3.41256">
        <ele>300.1</ele>
        <time>2017-01-08T13:11:11Z</time>
      </trkpt>
      <trkpt lat="43.60798" lon="3.41262">
        <ele>300.4</ele>
        <time>2017-01-08T13:11:15Z</time>
      </trkpt>
      <trkpt lat="43.60791" lon="3.41265">
        <ele>300.5</ele>
        <time>2017-01-08T13:11:18Z</time>
      </trkpt>
      <trkpt lat="43.60784" lon="3.41266">
        <ele>300.9</ele>
        <time>2017-01-08T13:11:22Z</time>
      </trkpt>
      <trkpt lat="43.60776" lon="3.41266">
        <ele>301.4</ele>
        <time>2017-01-08T13:11:27Z</time>
      </trkpt>
      <trkpt lat="43.60769" lon="3.4127">
        <ele>301.5</ele>
        <time>2017-01-08T13:11:30Z</time>
      </trkpt>
      <trkpt lat="43.60763" lon="3.41275">
        <ele>301.7</ele>
        <time>2017-01-08T13:11:34Z</time>
      </trkpt>
      <trkpt lat="43.60756" lon="3.41282">
        <ele>301.8</ele>
        <time>2017-01-08T13:11:38Z</time>
      </trkpt>
      <trkpt lat="43.6075" lon="3.41289">
        <ele>302.3</ele>
        <time>2017-01-08T13:11:43Z</time>
      </trkpt>
      <trkpt lat="43.60743" lon="3.41292">
        <ele>303</ele>
        <time>2017-01-08T13:11:47Z</time>
      </trkpt>
      <trkpt lat="43.60735" lon="3.41294">
        <ele>303.9</ele>
        <time>2017-01-08T13:11:52Z</time>
      </trkpt>
      <trkpt lat="43.60727" lon="3.41293">
        <ele>304.6</ele>
        <time>2017-01-08T13:11:57Z</time>
      </trkpt>
      <trkpt lat="43.60718" lon="3.41294">
        <ele>305.1</ele>
        <time>2017-01-08T13:12:01Z</time>
      </trkpt>
      <trkpt lat="43.6071" lon="3.41296">
        <ele>305.5</ele>
        <time>2017-01-08T13:12:06Z</time>
      </trkpt>
      <trkpt lat="43.60702" lon="3.41299">
        <ele>306.1</ele>
        <time>2017-01-08T13:12:11Z</time>
      </trkpt>
      <trkpt lat="43.60694" lon="3.41299">
        <ele>307</ele>
        <time>2017-01-08T13:12:16Z</time>
      </trkpt>
      <trkpt lat="43.60687" lon="3.41303">
        <ele>307.6</ele>
        <time>2017-01-08T13:12:20Z</time>
      </trkpt>
      <trkpt lat="43.60679" lon="3.41306">
        <ele>308.4</ele>
        <time>2017-01-08T13:12:24Z</time>
      </trkpt>
      <trkpt lat="43.60671" lon="3.41311">
        <ele>309.4</ele>
        <time>2017-01-08T13:12:29Z</time>
      </trkpt>
      <trkpt lat="43.60665" lon="3.41318">
        <ele>310.3</ele>
        <time>2017-01-08T13:12:34Z</time>
      </trkpt>
      <trkpt lat="43.60656" lon="3.41322">
        <ele>311.3</ele>
        <time>2017-01-08T13:12:39Z</time>
      </trkpt>
      <trkpt lat="43.60648" lon="3.41326">
        <ele>312.2</ele>
        <time>2017-01-08T13:12:44Z</time>
      </trkpt>
      <trkpt lat="43.6064" lon="3.41328">
        <ele>313.3</ele>
        <time>2017-01-08T13:12:50Z</time>
      </trkpt>
      <trkpt lat="43.60632" lon="3.41331">
        <ele>314.2</ele>
        <time>2017-01-08T13:12:55Z</time>
      </trkpt>
      <trkpt lat="43.60624" lon="3.41328">
        <ele>315.2</ele>
        <time>2017-01-08T13:13:00Z</time>
      </trkpt>
      <trkpt lat="43.60616" lon="3.41329">
        <ele>316.1</ele>
        <time>2017-01-08T13:13:05Z</time>
      </trkpt>
      <trkpt lat="43.60608" lon="3.41333">
        <ele>316.9</ele>
        <time>2017-01-08T13:13:09Z</time>
      </trkpt>
      <trkpt lat="43.60599" lon="3.41333">
        <ele>317.9</ele>
        <time>2017-01-08T13:13:15Z</time>
      </trkpt>
      <trkpt lat="43.60591" lon="3.41331">
        <ele>318.9</ele>
        <time>2017-01-08T13:13:20Z</time>
      </trkpt>
      <trkpt lat="43.60583" lon="3.41328">
        <ele>319.5</ele>
        <time>2017-01-08T13:13:24Z</time>
      </trkpt>
      <trkpt lat="43.60574" lon="3.41325">
        <ele>320.2</ele>
        <time>2017-01-08T13:13:28Z</time>
      </trkpt>
      <trkpt lat="43.60566" lon="3.41323">
        <ele>320.7</ele>
        <time>2017-01-08T13:13:32Z</time>
      </trkpt>
      <trkpt lat="43.60557" lon="3.41325">
        <ele>321.5</ele>
        <time>2017-01-08T13:13:37Z</time>
      </trkpt>
      <trkpt lat="43.60549" lon="3.41329">
        <ele>322.3</ele>
        <time>2017-01-08T13:13:42Z</time>
      </trkpt>
      <trkpt lat="43.6054" lon="3.41332">
        <ele>323.2</ele>
        <time>2017-01-08T13:13:47Z</time>
      </trkpt>
      <trkpt lat="43.60532" lon="3.41334">
        <ele>323.8</ele>
        <time>2017-01-08T13:13:51Z</time>
      </trkpt>
      <trkpt lat="43.60526" lon="3.41339">
        <ele>324.3</ele>
        <time>2017-01-08T13:13:55Z</time>
      </trkpt>
      <trkpt lat="43.60528" lon="3.41351">
        <ele>325</ele>
        <time>2017-01-08T13:14:00Z</time>
      </trkpt>
      <trkpt lat="43.60532" lon="3.41363">
        <ele>325.4</ele>
        <time>2017-01-08T13:14:04Z</time>
      </trkpt>
      <trkpt lat="43.60538" lon="3.41372">
        <ele>325.8</ele>
        <time>2017-01-08T13:14:08Z</time>
      </trkpt>
      <trkpt lat="43.60545" lon="3.4138">
        <ele>326.2</ele>
        <time>2017-01-08T13:14:12Z</time>
      </trkpt>
      <trkpt lat="43.60551" lon="3.41389">
        <ele>326.5</ele>
        <time>2017-01-08T13:14:16Z</time>
      </trkpt>
      <trkpt lat="43.60557" lon="3.41399">
        <ele>326.8</ele>
        <time>2017-01-08T13:14:20Z</time>
      </trkpt>
      <trkpt lat="43.60564" lon="3.41405">
        <ele>327</ele>
        <time>2017-01-08T13:14:23Z</time>
      </trkpt>
      <trkpt lat="43.60569" lon="3.41412">
        <ele>327.1</ele>
        <time>2017-01-08T13:14:26Z</time>
      </trkpt>
      <trkpt lat="43.60577" lon="3.41417">
        <ele>327.4</ele>
        <time>2017-01-08T13:14:30Z</time>
      </trkpt>
      <trkpt lat="43.60585" lon="3.41422">
        <ele>327.6</ele>
        <time>2017-01-08T13:14:33Z</time>
      </trkpt>
      <trkpt lat="43.60592" lon="3.41426">
        <ele>327.9</ele>
        <time>2017-01-08T13:14:36Z</time>
      </trkpt>
      <trkpt lat="43.60598" lon="3.41434">
        <ele>328.1</ele>
        <time>2017-01-08T13:14:39Z</time>
      </trkpt>
      <trkpt lat="43.60602" lon="3.41444">
        <ele>328.2</ele>
        <time>2017-01-08T13:14:42Z</time>
      </trkpt>
      <trkpt lat="43.60607" lon="3.41455">
        <ele>328.2</ele>
        <time>2017-01-08T13:14:45Z</time>
      </trkpt>
      <trkpt lat="43.60614" lon="3.41462">
        <ele>328.3</ele>
        <time>2017-01-08T13:14:48Z</time>
      </trkpt>
      <trkpt lat="43.6062" lon="3.41468">
        <ele>328.5</ele>
        <time>2017-01-08T13:14:51Z</time>
      </trkpt>
      <trkpt lat="43.60624" lon="3.41479">
        <ele>328.8</ele>
        <time>2017-01-08T13:14:54Z</time>
      </trkpt>
      <trkpt lat="43.60625" lon="3.41491">
        <ele>329</ele>
        <time>2017-01-08T13:14:57Z</time>
      </trkpt>
      <trkpt lat="43.60629" lon="3.41503">
        <ele>329.2</ele>
        <time>2017-01-08T13:15:00Z</time>
      </trkpt>
      <trkpt lat="43.60636" lon="3.41509">
        <ele>329.3</ele>
        <time>2017-01-08T13:15:03Z</time>
      </trkpt>
      <trkpt lat="43.60645" lon="3.41513">
        <ele>329.5</ele>
        <time>2017-01-08T13:15:06Z</time>
      </trkpt>
      <trkpt lat="43.60651" lon="3.41519">
        <ele>329.6</ele>
        <time>2017-01-08T13:15:09Z</time>
      </trkpt>
      <trkpt lat="43.60658" lon="3.41529">
        <ele>329.6</ele>
        <time>2017-01-08T13:15:13Z</time>
      </trkpt>
      <trkpt lat="43.60662" lon="3.41541">
        <ele>330.1</ele>
        <time>2017-01-08T13:15:16Z</time>
      </trkpt>
      <trkpt lat="43.60665" lon="3.41551">
        <ele>331.1</ele>
        <time>2017-01-08T13:15:18Z</time>
      </trkpt>
      <trkpt lat="43.60668" lon="3.41561">
        <ele>331.3</ele>
        <time>2017-01-08T13:15:20Z</time>
      </trkpt>
      <trkpt lat="43.60673" lon="3.41569">
        <ele>331.5</ele>
        <time>2017-01-08T13:15:22Z</time>
      </trkpt>
      <trkpt lat="43.6068" lon="3.41579">
        <ele>332.9</ele>
        <time>2017-01-08T13:15:24Z</time>
      </trkpt>
      <trkpt lat="43.60687" lon="3.41588">
        <ele>332.8</ele>
        <time>2017-01-08T13:15:26Z</time>
      </trkpt>
      <trkpt lat="43.60693" lon="3.41597">
        <ele>331.6</ele>
        <time>2017-01-08T13:15:28Z</time>
      </trkpt>
      <trkpt lat="43.60698" lon="3.41606">
        <ele>331.5</ele>
        <time>2017-01-08T13:15:31Z</time>
      </trkpt>
      <trkpt lat="43.60703" lon="3.41615">
        <ele>331.4</ele>
        <time>2017-01-08T13:15:33Z</time>
      </trkpt>
      <trkpt lat="43.60708" lon="3.41626">
        <ele>331.2</ele>
        <time>2017-01-08T13:15:36Z</time>
      </trkpt>
      <trkpt lat="43.60713" lon="3.41637">
        <ele>331.2</ele>
        <time>2017-01-08T13:15:39Z</time>
      </trkpt>
      <trkpt lat="43.60719" lon="3.41646">
        <ele>331.2</ele>
        <time>2017-01-08T13:15:42Z</time>
      </trkpt>
      <trkpt lat="43.60725" lon="3.41655">
        <ele>331.1</ele>
        <time>2017-01-08T13:15:45Z</time>
      </trkpt>
      <trkpt lat="43.60728" lon="3.41664">
        <ele>330.9</ele>
        <time>2017-01-08T13:15:48Z</time>
      </trkpt>
      <trkpt lat="43.60731" lon="3.41676">
        <ele>330.8</ele>
        <time>2017-01-08T13:15:51Z</time>
      </trkpt>
      <trkpt lat="43.60734" lon="3.41685">
        <ele>330.8</ele>
        <time>2017-01-08T13:15:54Z</time>
      </trkpt>
      <trkpt lat="43.6074" lon="3.41693">
        <ele>330.8</ele>
        <time>2017-01-08T13:15:57Z</time>
      </trkpt>
      <trkpt lat="43.60746" lon="3.41704">
        <ele>330.8</ele>
        <time>2017-01-08T13:16:00Z</time>
      </trkpt>
      <trkpt lat="43.60753" lon="3.41711">
        <ele>330.7</ele>
        <time>2017-01-08T13:16:04Z</time>
      </trkpt>
      <trkpt lat="43.60757" lon="3.41721">
        <ele>330.9</ele>
        <time>2017-01-08T13:16:07Z</time>
      </trkpt>
      <trkpt lat="43.60752" lon="3.41731">
        <ele>331.1</ele>
        <time>2017-01-08T13:16:12Z</time>
      </trkpt>
      <trkpt lat="43.60746" lon="3.41739">
        <ele>330.9</ele>
        <time>2017-01-08T13:16:16Z</time>
      </trkpt>
      <trkpt lat="43.60742" lon="3.41749">
        <ele>330.9</ele>
        <time>2017-01-08T13:16:19Z</time>
      </trkpt>
      <trkpt lat="43.60736" lon="3.4176">
        <ele>330.9</ele>
        <time>2017-01-08T13:16:22Z</time>
      </trkpt>
      <trkpt lat="43.60731" lon="3.41769">
        <ele>330.9</ele>
        <time>2017-01-08T13:16:24Z</time>
      </trkpt>
      <trkpt lat="43.60728" lon="3.41783">
        <ele>330.5</ele>
        <time>2017-01-08T13:16:27Z</time>
      </trkpt>
      <trkpt lat="43.60725" lon="3.41792">
        <ele>328.4</ele>
        <time>2017-01-08T13:16:29Z</time>
      </trkpt>
      <trkpt lat="43.60721" lon="3.41803">
        <ele>326.8</ele>
        <time>2017-01-08T13:16:31Z</time>
      </trkpt>
      <trkpt lat="43.60719" lon="3.41812">
        <ele>326.3</ele>
        <time>2017-01-08T13:16:33Z</time>
      </trkpt>
      <trkpt lat="43.60713" lon="3.41823">
        <ele>325.6</ele>
        <time>2017-01-08T13:16:36Z</time>
      </trkpt>
      <trkpt lat="43.60708" lon="3.41831">
        <ele>325.5</ele>
        <time>2017-01-08T13:16:38Z</time>
      </trkpt>
      <trkpt lat="43.60702" lon="3.41842">
        <ele>324.4</ele>
        <time>2017-01-08T13:16:42Z</time>
      </trkpt>
      <trkpt lat="43.60697" lon="3.41851">
        <ele>323.7</ele>
        <time>2017-01-08T13:16:44Z</time>
      </trkpt>
      <trkpt lat="43.60691" lon="3.41859">
        <ele>323.1</ele>
        <time>2017-01-08T13:16:46Z</time>
      </trkpt>
      <trkpt lat="43.60685" lon="3.41865">
        <ele>322.9</ele>
        <time>2017-01-08T13:16:49Z</time>
      </trkpt>
      <trkpt lat="43.60682" lon="3.41875">
        <ele>322.5</ele>
        <time>2017-01-08T13:16:52Z</time>
      </trkpt>
      <trkpt lat="43.60681" lon="3.41889">
        <ele>322.2</ele>
        <time>2017-01-08T13:16:55Z</time>
      </trkpt>
      <trkpt lat="43.60675" lon="3.419">
        <ele>321.9</ele>
        <time>2017-01-08T13:16:58Z</time>
      </trkpt>
      <trkpt lat="43.60669" lon="3.41911">
        <ele>320.7</ele>
        <time>2017-01-08T13:17:01Z</time>
      </trkpt>
      <trkpt lat="43.60665" lon="3.4192">
        <ele>319.4</ele>
        <time>2017-01-08T13:17:03Z</time>
      </trkpt>
      <trkpt lat="43.60661" lon="3.41928">
        <ele>319</ele>
        <time>2017-01-08T13:17:05Z</time>
      </trkpt>
      <trkpt lat="43.60657" lon="3.41941">
        <ele>318.7</ele>
        <time>2017-01-08T13:17:07Z</time>
      </trkpt>
      <trkpt lat="43.60654" lon="3.41951">
        <ele>318.4</ele>
        <time>2017-01-08T13:17:09Z</time>
      </trkpt>
      <trkpt lat="43.60645" lon="3.41958">
        <ele>318.2</ele>
        <time>2017-01-08T13:17:12Z</time>
      </trkpt>
      <trkpt lat="43.60635" lon="3.41962">
        <ele>318</ele>
        <time>2017-01-08T13:17:15Z</time>
      </trkpt>
      <trkpt lat="43.60631" lon="3.41972">
        <ele>317.8</ele>
        <time>2017-01-08T13:17:18Z</time>
      </trkpt>
      <trkpt lat="43.6063" lon="3.41985">
        <ele>316.9</ele>
        <time>2017-01-08T13:17:21Z</time>
      </trkpt>
      <trkpt lat="43.60629" lon="3.41997">
        <ele>316.6</ele>
        <time>2017-01-08T13:17:24Z</time>
      </trkpt>
      <trkpt lat="43.6063" lon="3.42006">
        <ele>316.5</ele>
        <time>2017-01-08T13:17:27Z</time>
      </trkpt>
      <trkpt lat="43.60624" lon="3.42019">
        <ele>316.4</ele>
        <time>2017-01-08T13:17:31Z</time>
      </trkpt>
      <trkpt lat="43.6062" lon="3.42032">
        <ele>316.5</ele>
        <time>2017-01-08T13:17:33Z</time>
      </trkpt>
      <trkpt lat="43.6062" lon="3.42044">
        <ele>316.5</ele>
        <time>2017-01-08T13:17:36Z</time>
      </trkpt>
      <trkpt lat="43.60615" lon="3.42055">
        <ele>316.6</ele>
        <time>2017-01-08T13:17:40Z</time>
      </trkpt>
      <trkpt lat="43.60611" lon="3.42065">
        <ele>316.6</ele>
        <time>2017-01-08T13:17:43Z</time>
      </trkpt>
      <trkpt lat="43.60605" lon="3.42076">
        <ele>316.6</ele>
        <time>2017-01-08T13:17:46Z</time>
      </trkpt>
      <trkpt lat="43.60597" lon="3.42082">
        <ele>316.5</ele>
        <time>2017-01-08T13:17:49Z</time>
      </trkpt>
      <trkpt lat="43.60589" lon="3.42091">
        <ele>316.5</ele>
        <time>2017-01-08T13:17:52Z</time>
      </trkpt>
      <trkpt lat="43.60582" lon="3.42092">
        <ele>315.4</ele>
        <time>2017-01-08T13:17:56Z</time>
      </trkpt>
      <trkpt lat="43.60572" lon="3.4209">
        <ele>314.4</ele>
        <time>2017-01-08T13:17:58Z</time>
      </trkpt>
      <trkpt lat="43.60564" lon="3.42094">
        <ele>313</ele>
        <time>2017-01-08T13:18:00Z</time>
      </trkpt>
      <trkpt lat="43.60557" lon="3.421">
        <ele>312.8</ele>
        <time>2017-01-08T13:18:02Z</time>
      </trkpt>
      <trkpt lat="43.60553" lon="3.4211">
        <ele>312.7</ele>
        <time>2017-01-08T13:18:05Z</time>
      </trkpt>
      <trkpt lat="43.60551" lon="3.42123">
        <ele>312.4</ele>
        <time>2017-01-08T13:18:08Z</time>
      </trkpt>
      <trkpt lat="43.60549" lon="3.42138">
        <ele>312.1</ele>
        <time>2017-01-08T13:18:11Z</time>
      </trkpt>
      <trkpt lat="43.60549" lon="3.42151">
        <ele>311.8</ele>
        <time>2017-01-08T13:18:14Z</time>
      </trkpt>
      <trkpt lat="43.60548" lon="3.42161">
        <ele>311.5</ele>
        <time>2017-01-08T13:18:17Z</time>
      </trkpt>
      <trkpt lat="43.60541" lon="3.4217">
        <ele>311.2</ele>
        <time>2017-01-08T13:18:20Z</time>
      </trkpt>
      <trkpt lat="43.60532" lon="3.42178">
        <ele>310.8</ele>
        <time>2017-01-08T13:18:23Z</time>
      </trkpt>
      <trkpt lat="43.60525" lon="3.42188">
        <ele>307.8</ele>
        <time>2017-01-08T13:18:26Z</time>
      </trkpt>
      <trkpt lat="43.60516" lon="3.42189">
        <ele>307.3</ele>
        <time>2017-01-08T13:18:30Z</time>
      </trkpt>
      <trkpt lat="43.60509" lon="3.42189">
        <ele>306.6</ele>
        <time>2017-01-08T13:18:34Z</time>
      </trkpt>
      <trkpt lat="43.60501" lon="3.4219">
        <ele>305.7</ele>
        <time>2017-01-08T13:18:38Z</time>
      </trkpt>
      <trkpt lat="43.60492" lon="3.42193">
        <ele>304.7</ele>
        <time>2017-01-08T13:18:42Z</time>
      </trkpt>
      <trkpt lat="43.60483" lon="3.42194">
        <ele>303.5</ele>
        <time>2017-01-08T13:18:46Z</time>
      </trkpt>
      <trkpt lat="43.60476" lon="3.42197">
        <ele>302</ele>
        <time>2017-01-08T13:18:50Z</time>
      </trkpt>
      <trkpt lat="43.6047" lon="3.42204">
        <ele>300.5</ele>
        <time>2017-01-08T13:18:54Z</time>
      </trkpt>
      <trkpt lat="43.60461" lon="3.42205">
        <ele>298.5</ele>
        <time>2017-01-08T13:18:59Z</time>
      </trkpt>
      <trkpt lat="43.60457" lon="3.42209">
        <ele>295.6</ele>
        <time>2017-01-08T13:19:06Z</time>
      </trkpt>
      <trkpt lat="43.60454" lon="3.42214">
        <ele>293</ele>
        <time>2017-01-08T13:19:13Z</time>
      </trkpt>
      <trkpt lat="43.60448" lon="3.42222">
        <ele>290.5</ele>
        <time>2017-01-08T13:19:19Z</time>
      </trkpt>
      <trkpt lat="43.6044" lon="3.42225">
        <ele>288.6</ele>
        <time>2017-01-08T13:19:23Z</time>
      </trkpt>
      <trkpt lat="43.60434" lon="3.42232">
        <ele>287.2</ele>
        <time>2017-01-08T13:19:26Z</time>
      </trkpt>
      <trkpt lat="43.60427" lon="3.42241">
        <ele>285.6</ele>
        <time>2017-01-08T13:19:29Z</time>
      </trkpt>
      <trkpt lat="43.60423" lon="3.42251">
        <ele>275.7</ele>
        <time>2017-01-08T13:19:31Z</time>
      </trkpt>
      <trkpt lat="43.6042" lon="3.42262">
        <ele>268.1</ele>
        <time>2017-01-08T13:19:33Z</time>
      </trkpt>
      <trkpt lat="43.60417" lon="3.42274">
        <ele>263.3</ele>
        <time>2017-01-08T13:19:35Z</time>
      </trkpt>
      <trkpt lat="43.60413" lon="3.42284">
        <ele>259.9</ele>
        <time>2017-01-08T13:19:37Z</time>
      </trkpt>
      <trkpt lat="43.60413" lon="3.42295">
        <ele>259.7</ele>
        <time>2017-01-08T13:19:39Z</time>
      </trkpt>
      <trkpt lat="43.60408" lon="3.42308">
        <ele>259.3</ele>
        <time>2017-01-08T13:19:44Z</time>
      </trkpt>
      <trkpt lat="43.60402" lon="3.42316">
        <ele>259.2</ele>
        <time>2017-01-08T13:19:46Z</time>
      </trkpt>
      <trkpt lat="43.60394" lon="3.4232">
        <ele>258.7</ele>
        <time>2017-01-08T13:19:49Z</time>
      </trkpt>
      <trkpt lat="43.60386" lon="3.42331">
        <ele>254.4</ele>
        <time>2017-01-08T13:19:52Z</time>
      </trkpt>
      <trkpt lat="43.60379" lon="3.42337">
        <ele>251.9</ele>
        <time>2017-01-08T13:19:55Z</time>
      </trkpt>
      <trkpt lat="43.60371" lon="3.42342">
        <ele>247.8</ele>
        <time>2017-01-08T13:19:57Z</time>
      </trkpt>
      <trkpt lat="43.60364" lon="3.4235">
        <ele>247.2</ele>
        <time>2017-01-08T13:20:00Z</time>
      </trkpt>
      <trkpt lat="43.60359" lon="3.42341">
        <ele>246.1</ele>
        <time>2017-01-08T13:20:04Z</time>
      </trkpt>
      <trkpt lat="43.60356" lon="3.42329">
        <ele>245.2</ele>
        <time>2017-01-08T13:20:08Z</time>
      </trkpt>
      <trkpt lat="43.60354" lon="3.42319">
        <ele>244.5</ele>
        <time>2017-01-08T13:20:11Z</time>
      </trkpt>
      <trkpt lat="43.60348" lon="3.42326">
        <ele>243.5</ele>
        <time>2017-01-08T13:20:14Z</time>
      </trkpt>
      <trkpt lat="43.6034" lon="3.42335">
        <ele>242.8</ele>
        <time>2017-01-08T13:20:16Z</time>
      </trkpt>
      <trkpt lat="43.60331" lon="3.42332">
        <ele>240.3</ele>
        <time>2017-01-08T13:20:23Z</time>
      </trkpt>
      <trkpt lat="43.60325" lon="3.4234">
        <ele>239.3</ele>
        <time>2017-01-08T13:20:26Z</time>
      </trkpt>
      <trkpt lat="43.6032" lon="3.42351">
        <ele>237.9</ele>
        <time>2017-01-08T13:20:29Z</time>
      </trkpt>
      <trkpt lat="43.60313" lon="3.42362">
        <ele>229.8</ele>
        <time>2017-01-08T13:20:31Z</time>
      </trkpt>
      <trkpt lat="43.60307" lon="3.42367">
        <ele>226.2</ele>
        <time>2017-01-08T13:20:33Z</time>
      </trkpt>
      <trkpt lat="43.603" lon="3.42376">
        <ele>225.5</ele>
        <time>2017-01-08T13:20:36Z</time>
      </trkpt>
      <trkpt lat="43.60297" lon="3.4239">
        <ele>221</ele>
        <time>2017-01-08T13:20:39Z</time>
      </trkpt>
      <trkpt lat="43.60295" lon="3.424">
        <ele>218.7</ele>
        <time>2017-01-08T13:20:41Z</time>
      </trkpt>
      <trkpt lat="43.60293" lon="3.42411">
        <ele>218.6</ele>
        <time>2017-01-08T13:20:43Z</time>
      </trkpt>
      <trkpt lat="43.60286" lon="3.42424">
        <ele>215.7</ele>
        <time>2017-01-08T13:20:46Z</time>
      </trkpt>
      <trkpt lat="43.60284" lon="3.42437">
        <ele>213.3</ele>
        <time>2017-01-08T13:20:48Z</time>
      </trkpt>
      <trkpt lat="43.60284" lon="3.42453">
        <ele>211.4</ele>
        <time>2017-01-08T13:20:50Z</time>
      </trkpt>
      <trkpt lat="43.60286" lon="3.42464">
        <ele>210.3</ele>
        <time>2017-01-08T13:20:52Z</time>
      </trkpt>
      <trkpt lat="43.60288" lon="3.42476">
        <ele>209.3</ele>
        <time>2017-01-08T13:20:54Z</time>
      </trkpt>
      <trkpt lat="43.6029" lon="3.42487">
        <ele>209.2</ele>
        <time>2017-01-08T13:20:56Z</time>
      </trkpt>
      <trkpt lat="43.60294" lon="3.42498">
        <ele>209.2</ele>
        <time>2017-01-08T13:20:59Z</time>
      </trkpt>
      <trkpt lat="43.60299" lon="3.42507">
        <ele>209.4</ele>
        <time>2017-01-08T13:21:02Z</time>
      </trkpt>
      <trkpt lat="43.60304" lon="3.42514">
        <ele>209.5</ele>
        <time>2017-01-08T13:21:05Z</time>
      </trkpt>
      <trkpt lat="43.6031" lon="3.42522">
        <ele>209.6</ele>
        <time>2017-01-08T13:21:08Z</time>
      </trkpt>
      <trkpt lat="43.60316" lon="3.42528">
        <ele>209.8</ele>
        <time>2017-01-08T13:21:11Z</time>
      </trkpt>
      <trkpt lat="43.60322" lon="3.42536">
        <ele>209.9</ele>
        <time>2017-01-08T13:21:15Z</time>
      </trkpt>
      <trkpt lat="43.60328" lon="3.42543">
        <ele>210.1</ele>
        <time>2017-01-08T13:21:18Z</time>
      </trkpt>
      <trkpt lat="43.60335" lon="3.42549">
        <ele>210.2</ele>
        <time>2017-01-08T13:21:21Z</time>
      </trkpt>
      <trkpt lat="43.6034" lon="3.42558">
        <ele>210.3</ele>
        <time>2017-01-08T13:21:24Z</time>
      </trkpt>
      <trkpt lat="43.60345" lon="3.42566">
        <ele>210.5</ele>
        <time>2017-01-08T13:21:27Z</time>
      </trkpt>
      <trkpt lat="43.6035" lon="3.42574">
        <ele>210.7</ele>
        <time>2017-01-08T13:21:30Z</time>
      </trkpt>
      <trkpt lat="43.60356" lon="3.42582">
        <ele>211.2</ele>
        <time>2017-01-08T13:21:34Z</time>
      </trkpt>
      <trkpt lat="43.60362" lon="3.4259">
        <ele>211.6</ele>
        <time>2017-01-08T13:21:37Z</time>
      </trkpt>
      <trkpt lat="43.60367" lon="3.42598">
        <ele>212</ele>
        <time>2017-01-08T13:21:40Z</time>
      </trkpt>
      <trkpt lat="43.60373" lon="3.42605">
        <ele>212.5</ele>
        <time>2017-01-08T13:21:43Z</time>
      </trkpt>
      <trkpt lat="43.60381" lon="3.42611">
        <ele>213</ele>
        <time>2017-01-08T13:21:47Z</time>
      </trkpt>
      <trkpt lat="43.60388" lon="3.42616">
        <ele>213.2</ele>
        <time>2017-01-08T13:21:50Z</time>
      </trkpt>
      <trkpt lat="43.60395" lon="3.42623">
        <ele>213.5</ele>
        <time>2017-01-08T13:21:53Z</time>
      </trkpt>
      <trkpt lat="43.60401" lon="3.42628">
        <ele>213.6</ele>
        <time>2017-01-08T13:21:56Z</time>
      </trkpt>
      <trkpt lat="43.60408" lon="3.42633">
        <ele>213.6</ele>
        <time>2017-01-08T13:21:59Z</time>
      </trkpt>
      <trkpt lat="43.60414" lon="3.4264">
        <ele>213.7</ele>
        <time>2017-01-08T13:22:02Z</time>
      </trkpt>
      <trkpt lat="43.60421" lon="3.42646">
        <ele>213.8</ele>
        <time>2017-01-08T13:22:05Z</time>
      </trkpt>
      <trkpt lat="43.60428" lon="3.42652">
        <ele>213.8</ele>
        <time>2017-01-08T13:22:08Z</time>
      </trkpt>
      <trkpt lat="43.60437" lon="3.42659">
        <ele>214.5</ele>
        <time>2017-01-08T13:22:13Z</time>
      </trkpt>
      <trkpt lat="43.60445" lon="3.42663">
        <ele>214.9</ele>
        <time>2017-01-08T13:22:16Z</time>
      </trkpt>
      <trkpt lat="43.60451" lon="3.42668">
        <ele>215.3</ele>
        <time>2017-01-08T13:22:19Z</time>
      </trkpt>
      <trkpt lat="43.6046" lon="3.42673">
        <ele>215.7</ele>
        <time>2017-01-08T13:22:23Z</time>
      </trkpt>
      <trkpt lat="43.60469" lon="3.42676">
        <ele>216</ele>
        <time>2017-01-08T13:22:27Z</time>
      </trkpt>
      <trkpt lat="43.60479" lon="3.42678">
        <ele>216.4</ele>
        <time>2017-01-08T13:22:31Z</time>
      </trkpt>
      <trkpt lat="43.60488" lon="3.42679">
        <ele>217</ele>
        <time>2017-01-08T13:22:35Z</time>
      </trkpt>
      <trkpt lat="43.60495" lon="3.42678">
        <ele>217.5</ele>
        <time>2017-01-08T13:22:38Z</time>
      </trkpt>
      <trkpt lat="43.60503" lon="3.42678">
        <ele>217.9</ele>
        <time>2017-01-08T13:22:41Z</time>
      </trkpt>
      <trkpt lat="43.6051" lon="3.42678">
        <ele>218.3</ele>
        <time>2017-01-08T13:22:44Z</time>
      </trkpt>
      <trkpt lat="43.60518" lon="3.42677">
        <ele>218.8</ele>
        <time>2017-01-08T13:22:47Z</time>
      </trkpt>
      <trkpt lat="43.60526" lon="3.42673">
        <ele>219.4</ele>
        <time>2017-01-08T13:22:51Z</time>
      </trkpt>
      <trkpt lat="43.60535" lon="3.42669">
        <ele>219.8</ele>
        <time>2017-01-08T13:22:54Z</time>
      </trkpt>
      <trkpt lat="43.60542" lon="3.42665">
        <ele>219.9</ele>
        <time>2017-01-08T13:22:56Z</time>
      </trkpt>
      <trkpt lat="43.6055" lon="3.4266">
        <ele>220.1</ele>
        <time>2017-01-08T13:22:59Z</time>
      </trkpt>
      <trkpt lat="43.60557" lon="3.42653">
        <ele>220.4</ele>
        <time>2017-01-08T13:23:02Z</time>
      </trkpt>
      <trkpt lat="43.60564" lon="3.42644">
        <ele>220.7</ele>
        <time>2017-01-08T13:23:05Z</time>
      </trkpt>
      <trkpt lat="43.6057" lon="3.42635">
        <ele>221</ele>
        <time>2017-01-08T13:23:08Z</time>
      </trkpt>
      <trkpt lat="43.60575" lon="3.42628">
        <ele>222.9</ele>
        <time>2017-01-08T13:23:10Z</time>
      </trkpt>
      <trkpt lat="43.60586" lon="3.42624">
        <ele>225.1</ele>
        <time>2017-01-08T13:23:13Z</time>
      </trkpt>
      <trkpt lat="43.60595" lon="3.42626">
        <ele>225.3</ele>
        <time>2017-01-08T13:23:15Z</time>
      </trkpt>
      <trkpt lat="43.60604" lon="3.4263">
        <ele>225.5</ele>
        <time>2017-01-08T13:23:18Z</time>
      </trkpt>
      <trkpt lat="43.6061" lon="3.42637">
        <ele>225.6</ele>
        <time>2017-01-08T13:23:21Z</time>
      </trkpt>
      <trkpt lat="43.60618" lon="3.42646">
        <ele>225.8</ele>
        <time>2017-01-08T13:23:24Z</time>
      </trkpt>
      <trkpt lat="43.60624" lon="3.42653">
        <ele>226.1</ele>
        <time>2017-01-08T13:23:27Z</time>
      </trkpt>
      <trkpt lat="43.6063" lon="3.42659">
        <ele>226.3</ele>
        <time>2017-01-08T13:23:30Z</time>
      </trkpt>
      <trkpt lat="43.60637" lon="3.42662">
        <ele>226.7</ele>
        <time>2017-01-08T13:23:33Z</time>
      </trkpt>
      <trkpt lat="43.60645" lon="3.42664">
        <ele>226.8</ele>
        <time>2017-01-08T13:23:36Z</time>
      </trkpt>
      <trkpt lat="43.60653" lon="3.42664">
        <ele>226.9</ele>
        <time>2017-01-08T13:23:39Z</time>
      </trkpt>
      <trkpt lat="43.60661" lon="3.42663">
        <ele>227</ele>
        <time>2017-01-08T13:23:42Z</time>
      </trkpt>
      <trkpt lat="43.6067" lon="3.42662">
        <ele>227.6</ele>
        <time>2017-01-08T13:23:46Z</time>
      </trkpt>
      <trkpt lat="43.60679" lon="3.42659">
        <ele>228.2</ele>
        <time>2017-01-08T13:23:50Z</time>
      </trkpt>
      <trkpt lat="43.60687" lon="3.42657">
        <ele>228.5</ele>
        <time>2017-01-08T13:23:53Z</time>
      </trkpt>
      <trkpt lat="43.60694" lon="3.42655">
        <ele>228.7</ele>
        <time>2017-01-08T13:23:56Z</time>
      </trkpt>
      <trkpt lat="43.60702" lon="3.42651">
        <ele>229.2</ele>
        <time>2017-01-08T13:24:00Z</time>
      </trkpt>
      <trkpt lat="43.60708" lon="3.42646">
        <ele>229.5</ele>
        <time>2017-01-08T13:24:03Z</time>
      </trkpt>
      <trkpt lat="43.60716" lon="3.4264">
        <ele>229.9</ele>
        <time>2017-01-08T13:24:07Z</time>
      </trkpt>
      <trkpt lat="43.60723" lon="3.42631">
        <ele>230.5</ele>
        <time>2017-01-08T13:24:11Z</time>
      </trkpt>
      <trkpt lat="43.60729" lon="3.42623">
        <ele>231</ele>
        <time>2017-01-08T13:24:14Z</time>
      </trkpt>
      <trkpt lat="43.60733" lon="3.42614">
        <ele>231.6</ele>
        <time>2017-01-08T13:24:17Z</time>
      </trkpt>
      <trkpt lat="43.60737" lon="3.42605">
        <ele>232.3</ele>
        <time>2017-01-08T13:24:20Z</time>
      </trkpt>
      <trkpt lat="43.60739" lon="3.42595">
        <ele>232.9</ele>
        <time>2017-01-08T13:24:23Z</time>
      </trkpt>
      <trkpt lat="43.60743" lon="3.42582">
        <ele>233.4</ele>
        <time>2017-01-08T13:24:27Z</time>
      </trkpt>
      <trkpt lat="43.60746" lon="3.42572">
        <ele>234.1</ele>
        <time>2017-01-08T13:24:30Z</time>
      </trkpt>
      <trkpt lat="43.60749" lon="3.42561">
        <ele>234.6</ele>
        <time>2017-01-08T13:24:33Z</time>
      </trkpt>
      <trkpt lat="43.60751" lon="3.42548">
        <ele>235</ele>
        <time>2017-01-08T13:24:36Z</time>
      </trkpt>
      <trkpt lat="43.60753" lon="3.42537">
        <ele>235.7</ele>
        <time>2017-01-08T13:24:39Z</time>
      </trkpt>
      <trkpt lat="43.60756" lon="3.42524">
        <ele>236.5</ele>
        <time>2017-01-08T13:24:43Z</time>
      </trkpt>
      <trkpt lat="43.6076" lon="3.42514">
        <ele>237</ele>
        <time>2017-01-08T13:24:46Z</time>
      </trkpt>
      <trkpt lat="43.60764" lon="3.42502">
        <ele>237.5</ele>
        <time>2017-01-08T13:24:49Z</time>
      </trkpt>
      <trkpt lat="43.60768" lon="3.42493">
        <ele>238.1</ele>
        <time>2017-01-08T13:24:51Z</time>
      </trkpt>
      <trkpt lat="43.60773" lon="3.42482">
        <ele>238.8</ele>
        <time>2017-01-08T13:24:55Z</time>
      </trkpt>
      <trkpt lat="43.60777" lon="3.42471">
        <ele>239.3</ele>
        <time>2017-01-08T13:24:58Z</time>
      </trkpt>
      <trkpt lat="43.6078" lon="3.42461">
        <ele>240</ele>
        <time>2017-01-08T13:25:01Z</time>
      </trkpt>
      <trkpt lat="43.60784" lon="3.42452">
        <ele>240.4</ele>
        <time>2017-01-08T13:25:04Z</time>
      </trkpt>
      <trkpt lat="43.60787" lon="3.42443">
        <ele>240.8</ele>
        <time>2017-01-08T13:25:07Z</time>
      </trkpt>
      <trkpt lat="43.60791" lon="3.42433">
        <ele>241.1</ele>
        <time>2017-01-08T13:25:10Z</time>
      </trkpt>
      <trkpt lat="43.60794" lon="3.42422">
        <ele>241.4</ele>
        <time>2017-01-08T13:25:13Z</time>
      </trkpt>
      <trkpt lat="43.60796" lon="3.4241">
        <ele>241.7</ele>
        <time>2017-01-08T13:25:16Z</time>
      </trkpt>
      <trkpt lat="43.60798" lon="3.42398">
        <ele>241.8</ele>
        <time>2017-01-08T13:25:19Z</time>
      </trkpt>
      <trkpt lat="43.60799" lon="3.42384">
        <ele>242</ele>
        <time>2017-01-08T13:25:22Z</time>
      </trkpt>
      <trkpt lat="43.608" lon="3.42373">
        <ele>242.3</ele>
        <time>2017-01-08T13:25:24Z</time>
      </trkpt>
      <trkpt lat="43.60801" lon="3.42359">
        <ele>242.8</ele>
        <time>2017-01-08T13:25:27Z</time>
      </trkpt>
      <trkpt lat="43.60802" lon="3.42345">
        <ele>243.5</ele>
        <time>2017-01-08T13:25:30Z</time>
      </trkpt>
      <trkpt lat="43.60804" lon="3.42336">
        <ele>243.9</ele>
        <time>2017-01-08T13:25:32Z</time>
      </trkpt>
      <trkpt lat="43.60808" lon="3.42325">
        <ele>244.8</ele>
        <time>2017-01-08T13:25:37Z</time>
      </trkpt>
      <trkpt lat="43.60813" lon="3.42315">
        <ele>245</ele>
        <time>2017-01-08T13:25:40Z</time>
      </trkpt>
      <trkpt lat="43.60818" lon="3.42303">
        <ele>245</ele>
        <time>2017-01-08T13:25:43Z</time>
      </trkpt>
      <trkpt lat="43.60822" lon="3.42294">
        <ele>244.8</ele>
        <time>2017-01-08T13:25:46Z</time>
      </trkpt>
      <trkpt lat="43.60827" lon="3.42284">
        <ele>244.6</ele>
        <time>2017-01-08T13:25:49Z</time>
      </trkpt>
      <trkpt lat="43.6083" lon="3.42272">
        <ele>244.6</ele>
        <time>2017-01-08T13:25:52Z</time>
      </trkpt>
      <trkpt lat="43.60834" lon="3.4226">
        <ele>244.9</ele>
        <time>2017-01-08T13:25:55Z</time>
      </trkpt>
      <trkpt lat="43.60838" lon="3.4225">
        <ele>245.4</ele>
        <time>2017-01-08T13:25:58Z</time>
      </trkpt>
      <trkpt lat="43.60843" lon="3.42242">
        <ele>245.8</ele>
        <time>2017-01-08T13:26:01Z</time>
      </trkpt>
      <trkpt lat="43.60849" lon="3.42233">
        <ele>246.1</ele>
        <time>2017-01-08T13:26:04Z</time>
      </trkpt>
      <trkpt lat="43.60856" lon="3.42227">
        <ele>246.2</ele>
        <time>2017-01-08T13:26:08Z</time>
      </trkpt>
      <trkpt lat="43.60862" lon="3.42221">
        <ele>246.3</ele>
        <time>2017-01-08T13:26:11Z</time>
      </trkpt>
      <trkpt lat="43.60869" lon="3.42215">
        <ele>246.3</ele>
        <time>2017-01-08T13:26:14Z</time>
      </trkpt>
      <trkpt lat="43.60876" lon="3.42209">
        <ele>246.1</ele>
        <time>2017-01-08T13:26:17Z</time>
      </trkpt>
      <trkpt lat="43.60884" lon="3.42203">
        <ele>245.9</ele>
        <time>2017-01-08T13:26:21Z</time>
      </trkpt>
      <trkpt lat="43.60891" lon="3.42196">
        <ele>246</ele>
        <time>2017-01-08T13:26:25Z</time>
      </trkpt>
      <trkpt lat="43.60898" lon="3.42189">
        <ele>246.1</ele>
        <time>2017-01-08T13:26:28Z</time>
      </trkpt>
      <trkpt lat="43.60904" lon="3.42182">
        <ele>246.2</ele>
        <time>2017-01-08T13:26:31Z</time>
      </trkpt>
      <trkpt lat="43.6091" lon="3.42175">
        <ele>246.4</ele>
        <time>2017-01-08T13:26:34Z</time>
      </trkpt>
      <trkpt lat="43.60915" lon="3.42166">
        <ele>246.5</ele>
        <time>2017-01-08T13:26:37Z</time>
      </trkpt>
      <trkpt lat="43.60919" lon="3.42154">
        <ele>246.7</ele>
        <time>2017-01-08T13:26:40Z</time>
      </trkpt>
      <trkpt lat="43.60922" lon="3.42143">
        <ele>246.8</ele>
        <time>2017-01-08T13:26:43Z</time>
      </trkpt>
      <trkpt lat="43.60923" lon="3.4213">
        <ele>247</ele>
        <time>2017-01-08T13:26:46Z</time>
      </trkpt>
      <trkpt lat="43.60924" lon="3.42119">
        <ele>247.4</ele>
        <time>2017-01-08T13:26:49Z</time>
      </trkpt>
      <trkpt lat="43.60925" lon="3.42105">
        <ele>247.8</ele>
        <time>2017-01-08T13:26:52Z</time>
      </trkpt>
      <trkpt lat="43.60932" lon="3.42098">
        <ele>248.3</ele>
        <time>2017-01-08T13:26:57Z</time>
      </trkpt>
      <trkpt lat="43.6094" lon="3.42098">
        <ele>248.5</ele>
        <time>2017-01-08T13:27:00Z</time>
      </trkpt>
      <trkpt lat="43.60949" lon="3.42098">
        <ele>248.5</ele>
        <time>2017-01-08T13:27:03Z</time>
      </trkpt>
      <trkpt lat="43.60958" lon="3.42097">
        <ele>248.6</ele>
        <time>2017-01-08T13:27:06Z</time>
      </trkpt>
      <trkpt lat="43.60967" lon="3.42095">
        <ele>248.6</ele>
        <time>2017-01-08T13:27:09Z</time>
      </trkpt>
      <trkpt lat="43.60976" lon="3.42093">
        <ele>248.7</ele>
        <time>2017-01-08T13:27:12Z</time>
      </trkpt>
      <trkpt lat="43.60985" lon="3.42088">
        <ele>248.9</ele>
        <time>2017-01-08T13:27:15Z</time>
      </trkpt>
      <trkpt lat="43.60992" lon="3.42082">
        <ele>249.2</ele>
        <time>2017-01-08T13:27:18Z</time>
      </trkpt>
      <trkpt lat="43.60999" lon="3.42074">
        <ele>249.4</ele>
        <time>2017-01-08T13:27:21Z</time>
      </trkpt>
      <trkpt lat="43.61005" lon="3.42066">
        <ele>249.7</ele>
        <time>2017-01-08T13:27:24Z</time>
      </trkpt>
      <trkpt lat="43.61011" lon="3.42057">
        <ele>250</ele>
        <time>2017-01-08T13:27:27Z</time>
      </trkpt>
      <trkpt lat="43.61016" lon="3.42047">
        <ele>250.4</ele>
        <time>2017-01-08T13:27:30Z</time>
      </trkpt>
      <trkpt lat="43.61022" lon="3.42038">
        <ele>250.8</ele>
        <time>2017-01-08T13:27:33Z</time>
      </trkpt>
      <trkpt lat="43.61029" lon="3.42027">
        <ele>251.3</ele>
        <time>2017-01-08T13:27:36Z</time>
      </trkpt>
      <trkpt lat="43.61033" lon="3.42019">
        <ele>251.7</ele>
        <time>2017-01-08T13:27:38Z</time>
      </trkpt>
      <trkpt lat="43.61039" lon="3.42009">
        <ele>252.3</ele>
        <time>2017-01-08T13:27:41Z</time>
      </trkpt>
      <trkpt lat="43.61044" lon="3.42">
        <ele>252.5</ele>
        <time>2017-01-08T13:27:44Z</time>
      </trkpt>
      <trkpt lat="43.6105" lon="3.41991">
        <ele>252.7</ele>
        <time>2017-01-08T13:27:46Z</time>
      </trkpt>
      <trkpt lat="43.61054" lon="3.41983">
        <ele>253.1</ele>
        <time>2017-01-08T13:27:48Z</time>
      </trkpt>
      <trkpt lat="43.61059" lon="3.41974">
        <ele>253.4</ele>
        <time>2017-01-08T13:27:50Z</time>
      </trkpt>
      <trkpt lat="43.61064" lon="3.41964">
        <ele>253.9</ele>
        <time>2017-01-08T13:27:53Z</time>
      </trkpt>
      <trkpt lat="43.6107" lon="3.41951">
        <ele>254.4</ele>
        <time>2017-01-08T13:27:56Z</time>
      </trkpt>
      <trkpt lat="43.61074" lon="3.4194">
        <ele>254.8</ele>
        <time>2017-01-08T13:27:58Z</time>
      </trkpt>
      <trkpt lat="43.61077" lon="3.41931">
        <ele>255.2</ele>
        <time>2017-01-08T13:28:00Z</time>
      </trkpt>
      <trkpt lat="43.61079" lon="3.41919">
        <ele>257.5</ele>
        <time>2017-01-08T13:28:02Z</time>
      </trkpt>
      <trkpt lat="43.61081" lon="3.41908">
        <ele>260.8</ele>
        <time>2017-01-08T13:28:04Z</time>
      </trkpt>
      <trkpt lat="43.61084" lon="3.41897">
        <ele>263.3</ele>
        <time>2017-01-08T13:28:06Z</time>
      </trkpt>
      <trkpt lat="43.61085" lon="3.41883">
        <ele>265.4</ele>
        <time>2017-01-08T13:28:08Z</time>
      </trkpt>
      <trkpt lat="43.61087" lon="3.41871">
        <ele>266.8</ele>
        <time>2017-01-08T13:28:10Z</time>
      </trkpt>
      <trkpt lat="43.61088" lon="3.41855">
        <ele>265.9</ele>
        <time>2017-01-08T13:28:13Z</time>
      </trkpt>
      <trkpt lat="43.61088" lon="3.41842">
        <ele>266.2</ele>
        <time>2017-01-08T13:28:15Z</time>
      </trkpt>
      <trkpt lat="43.61088" lon="3.4183">
        <ele>266</ele>
        <time>2017-01-08T13:28:17Z</time>
      </trkpt>
      <trkpt lat="43.6109" lon="3.4182">
        <ele>265.2</ele>
        <time>2017-01-08T13:28:19Z</time>
      </trkpt>
      <trkpt lat="43.61102" lon="3.41824">
        <ele>261.6</ele>
        <time>2017-01-08T13:28:22Z</time>
      </trkpt>
      <trkpt lat="43.61106" lon="3.41837">
        <ele>258.9</ele>
        <time>2017-01-08T13:28:24Z</time>
      </trkpt>
      <trkpt lat="43.61114" lon="3.41851">
        <ele>256.5</ele>
        <time>2017-01-08T13:28:26Z</time>
      </trkpt>
      <trkpt lat="43.61123" lon="3.41864">
        <ele>255</ele>
        <time>2017-01-08T13:28:28Z</time>
      </trkpt>
      <trkpt lat="43.61132" lon="3.41866">
        <ele>253.8</ele>
        <time>2017-01-08T13:28:30Z</time>
      </trkpt>
      <trkpt lat="43.6114" lon="3.41858">
        <ele>252.7</ele>
        <time>2017-01-08T13:28:33Z</time>
      </trkpt>
      <trkpt lat="43.61143" lon="3.41848">
        <ele>252.8</ele>
        <time>2017-01-08T13:28:37Z</time>
      </trkpt>
      <trkpt lat="43.61146" lon="3.41835">
        <ele>252.8</ele>
        <time>2017-01-08T13:28:40Z</time>
      </trkpt>
      <trkpt lat="43.61147" lon="3.41825">
        <ele>253</ele>
        <time>2017-01-08T13:28:43Z</time>
      </trkpt>
      <trkpt lat="43.61147" lon="3.41812">
        <ele>253.1</ele>
        <time>2017-01-08T13:28:46Z</time>
      </trkpt>
      <trkpt lat="43.61148" lon="3.41801">
        <ele>253.5</ele>
        <time>2017-01-08T13:28:49Z</time>
      </trkpt>
      <trkpt lat="43.61147" lon="3.41788">
        <ele>254.5</ele>
        <time>2017-01-08T13:28:53Z</time>
      </trkpt>
      <trkpt lat="43.61147" lon="3.41777">
        <ele>255.6</ele>
        <time>2017-01-08T13:28:57Z</time>
      </trkpt>
      <trkpt lat="43.61147" lon="3.41765">
        <ele>256.7</ele>
        <time>2017-01-08T13:29:02Z</time>
      </trkpt>
      <trkpt lat="43.61148" lon="3.41754">
        <ele>257.6</ele>
        <time>2017-01-08T13:29:06Z</time>
      </trkpt>
      <trkpt lat="43.6115" lon="3.41743">
        <ele>258.8</ele>
        <time>2017-01-08T13:29:11Z</time>
      </trkpt>
      <trkpt lat="43.61152" lon="3.4173">
        <ele>259.5</ele>
        <time>2017-01-08T13:29:15Z</time>
      </trkpt>
      <trkpt lat="43.61154" lon="3.41719">
        <ele>260.9</ele>
        <time>2017-01-08T13:29:21Z</time>
      </trkpt>
      <trkpt lat="43.61155" lon="3.41708">
        <ele>262.4</ele>
        <time>2017-01-08T13:29:26Z</time>
      </trkpt>
      <trkpt lat="43.61157" lon="3.41698">
        <ele>263.6</ele>
        <time>2017-01-08T13:29:30Z</time>
      </trkpt>
      <trkpt lat="43.61161" lon="3.41686">
        <ele>264.7</ele>
        <time>2017-01-08T13:29:36Z</time>
      </trkpt>
      <trkpt lat="43.61164" lon="3.41675">
        <ele>265.5</ele>
        <time>2017-01-08T13:29:41Z</time>
      </trkpt>
      <trkpt lat="43.61164" lon="3.41664">
        <ele>266.4</ele>
        <time>2017-01-08T13:29:45Z</time>
      </trkpt>
      <trkpt lat="43.61166" lon="3.41654">
        <ele>267.7</ele>
        <time>2017-01-08T13:29:49Z</time>
      </trkpt>
      <trkpt lat="43.61169" lon="3.41644">
        <ele>268.9</ele>
        <time>2017-01-08T13:29:54Z</time>
      </trkpt>
      <trkpt lat="43.61173" lon="3.41635">
        <ele>269.6</ele>
        <time>2017-01-08T13:29:58Z</time>
      </trkpt>
      <trkpt lat="43.61177" lon="3.41623">
        <ele>270.5</ele>
        <time>2017-01-08T13:30:02Z</time>
      </trkpt>
      <trkpt lat="43.61179" lon="3.41613">
        <ele>271.4</ele>
        <time>2017-01-08T13:30:06Z</time>
      </trkpt>
      <trkpt lat="43.61182" lon="3.41602">
        <ele>271.8</ele>
        <time>2017-01-08T13:30:10Z</time>
      </trkpt>
      <trkpt lat="43.61184" lon="3.41591">
        <ele>271.9</ele>
        <time>2017-01-08T13:30:14Z</time>
      </trkpt>
      <trkpt lat="43.61185" lon="3.41578">
        <ele>272.2</ele>
        <time>2017-01-08T13:30:18Z</time>
      </trkpt>
      <trkpt lat="43.61186" lon="3.41567">
        <ele>272.4</ele>
        <time>2017-01-08T13:30:21Z</time>
      </trkpt>
      <trkpt lat="43.61187" lon="3.41556">
        <ele>272.9</ele>
        <time>2017-01-08T13:30:25Z</time>
      </trkpt>
      <trkpt lat="43.61189" lon="3.41543">
        <ele>273.5</ele>
        <time>2017-01-08T13:30:29Z</time>
      </trkpt>
      <trkpt lat="43.61191" lon="3.41532">
        <ele>274</ele>
        <time>2017-01-08T13:30:33Z</time>
      </trkpt>
      <trkpt lat="43.61195" lon="3.41521">
        <ele>274.3</ele>
        <time>2017-01-08T13:30:37Z</time>
      </trkpt>
      <trkpt lat="43.61198" lon="3.41512">
        <ele>274.5</ele>
        <time>2017-01-08T13:30:40Z</time>
      </trkpt>
      <trkpt lat="43.61201" lon="3.41501">
        <ele>274.9</ele>
        <time>2017-01-08T13:30:44Z</time>
      </trkpt>
      <trkpt lat="43.61202" lon="3.41489">
        <ele>275.4</ele>
        <time>2017-01-08T13:30:48Z</time>
      </trkpt>
      <trkpt lat="43.61206" lon="3.41478">
        <ele>275.6</ele>
        <time>2017-01-08T13:30:52Z</time>
      </trkpt>
      <trkpt lat="43.61209" lon="3.41468">
        <ele>275.8</ele>
        <time>2017-01-08T13:30:56Z</time>
      </trkpt>
      <trkpt lat="43.61209" lon="3.41458">
        <ele>276</ele>
        <time>2017-01-08T13:30:59Z</time>
      </trkpt>
      <trkpt lat="43.61201" lon="3.41452">
        <ele>276.2</ele>
        <time>2017-01-08T13:31:04Z</time>
      </trkpt>
      <trkpt lat="43.61193" lon="3.4145">
        <ele>276.5</ele>
        <time>2017-01-08T13:31:08Z</time>
      </trkpt>
      <trkpt lat="43.61185" lon="3.41448">
        <ele>276.8</ele>
        <time>2017-01-08T13:31:12Z</time>
      </trkpt>
      <trkpt lat="43.61177" lon="3.41448">
        <ele>277.1</ele>
        <time>2017-01-08T13:31:17Z</time>
      </trkpt>
      <trkpt lat="43.61169" lon="3.41444">
        <ele>277.8</ele>
        <time>2017-01-08T13:31:22Z</time>
      </trkpt>
      <trkpt lat="43.61163" lon="3.41435">
        <ele>278.6</ele>
        <time>2017-01-08T13:31:27Z</time>
      </trkpt>
      <trkpt lat="43.61159" lon="3.41426">
        <ele>279.1</ele>
        <time>2017-01-08T13:31:31Z</time>
      </trkpt>
      <trkpt lat="43.61155" lon="3.41416">
        <ele>280.4</ele>
        <time>2017-01-08T13:31:37Z</time>
      </trkpt>
      <trkpt lat="43.61151" lon="3.41407">
        <ele>281.2</ele>
        <time>2017-01-08T13:31:42Z</time>
      </trkpt>
      <trkpt lat="43.61147" lon="3.41399">
        <ele>282</ele>
        <time>2017-01-08T13:31:46Z</time>
      </trkpt>
      <trkpt lat="43.61142" lon="3.41389">
        <ele>283.5</ele>
        <time>2017-01-08T13:31:52Z</time>
      </trkpt>
      <trkpt lat="43.61136" lon="3.4138">
        <ele>284.3</ele>
        <time>2017-01-08T13:31:57Z</time>
      </trkpt>
      <trkpt lat="43.61129" lon="3.41373">
        <ele>285</ele>
        <time>2017-01-08T13:32:02Z</time>
      </trkpt>
      <trkpt lat="43.61121" lon="3.41367">
        <ele>285.8</ele>
        <time>2017-01-08T13:32:07Z</time>
      </trkpt>
      <trkpt lat="43.61114" lon="3.4136">
        <ele>286.2</ele>
        <time>2017-01-08T13:32:11Z</time>
      </trkpt>
      <trkpt lat="43.61109" lon="3.41353">
        <ele>286.8</ele>
        <time>2017-01-08T13:32:15Z</time>
      </trkpt>
      <trkpt lat="43.61102" lon="3.41344">
        <ele>287.3</ele>
        <time>2017-01-08T13:32:19Z</time>
      </trkpt>
      <trkpt lat="43.61095" lon="3.41337">
        <ele>287.8</ele>
        <time>2017-01-08T13:32:23Z</time>
      </trkpt>
      <trkpt lat="43.61087" lon="3.41331">
        <ele>288.2</ele>
        <time>2017-01-08T13:32:27Z</time>
      </trkpt>
      <trkpt lat="43.6108" lon="3.41324">
        <ele>288.5</ele>
        <time>2017-01-08T13:32:30Z</time>
      </trkpt>
      <trkpt lat="43.61074" lon="3.41317">
        <ele>288.8</ele>
        <time>2017-01-08T13:32:33Z</time>
      </trkpt>
      <trkpt lat="43.61069" lon="3.41308">
        <ele>289.1</ele>
        <time>2017-01-08T13:32:36Z</time>
      </trkpt>
      <trkpt lat="43.61064" lon="3.41299">
        <ele>289.4</ele>
        <time>2017-01-08T13:32:39Z</time>
      </trkpt>
      <trkpt lat="43.61057" lon="3.41291">
        <ele>289.8</ele>
        <time>2017-01-08T13:32:43Z</time>
      </trkpt>
      <trkpt lat="43.61052" lon="3.41284">
        <ele>290.2</ele>
        <time>2017-01-08T13:32:46Z</time>
      </trkpt>
      <trkpt lat="43.61044" lon="3.41278">
        <ele>290.8</ele>
        <time>2017-01-08T13:32:50Z</time>
      </trkpt>
      <trkpt lat="43.61037" lon="3.41273">
        <ele>291.2</ele>
        <time>2017-01-08T13:32:54Z</time>
      </trkpt>
      <trkpt lat="43.61031" lon="3.41267">
        <ele>291.6</ele>
        <time>2017-01-08T13:32:57Z</time>
      </trkpt>
      <trkpt lat="43.61025" lon="3.41261">
        <ele>292.1</ele>
        <time>2017-01-08T13:33:00Z</time>
      </trkpt>
      <trkpt lat="43.61019" lon="3.41251">
        <ele>292.7</ele>
        <time>2017-01-08T13:33:04Z</time>
      </trkpt>
      <trkpt lat="43.61015" lon="3.41243">
        <ele>293.2</ele>
        <time>2017-01-08T13:33:07Z</time>
      </trkpt>
      <trkpt lat="43.61007" lon="3.41237">
        <ele>294</ele>
        <time>2017-01-08T13:33:11Z</time>
      </trkpt>
      <trkpt lat="43.60999" lon="3.41236">
        <ele>294.5</ele>
        <time>2017-01-08T13:33:14Z</time>
      </trkpt>
      <trkpt lat="43.60991" lon="3.41234">
        <ele>295.2</ele>
        <time>2017-01-08T13:33:18Z</time>
      </trkpt>
      <trkpt lat="43.60984" lon="3.41229">
        <ele>295.9</ele>
        <time>2017-01-08T13:33:22Z</time>
      </trkpt>
      <trkpt lat="43.60977" lon="3.41223">
        <ele>296.6</ele>
        <time>2017-01-08T13:33:25Z</time>
      </trkpt>
      <trkpt lat="43.6097" lon="3.41216">
        <ele>297.5</ele>
        <time>2017-01-08T13:33:29Z</time>
      </trkpt>
      <trkpt lat="43.60964" lon="3.4121">
        <ele>298</ele>
        <time>2017-01-08T13:33:32Z</time>
      </trkpt>
      <trkpt lat="43.60956" lon="3.41203">
        <ele>298.4</ele>
        <time>2017-01-08T13:33:36Z</time>
      </trkpt>
      <trkpt lat="43.60947" lon="3.41205">
        <ele>299</ele>
        <time>2017-01-08T13:33:40Z</time>
      </trkpt>
      <trkpt lat="43.60938" lon="3.41205">
        <ele>300.4</ele>
        <time>2017-01-08T13:33:42Z</time>
      </trkpt>
      <trkpt lat="43.60928" lon="3.41205">
        <ele>301.4</ele>
        <time>2017-01-08T13:33:44Z</time>
      </trkpt>
      <trkpt lat="43.6092" lon="3.41205">
        <ele>301.6</ele>
        <time>2017-01-08T13:33:46Z</time>
      </trkpt>
      <trkpt lat="43.6091" lon="3.41206">
        <ele>301.7</ele>
        <time>2017-01-08T13:33:49Z</time>
      </trkpt>
      <trkpt lat="43.60902" lon="3.41208">
        <ele>301.6</ele>
        <time>2017-01-08T13:33:51Z</time>
      </trkpt>
      <trkpt lat="43.60891" lon="3.41211">
        <ele>301.6</ele>
        <time>2017-01-08T13:33:54Z</time>
      </trkpt>
      <trkpt lat="43.60884" lon="3.41212">
        <ele>301.6</ele>
        <time>2017-01-08T13:33:56Z</time>
      </trkpt>
      <trkpt lat="43.60875" lon="3.41214">
        <ele>301.5</ele>
        <time>2017-01-08T13:33:59Z</time>
      </trkpt>
      <trkpt lat="43.60866" lon="3.41218">
        <ele>301.4</ele>
        <time>2017-01-08T13:34:02Z</time>
      </trkpt>
      <trkpt lat="43.60856" lon="3.41221">
        <ele>301.4</ele>
        <time>2017-01-08T13:34:05Z</time>
      </trkpt>
      <trkpt lat="43.60846" lon="3.41225">
        <ele>301.4</ele>
        <time>2017-01-08T13:34:08Z</time>
      </trkpt>
      <trkpt lat="43.60837" lon="3.41227">
        <ele>301.2</ele>
        <time>2017-01-08T13:34:12Z</time>
      </trkpt>
      <trkpt lat="43.60839" lon="3.41229">
        <ele>301.7</ele>
        <time>2017-01-08T13:34:19Z</time>
      </trkpt>
      <trkpt lat="43.60836" lon="3.41229">
        <ele>301.9</ele>
        <time>2017-01-08T13:34:26Z</time>
      </trkpt>
      <trkpt lat="43.60837" lon="3.41225">
        <ele>302.4</ele>
        <time>2017-01-08T13:35:00Z</time>
      </trkpt>
      <trkpt lat="43.60837" lon="3.41212">
        <ele>302.5</ele>
        <time>2017-01-08T13:35:04Z</time>
      </trkpt>
      <trkpt lat="43.6084" lon="3.41202">
        <ele>302.7</ele>
        <time>2017-01-08T13:35:11Z</time>
      </trkpt>
      <trkpt lat="43.60837" lon="3.4119">
        <ele>302.6</ele>
        <time>2017-01-08T13:35:14Z</time>
      </trkpt>
      <trkpt lat="43.60841" lon="3.41181">
        <ele>302.2</ele>
        <time>2017-01-08T13:35:18Z</time>
      </trkpt>
      <trkpt lat="43.60843" lon="3.4117">
        <ele>301.4</ele>
        <time>2017-01-08T13:35:22Z</time>
      </trkpt>
      <trkpt lat="43.60843" lon="3.41159">
        <ele>300.4</ele>
        <time>2017-01-08T13:35:26Z</time>
      </trkpt>
      <trkpt lat="43.60835" lon="3.41155">
        <ele>299.3</ele>
        <time>2017-01-08T13:35:29Z</time>
      </trkpt>
      <trkpt lat="43.60834" lon="3.41144">
        <ele>298</ele>
        <time>2017-01-08T13:35:33Z</time>
      </trkpt>
      <trkpt lat="43.60837" lon="3.41131">
        <ele>296.9</ele>
        <time>2017-01-08T13:35:36Z</time>
      </trkpt>
      <trkpt lat="43.60844" lon="3.41126">
        <ele>295.7</ele>
        <time>2017-01-08T13:35:39Z</time>
      </trkpt>
      <trkpt lat="43.60838" lon="3.41117">
        <ele>293.8</ele>
        <time>2017-01-08T13:35:43Z</time>
      </trkpt>
      <trkpt lat="43.60834" lon="3.41108">
        <ele>292.2</ele>
        <time>2017-01-08T13:35:46Z</time>
      </trkpt>
      <trkpt lat="43.60833" lon="3.41095">
        <ele>290.6</ele>
        <time>2017-01-08T13:35:49Z</time>
      </trkpt>
      <trkpt lat="43.60835" lon="3.41081">
        <ele>288.9</ele>
        <time>2017-01-08T13:35:52Z</time>
      </trkpt>
      <trkpt lat="43.6084" lon="3.4107">
        <ele>287.2</ele>
        <time>2017-01-08T13:35:55Z</time>
      </trkpt>
      <trkpt lat="43.60834" lon="3.41063">
        <ele>284.8</ele>
        <time>2017-01-08T13:36:00Z</time>
      </trkpt>
      <trkpt lat="43.60832" lon="3.41046">
        <ele>275.5</ele>
        <time>2017-01-08T13:36:02Z</time>
      </trkpt>
      <trkpt lat="43.60829" lon="3.4103">
        <ele>269.8</ele>
        <time>2017-01-08T13:36:04Z</time>
      </trkpt>
      <trkpt lat="43.60825" lon="3.41015">
        <ele>264.1</ele>
        <time>2017-01-08T13:36:06Z</time>
      </trkpt>
      <trkpt lat="43.6082" lon="3.40996">
        <ele>257.5</ele>
        <time>2017-01-08T13:36:08Z</time>
      </trkpt>
      <trkpt lat="43.60815" lon="3.40978">
        <ele>250.9</ele>
        <time>2017-01-08T13:36:10Z</time>
      </trkpt>
      <trkpt lat="43.60811" lon="3.40962">
        <ele>245.3</ele>
        <time>2017-01-08T13:36:12Z</time>
      </trkpt>
      <trkpt lat="43.60806" lon="3.40954">
        <ele>243</ele>
        <time>2017-01-08T13:36:14Z</time>
      </trkpt>
      <trkpt lat="43.60797" lon="3.40949">
        <ele>242.5</ele>
        <time>2017-01-08T13:36:17Z</time>
      </trkpt>
      <trkpt lat="43.60788" lon="3.40949">
        <ele>240.9</ele>
        <time>2017-01-08T13:36:19Z</time>
      </trkpt>
      <trkpt lat="43.60778" lon="3.40947">
        <ele>240.6</ele>
        <time>2017-01-08T13:36:21Z</time>
      </trkpt>
      <trkpt lat="43.6077" lon="3.4094">
        <ele>239.2</ele>
        <time>2017-01-08T13:36:23Z</time>
      </trkpt>
      <trkpt lat="43.60759" lon="3.4093">
        <ele>237.2</ele>
        <time>2017-01-08T13:36:25Z</time>
      </trkpt>
      <trkpt lat="43.6075" lon="3.40923">
        <ele>233.6</ele>
        <time>2017-01-08T13:36:27Z</time>
      </trkpt>
      <trkpt lat="43.60741" lon="3.40915">
        <ele>230</ele>
        <time>2017-01-08T13:36:29Z</time>
      </trkpt>
      <trkpt lat="43.60729" lon="3.40908">
        <ele>226.7</ele>
        <time>2017-01-08T13:36:31Z</time>
      </trkpt>
      <trkpt lat="43.60722" lon="3.40905">
        <ele>225.2</ele>
        <time>2017-01-08T13:36:32Z</time>
      </trkpt>
      <trkpt lat="43.6071" lon="3.40909">
        <ele>222.9</ele>
        <time>2017-01-08T13:36:34Z</time>
      </trkpt>
      <trkpt lat="43.60701" lon="3.40911">
        <ele>222.7</ele>
        <time>2017-01-08T13:36:35Z</time>
      </trkpt>
      <trkpt lat="43.60694" lon="3.40914">
        <ele>222.5</ele>
        <time>2017-01-08T13:36:36Z</time>
      </trkpt>
      <trkpt lat="43.60682" lon="3.40919">
        <ele>221.7</ele>
        <time>2017-01-08T13:36:38Z</time>
      </trkpt>
      <trkpt lat="43.60671" lon="3.40923">
        <ele>220.8</ele>
        <time>2017-01-08T13:36:40Z</time>
      </trkpt>
      <trkpt lat="43.60662" lon="3.40928">
        <ele>220.8</ele>
        <time>2017-01-08T13:36:42Z</time>
      </trkpt>
      <trkpt lat="43.60656" lon="3.40936">
        <ele>220.8</ele>
        <time>2017-01-08T13:36:44Z</time>
      </trkpt>
      <trkpt lat="43.60649" lon="3.40942">
        <ele>220.8</ele>
        <time>2017-01-08T13:36:46Z</time>
      </trkpt>
      <trkpt lat="43.60643" lon="3.40948">
        <ele>220.8</ele>
        <time>2017-01-08T13:36:48Z</time>
      </trkpt>
      <trkpt lat="43.60637" lon="3.40953">
        <ele>221.1</ele>
        <time>2017-01-08T13:36:50Z</time>
      </trkpt>
      <trkpt lat="43.6063" lon="3.40956">
        <ele>221.1</ele>
        <time>2017-01-08T13:36:52Z</time>
      </trkpt>
      <trkpt lat="43.60622" lon="3.4096">
        <ele>220.6</ele>
        <time>2017-01-08T13:36:54Z</time>
      </trkpt>
      <trkpt lat="43.60614" lon="3.40961">
        <ele>220.5</ele>
        <time>2017-01-08T13:36:56Z</time>
      </trkpt>
      <trkpt lat="43.60605" lon="3.40955">
        <ele>220.5</ele>
        <time>2017-01-08T13:36:59Z</time>
      </trkpt>
      <trkpt lat="43.60596" lon="3.40948">
        <ele>219</ele>
        <time>2017-01-08T13:37:01Z</time>
      </trkpt>
      <trkpt lat="43.60583" lon="3.40941">
        <ele>216.3</ele>
        <time>2017-01-08T13:37:03Z</time>
      </trkpt>
      <trkpt lat="43.60573" lon="3.40934">
        <ele>214.3</ele>
        <time>2017-01-08T13:37:05Z</time>
      </trkpt>
      <trkpt lat="43.60568" lon="3.40928">
        <ele>214.2</ele>
        <time>2017-01-08T13:37:07Z</time>
      </trkpt>
      <trkpt lat="43.60565" lon="3.40915">
        <ele>213.7</ele>
        <time>2017-01-08T13:37:09Z</time>
      </trkpt>
      <trkpt lat="43.60566" lon="3.40902">
        <ele>213.8</ele>
        <time>2017-01-08T13:37:11Z</time>
      </trkpt>
      <trkpt lat="43.60574" lon="3.40895">
        <ele>213.8</ele>
        <time>2017-01-08T13:37:14Z</time>
      </trkpt>
      <trkpt lat="43.60582" lon="3.40886">
        <ele>211.6</ele>
        <time>2017-01-08T13:37:17Z</time>
      </trkpt>
      <trkpt lat="43.60587" lon="3.40876">
        <ele>209.9</ele>
        <time>2017-01-08T13:37:19Z</time>
      </trkpt>
      <trkpt lat="43.60593" lon="3.40864">
        <ele>208</ele>
        <time>2017-01-08T13:37:21Z</time>
      </trkpt>
      <trkpt lat="43.60595" lon="3.4085">
        <ele>207.1</ele>
        <time>2017-01-08T13:37:23Z</time>
      </trkpt>
      <trkpt lat="43.60593" lon="3.40836">
        <ele>205.1</ele>
        <time>2017-01-08T13:37:25Z</time>
      </trkpt>
      <trkpt lat="43.60592" lon="3.4082">
        <ele>203.9</ele>
        <time>2017-01-08T13:37:27Z</time>
      </trkpt>
      <trkpt lat="43.60592" lon="3.40809">
        <ele>203.2</ele>
        <time>2017-01-08T13:37:29Z</time>
      </trkpt>
      <trkpt lat="43.60599" lon="3.40805">
        <ele>202.5</ele>
        <time>2017-01-08T13:37:32Z</time>
      </trkpt>
      <trkpt lat="43.60606" lon="3.40799">
        <ele>200.8</ele>
        <time>2017-01-08T13:37:34Z</time>
      </trkpt>
      <trkpt lat="43.60614" lon="3.4079">
        <ele>198.2</ele>
        <time>2017-01-08T13:37:36Z</time>
      </trkpt>
      <trkpt lat="43.60621" lon="3.40776">
        <ele>196.5</ele>
        <time>2017-01-08T13:37:38Z</time>
      </trkpt>
      <trkpt lat="43.60627" lon="3.40761">
        <ele>195.4</ele>
        <time>2017-01-08T13:37:40Z</time>
      </trkpt>
      <trkpt lat="43.60631" lon="3.40743">
        <ele>194</ele>
        <time>2017-01-08T13:37:42Z</time>
      </trkpt>
      <trkpt lat="43.60634" lon="3.4073">
        <ele>193.8</ele>
        <time>2017-01-08T13:37:44Z</time>
      </trkpt>
      <trkpt lat="43.60637" lon="3.40718">
        <ele>194.2</ele>
        <time>2017-01-08T13:37:46Z</time>
      </trkpt>
      <trkpt lat="43.6064" lon="3.40705">
        <ele>194.5</ele>
        <time>2017-01-08T13:37:49Z</time>
      </trkpt>
      <trkpt lat="43.60642" lon="3.40695">
        <ele>195</ele>
        <time>2017-01-08T13:37:51Z</time>
      </trkpt>
      <trkpt lat="43.60646" lon="3.40685">
        <ele>194.7</ele>
        <time>2017-01-08T13:37:53Z</time>
      </trkpt>
      <trkpt lat="43.60652" lon="3.40677">
        <ele>193.8</ele>
        <time>2017-01-08T13:37:55Z</time>
      </trkpt>
      <trkpt lat="43.60658" lon="3.4067">
        <ele>193.6</ele>
        <time>2017-01-08T13:37:57Z</time>
      </trkpt>
      <trkpt lat="43.60666" lon="3.4066">
        <ele>193.4</ele>
        <time>2017-01-08T13:38:00Z</time>
      </trkpt>
      <trkpt lat="43.6067" lon="3.40648">
        <ele>193.3</ele>
        <time>2017-01-08T13:38:02Z</time>
      </trkpt>
      <trkpt lat="43.60676" lon="3.40639">
        <ele>192.4</ele>
        <time>2017-01-08T13:38:04Z</time>
      </trkpt>
      <trkpt lat="43.60683" lon="3.40631">
        <ele>190</ele>
        <time>2017-01-08T13:38:06Z</time>
      </trkpt>
      <trkpt lat="43.6069" lon="3.40626">
        <ele>188.6</ele>
        <time>2017-01-08T13:38:08Z</time>
      </trkpt>
      <trkpt lat="43.60699" lon="3.40624">
        <ele>186.4</ele>
        <time>2017-01-08T13:38:11Z</time>
      </trkpt>
      <trkpt lat="43.60707" lon="3.40619">
        <ele>186.1</ele>
        <time>2017-01-08T13:38:13Z</time>
      </trkpt>
      <trkpt lat="43.60716" lon="3.40621">
        <ele>185.9</ele>
        <time>2017-01-08T13:38:15Z</time>
      </trkpt>
      <trkpt lat="43.60722" lon="3.40614">
        <ele>184.9</ele>
        <time>2017-01-08T13:38:21Z</time>
      </trkpt>
      <trkpt lat="43.60715" lon="3.40608">
        <ele>184.6</ele>
        <time>2017-01-08T13:38:23Z</time>
      </trkpt>
      <trkpt lat="43.60705" lon="3.40605">
        <ele>184.1</ele>
        <time>2017-01-08T13:38:26Z</time>
      </trkpt>
      <trkpt lat="43.60697" lon="3.40602">
        <ele>183.7</ele>
        <time>2017-01-08T13:38:28Z</time>
      </trkpt>
      <trkpt lat="43.60688" lon="3.40599">
        <ele>183.2</ele>
        <time>2017-01-08T13:38:31Z</time>
      </trkpt>
      <trkpt lat="43.60681" lon="3.40596">
        <ele>182.7</ele>
        <time>2017-01-08T13:38:33Z</time>
      </trkpt>
      <trkpt lat="43.60673" lon="3.40594">
        <ele>182.2</ele>
        <time>2017-01-08T13:38:35Z</time>
      </trkpt>
      <trkpt lat="43.60666" lon="3.40589">
        <ele>181.8</ele>
        <time>2017-01-08T13:38:37Z</time>
      </trkpt>
      <trkpt lat="43.60655" lon="3.40586">
        <ele>181</ele>
        <time>2017-01-08T13:38:40Z</time>
      </trkpt>
      <trkpt lat="43.60647" lon="3.40584">
        <ele>180.4</ele>
        <time>2017-01-08T13:38:42Z</time>
      </trkpt>
      <trkpt lat="43.60642" lon="3.40577">
        <ele>179.6</ele>
        <time>2017-01-08T13:38:45Z</time>
      </trkpt>
      <trkpt lat="43.6065" lon="3.40572">
        <ele>178.8</ele>
        <time>2017-01-08T13:38:50Z</time>
      </trkpt>
      <trkpt lat="43.6066" lon="3.40565">
        <ele>178.2</ele>
        <time>2017-01-08T13:38:53Z</time>
      </trkpt>
      <trkpt lat="43.60667" lon="3.40559">
        <ele>177.9</ele>
        <time>2017-01-08T13:38:55Z</time>
      </trkpt>
      <trkpt lat="43.60674" lon="3.40555">
        <ele>177.6</ele>
        <time>2017-01-08T13:38:57Z</time>
      </trkpt>
      <trkpt lat="43.60684" lon="3.4055">
        <ele>177.3</ele>
        <time>2017-01-08T13:39:00Z</time>
      </trkpt>
      <trkpt lat="43.60693" lon="3.40544">
        <ele>176.4</ele>
        <time>2017-01-08T13:39:03Z</time>
      </trkpt>
      <trkpt lat="43.60702" lon="3.40536">
        <ele>176.3</ele>
        <time>2017-01-08T13:39:06Z</time>
      </trkpt>
      <trkpt lat="43.60708" lon="3.40533">
        <ele>175.4</ele>
        <time>2017-01-08T13:39:08Z</time>
      </trkpt>
      <trkpt lat="43.60718" lon="3.40525">
        <ele>174.7</ele>
        <time>2017-01-08T13:39:11Z</time>
      </trkpt>
      <trkpt lat="43.60724" lon="3.4052">
        <ele>173.7</ele>
        <time>2017-01-08T13:39:13Z</time>
      </trkpt>
      <trkpt lat="43.60732" lon="3.40514">
        <ele>172.2</ele>
        <time>2017-01-08T13:39:15Z</time>
      </trkpt>
      <trkpt lat="43.60739" lon="3.4051">
        <ele>171.2</ele>
        <time>2017-01-08T13:39:17Z</time>
      </trkpt>
      <trkpt lat="43.60747" lon="3.40505">
        <ele>171.8</ele>
        <time>2017-01-08T13:39:19Z</time>
      </trkpt>
      <trkpt lat="43.60754" lon="3.40501">
        <ele>172.1</ele>
        <time>2017-01-08T13:39:21Z</time>
      </trkpt>
      <trkpt lat="43.60761" lon="3.40496">
        <ele>172.2</ele>
        <time>2017-01-08T13:39:23Z</time>
      </trkpt>
      <trkpt lat="43.60768" lon="3.40489">
        <ele>171.6</ele>
        <time>2017-01-08T13:39:25Z</time>
      </trkpt>
      <trkpt lat="43.60777" lon="3.40482">
        <ele>170.1</ele>
        <time>2017-01-08T13:39:28Z</time>
      </trkpt>
      <trkpt lat="43.60784" lon="3.40475">
        <ele>170</ele>
        <time>2017-01-08T13:39:30Z</time>
      </trkpt>
      <trkpt lat="43.60791" lon="3.4047">
        <ele>170</ele>
        <time>2017-01-08T13:39:32Z</time>
      </trkpt>
      <trkpt lat="43.60801" lon="3.40463">
        <ele>170.1</ele>
        <time>2017-01-08T13:39:35Z</time>
      </trkpt>
      <trkpt lat="43.60809" lon="3.40457">
        <ele>170.2</ele>
        <time>2017-01-08T13:39:37Z</time>
      </trkpt>
      <trkpt lat="43.60815" lon="3.40451">
        <ele>170.4</ele>
        <time>2017-01-08T13:39:39Z</time>
      </trkpt>
      <trkpt lat="43.60821" lon="3.40444">
        <ele>170.6</ele>
        <time>2017-01-08T13:39:41Z</time>
      </trkpt>
      <trkpt lat="43.60827" lon="3.40436">
        <ele>171.6</ele>
        <time>2017-01-08T13:39:43Z</time>
      </trkpt>
      <trkpt lat="43.60834" lon="3.40427">
        <ele>171.7</ele>
        <time>2017-01-08T13:39:46Z</time>
      </trkpt>
      <trkpt lat="43.60842" lon="3.40418">
        <ele>171.7</ele>
        <time>2017-01-08T13:39:49Z</time>
      </trkpt>
      <trkpt lat="43.60849" lon="3.40411">
        <ele>171.8</ele>
        <time>2017-01-08T13:39:52Z</time>
      </trkpt>
      <trkpt lat="43.60854" lon="3.40403">
        <ele>171.9</ele>
        <time>2017-01-08T13:39:55Z</time>
      </trkpt>
      <trkpt lat="43.60861" lon="3.40393">
        <ele>171.9</ele>
        <time>2017-01-08T13:39:58Z</time>
      </trkpt>
      <trkpt lat="43.60867" lon="3.40385">
        <ele>171.9</ele>
        <time>2017-01-08T13:40:01Z</time>
      </trkpt>
      <trkpt lat="43.60873" lon="3.40378">
        <ele>171.9</ele>
        <time>2017-01-08T13:40:04Z</time>
      </trkpt>
      <trkpt lat="43.60879" lon="3.4037">
        <ele>171.9</ele>
        <time>2017-01-08T13:40:07Z</time>
      </trkpt>
      <trkpt lat="43.60885" lon="3.40363">
        <ele>172</ele>
        <time>2017-01-08T13:40:10Z</time>
      </trkpt>
      <trkpt lat="43.6089" lon="3.40355">
        <ele>172.3</ele>
        <time>2017-01-08T13:40:13Z</time>
      </trkpt>
      <trkpt lat="43.60898" lon="3.40346">
        <ele>172.5</ele>
        <time>2017-01-08T13:40:16Z</time>
      </trkpt>
      <trkpt lat="43.60905" lon="3.40339">
        <ele>172.8</ele>
        <time>2017-01-08T13:40:20Z</time>
      </trkpt>
      <trkpt lat="43.60911" lon="3.4033">
        <ele>173.2</ele>
        <time>2017-01-08T13:40:23Z</time>
      </trkpt>
      <trkpt lat="43.60916" lon="3.40322">
        <ele>173.7</ele>
        <time>2017-01-08T13:40:26Z</time>
      </trkpt>
      <trkpt lat="43.60921" lon="3.40314">
        <ele>174.5</ele>
        <time>2017-01-08T13:40:29Z</time>
      </trkpt>
      <trkpt lat="43.60928" lon="3.40304">
        <ele>175</ele>
        <time>2017-01-08T13:40:33Z</time>
      </trkpt>
      <trkpt lat="43.60935" lon="3.40294">
        <ele>175.5</ele>
        <time>2017-01-08T13:40:36Z</time>
      </trkpt>
      <trkpt lat="43.60943" lon="3.40284">
        <ele>175.9</ele>
        <time>2017-01-08T13:40:39Z</time>
      </trkpt>
      <trkpt lat="43.60951" lon="3.40275">
        <ele>176.2</ele>
        <time>2017-01-08T13:40:42Z</time>
      </trkpt>
      <trkpt lat="43.60957" lon="3.40268">
        <ele>176.4</ele>
        <time>2017-01-08T13:40:44Z</time>
      </trkpt>
      <trkpt lat="43.60965" lon="3.40258">
        <ele>176.7</ele>
        <time>2017-01-08T13:40:47Z</time>
      </trkpt>
      <trkpt lat="43.60971" lon="3.40251">
        <ele>177.1</ele>
        <time>2017-01-08T13:40:50Z</time>
      </trkpt>
      <trkpt lat="43.60979" lon="3.40243">
        <ele>177.3</ele>
        <time>2017-01-08T13:40:54Z</time>
      </trkpt>
      <trkpt lat="43.60986" lon="3.40235">
        <ele>177.6</ele>
        <time>2017-01-08T13:40:57Z</time>
      </trkpt>
      <trkpt lat="43.60992" lon="3.40227">
        <ele>178.1</ele>
        <time>2017-01-08T13:41:01Z</time>
      </trkpt>
      <trkpt lat="43.60996" lon="3.40217">
        <ele>178.6</ele>
        <time>2017-01-08T13:41:04Z</time>
      </trkpt>
      <trkpt lat="43.61002" lon="3.40211">
        <ele>179</ele>
        <time>2017-01-08T13:41:07Z</time>
      </trkpt>
      <trkpt lat="43.61009" lon="3.40202">
        <ele>179.8</ele>
        <time>2017-01-08T13:41:11Z</time>
      </trkpt>
      <trkpt lat="43.61016" lon="3.40195">
        <ele>180.3</ele>
        <time>2017-01-08T13:41:14Z</time>
      </trkpt>
      <trkpt lat="43.61021" lon="3.40188">
        <ele>180.7</ele>
        <time>2017-01-08T13:41:17Z</time>
      </trkpt>
      <trkpt lat="43.61026" lon="3.40179">
        <ele>181.1</ele>
        <time>2017-01-08T13:41:20Z</time>
      </trkpt>
      <trkpt lat="43.61033" lon="3.40173">
        <ele>181.2</ele>
        <time>2017-01-08T13:41:23Z</time>
      </trkpt>
      <trkpt lat="43.61039" lon="3.40164">
        <ele>181.7</ele>
        <time>2017-01-08T13:41:26Z</time>
      </trkpt>
      <trkpt lat="43.61045" lon="3.40154">
        <ele>182.3</ele>
        <time>2017-01-08T13:41:30Z</time>
      </trkpt>
      <trkpt lat="43.6105" lon="3.40143">
        <ele>183.2</ele>
        <time>2017-01-08T13:41:33Z</time>
      </trkpt>
      <trkpt lat="43.61055" lon="3.40135">
        <ele>184.1</ele>
        <time>2017-01-08T13:41:36Z</time>
      </trkpt>
      <trkpt lat="43.61062" lon="3.40124">
        <ele>184.8</ele>
        <time>2017-01-08T13:41:39Z</time>
      </trkpt>
      <trkpt lat="43.61067" lon="3.40113">
        <ele>185.6</ele>
        <time>2017-01-08T13:41:42Z</time>
      </trkpt>
      <trkpt lat="43.61071" lon="3.40104">
        <ele>186.1</ele>
        <time>2017-01-08T13:41:45Z</time>
      </trkpt>
      <trkpt lat="43.61075" lon="3.40095">
        <ele>186.4</ele>
        <time>2017-01-08T13:41:48Z</time>
      </trkpt>
      <trkpt lat="43.61081" lon="3.40087">
        <ele>186.7</ele>
        <time>2017-01-08T13:41:51Z</time>
      </trkpt>
      <trkpt lat="43.61089" lon="3.4008">
        <ele>186.7</ele>
        <time>2017-01-08T13:41:54Z</time>
      </trkpt>
      <trkpt lat="43.61095" lon="3.40074">
        <ele>186.7</ele>
        <time>2017-01-08T13:41:56Z</time>
      </trkpt>
      <trkpt lat="43.61102" lon="3.40069">
        <ele>186.7</ele>
        <time>2017-01-08T13:41:58Z</time>
      </trkpt>
      <trkpt lat="43.6111" lon="3.40064">
        <ele>186.8</ele>
        <time>2017-01-08T13:42:00Z</time>
      </trkpt>
      <trkpt lat="43.61118" lon="3.40058">
        <ele>186.7</ele>
        <time>2017-01-08T13:42:03Z</time>
      </trkpt>
      <trkpt lat="43.61125" lon="3.40051">
        <ele>186.9</ele>
        <time>2017-01-08T13:42:06Z</time>
      </trkpt>
      <trkpt lat="43.61135" lon="3.40051">
        <ele>186.6</ele>
        <time>2017-01-08T13:42:09Z</time>
      </trkpt>
      <trkpt lat="43.61143" lon="3.40051">
        <ele>186.5</ele>
        <time>2017-01-08T13:42:11Z</time>
      </trkpt>
      <trkpt lat="43.61149" lon="3.40045">
        <ele>185.7</ele>
        <time>2017-01-08T13:42:14Z</time>
      </trkpt>
      <trkpt lat="43.61158" lon="3.40038">
        <ele>185.4</ele>
        <time>2017-01-08T13:42:17Z</time>
      </trkpt>
      <trkpt lat="43.61168" lon="3.40033">
        <ele>185.1</ele>
        <time>2017-01-08T13:42:20Z</time>
      </trkpt>
      <trkpt lat="43.61175" lon="3.40028">
        <ele>185</ele>
        <time>2017-01-08T13:42:22Z</time>
      </trkpt>
      <trkpt lat="43.61181" lon="3.40025">
        <ele>185</ele>
        <time>2017-01-08T13:42:24Z</time>
      </trkpt>
      <trkpt lat="43.61189" lon="3.40021">
        <ele>185</ele>
        <time>2017-01-08T13:42:26Z</time>
      </trkpt>
      <trkpt lat="43.61198" lon="3.40015">
        <ele>184.9</ele>
        <time>2017-01-08T13:42:28Z</time>
      </trkpt>
      <trkpt lat="43.61207" lon="3.40009">
        <ele>184.7</ele>
        <time>2017-01-08T13:42:31Z</time>
      </trkpt>
      <trkpt lat="43.61215" lon="3.40004">
        <ele>184.8</ele>
        <time>2017-01-08T13:42:34Z</time>
      </trkpt>
      <trkpt lat="43.61224" lon="3.39998">
        <ele>184.8</ele>
        <time>2017-01-08T13:42:36Z</time>
      </trkpt>
      <trkpt lat="43.61232" lon="3.39993">
        <ele>184.8</ele>
        <time>2017-01-08T13:42:38Z</time>
      </trkpt>
      <trkpt lat="43.61238" lon="3.39987">
        <ele>184.8</ele>
        <time>2017-01-08T13:42:40Z</time>
      </trkpt>
      <trkpt lat="43.6124" lon="3.39974">
        <ele>184.9</ele>
        <time>2017-01-08T13:42:43Z</time>
      </trkpt>
      <trkpt lat="43.61239" lon="3.39964">
        <ele>185.2</ele>
        <time>2017-01-08T13:42:45Z</time>
      </trkpt>
      <trkpt lat="43.61235" lon="3.39951">
        <ele>185.8</ele>
        <time>2017-01-08T13:42:48Z</time>
      </trkpt>
      <trkpt lat="43.61232" lon="3.39942">
        <ele>186.1</ele>
        <time>2017-01-08T13:42:50Z</time>
      </trkpt>
      <trkpt lat="43.61228" lon="3.3993">
        <ele>186.5</ele>
        <time>2017-01-08T13:42:53Z</time>
      </trkpt>
      <trkpt lat="43.61224" lon="3.39918">
        <ele>186.9</ele>
        <time>2017-01-08T13:42:56Z</time>
      </trkpt>
      <trkpt lat="43.61221" lon="3.39907">
        <ele>187</ele>
        <time>2017-01-08T13:42:59Z</time>
      </trkpt>
      <trkpt lat="43.61218" lon="3.39896">
        <ele>187.2</ele>
        <time>2017-01-08T13:43:02Z</time>
      </trkpt>
      <trkpt lat="43.61214" lon="3.39884">
        <ele>187.4</ele>
        <time>2017-01-08T13:43:05Z</time>
      </trkpt>
      <trkpt lat="43.61211" lon="3.39872">
        <ele>187.5</ele>
        <time>2017-01-08T13:43:08Z</time>
      </trkpt>
      <trkpt lat="43.61207" lon="3.3986">
        <ele>187.9</ele>
        <time>2017-01-08T13:43:12Z</time>
      </trkpt>
      <trkpt lat="43.61203" lon="3.39849">
        <ele>188.2</ele>
        <time>2017-01-08T13:43:15Z</time>
      </trkpt>
      <trkpt lat="43.61199" lon="3.3984">
        <ele>188.4</ele>
        <time>2017-01-08T13:43:18Z</time>
      </trkpt>
      <trkpt lat="43.61195" lon="3.39831">
        <ele>188.8</ele>
        <time>2017-01-08T13:43:21Z</time>
      </trkpt>
      <trkpt lat="43.61199" lon="3.39821">
        <ele>189.4</ele>
        <time>2017-01-08T13:43:27Z</time>
      </trkpt>
      <trkpt lat="43.61207" lon="3.39816">
        <ele>189.5</ele>
        <time>2017-01-08T13:43:32Z</time>
      </trkpt>
      <trkpt lat="43.61216" lon="3.39811">
        <ele>189.6</ele>
        <time>2017-01-08T13:43:36Z</time>
      </trkpt>
      <trkpt lat="43.61223" lon="3.39806">
        <ele>189.8</ele>
        <time>2017-01-08T13:43:39Z</time>
      </trkpt>
      <trkpt lat="43.61229" lon="3.39799">
        <ele>189.8</ele>
        <time>2017-01-08T13:43:42Z</time>
      </trkpt>
      <trkpt lat="43.61236" lon="3.39794">
        <ele>189.8</ele>
        <time>2017-01-08T13:43:45Z</time>
      </trkpt>
      <trkpt lat="43.61244" lon="3.39791">
        <ele>189.8</ele>
        <time>2017-01-08T13:43:48Z</time>
      </trkpt>
      <trkpt lat="43.61251" lon="3.39787">
        <ele>190.1</ele>
        <time>2017-01-08T13:43:51Z</time>
      </trkpt>
      <trkpt lat="43.61258" lon="3.39783">
        <ele>190.3</ele>
        <time>2017-01-08T13:43:54Z</time>
      </trkpt>
      <trkpt lat="43.61265" lon="3.39778">
        <ele>190.5</ele>
        <time>2017-01-08T13:43:57Z</time>
      </trkpt>
      <trkpt lat="43.61273" lon="3.39774">
        <ele>190.7</ele>
        <time>2017-01-08T13:44:00Z</time>
      </trkpt>
      <trkpt lat="43.6128" lon="3.39769">
        <ele>190.8</ele>
        <time>2017-01-08T13:44:03Z</time>
      </trkpt>
      <trkpt lat="43.61287" lon="3.39762">
        <ele>190.9</ele>
        <time>2017-01-08T13:44:07Z</time>
      </trkpt>
      <trkpt lat="43.61295" lon="3.39756">
        <ele>191</ele>
        <time>2017-01-08T13:44:11Z</time>
      </trkpt>
      <trkpt lat="43.61303" lon="3.39751">
        <ele>191.2</ele>
        <time>2017-01-08T13:44:15Z</time>
      </trkpt>
      <trkpt lat="43.61311" lon="3.39748">
        <ele>191.4</ele>
        <time>2017-01-08T13:44:19Z</time>
      </trkpt>
      <trkpt lat="43.6132" lon="3.39744">
        <ele>191.6</ele>
        <time>2017-01-08T13:44:24Z</time>
      </trkpt>
      <trkpt lat="43.61328" lon="3.39739">
        <ele>191.7</ele>
        <time>2017-01-08T13:44:30Z</time>
      </trkpt>
      <trkpt lat="43.61335" lon="3.39734">
        <ele>192.1</ele>
        <time>2017-01-08T13:44:34Z</time>
      </trkpt>
      <trkpt lat="43.61343" lon="3.39729">
        <ele>192.6</ele>
        <time>2017-01-08T13:44:38Z</time>
      </trkpt>
      <trkpt lat="43.6135" lon="3.39724">
        <ele>193.1</ele>
        <time>2017-01-08T13:44:42Z</time>
      </trkpt>
      <trkpt lat="43.61357" lon="3.39717">
        <ele>193.5</ele>
        <time>2017-01-08T13:44:46Z</time>
      </trkpt>
      <trkpt lat="43.61365" lon="3.39713">
        <ele>193.8</ele>
        <time>2017-01-08T13:44:49Z</time>
      </trkpt>
      <trkpt lat="43.61371" lon="3.39709">
        <ele>194.1</ele>
        <time>2017-01-08T13:44:53Z</time>
      </trkpt>
      <trkpt lat="43.61379" lon="3.39705">
        <ele>194.5</ele>
        <time>2017-01-08T13:44:57Z</time>
      </trkpt>
      <trkpt lat="43.61383" lon="3.39697">
        <ele>194.8</ele>
        <time>2017-01-08T13:45:01Z</time>
      </trkpt>
      <trkpt lat="43.61375" lon="3.39694">
        <ele>195.5</ele>
        <time>2017-01-08T13:45:07Z</time>
      </trkpt>
      <trkpt lat="43.61367" lon="3.39694">
        <ele>195.9</ele>
        <time>2017-01-08T13:45:11Z</time>
      </trkpt>
      <trkpt lat="43.6136" lon="3.39693">
        <ele>196.6</ele>
        <time>2017-01-08T13:45:16Z</time>
      </trkpt>
      <trkpt lat="43.61352" lon="3.39695">
        <ele>197</ele>
        <time>2017-01-08T13:45:20Z</time>
      </trkpt>
      <trkpt lat="43.61344" lon="3.39695">
        <ele>197.3</ele>
        <time>2017-01-08T13:45:25Z</time>
      </trkpt>
      <trkpt lat="43.61334" lon="3.39696">
        <ele>197.4</ele>
        <time>2017-01-08T13:45:29Z</time>
      </trkpt>
      <trkpt lat="43.61325" lon="3.39697">
        <ele>197.6</ele>
        <time>2017-01-08T13:45:33Z</time>
      </trkpt>
      <trkpt lat="43.61317" lon="3.39698">
        <ele>198.1</ele>
        <time>2017-01-08T13:45:38Z</time>
      </trkpt>
      <trkpt lat="43.6131" lon="3.39697">
        <ele>198.6</ele>
        <time>2017-01-08T13:45:42Z</time>
      </trkpt>
      <trkpt lat="43.61302" lon="3.397">
        <ele>199</ele>
        <time>2017-01-08T13:45:46Z</time>
      </trkpt>
      <trkpt lat="43.61294" lon="3.39698">
        <ele>199.7</ele>
        <time>2017-01-08T13:45:51Z</time>
      </trkpt>
      <trkpt lat="43.61286" lon="3.39698">
        <ele>200.4</ele>
        <time>2017-01-08T13:45:57Z</time>
      </trkpt>
      <trkpt lat="43.61279" lon="3.397">
        <ele>200.8</ele>
        <time>2017-01-08T13:46:01Z</time>
      </trkpt>
      <trkpt lat="43.6127" lon="3.39695">
        <ele>201.6</ele>
        <time>2017-01-08T13:46:08Z</time>
      </trkpt>
      <trkpt lat="43.61261" lon="3.39694">
        <ele>202.1</ele>
        <time>2017-01-08T13:46:12Z</time>
      </trkpt>
      <trkpt lat="43.61254" lon="3.3969">
        <ele>202.9</ele>
        <time>2017-01-08T13:46:17Z</time>
      </trkpt>
      <trkpt lat="43.61247" lon="3.39685">
        <ele>203.8</ele>
        <time>2017-01-08T13:46:22Z</time>
      </trkpt>
      <trkpt lat="43.6124" lon="3.39683">
        <ele>204.4</ele>
        <time>2017-01-08T13:46:27Z</time>
      </trkpt>
      <trkpt lat="43.61232" lon="3.39677">
        <ele>205.5</ele>
        <time>2017-01-08T13:46:33Z</time>
      </trkpt>
      <trkpt lat="43.61226" lon="3.3967">
        <ele>206.6</ele>
        <time>2017-01-08T13:46:38Z</time>
      </trkpt>
      <trkpt lat="43.61224" lon="3.3966">
        <ele>208.1</ele>
        <time>2017-01-08T13:46:44Z</time>
      </trkpt>
      <trkpt lat="43.61228" lon="3.39651">
        <ele>209.2</ele>
        <time>2017-01-08T13:46:50Z</time>
      </trkpt>
      <trkpt lat="43.61232" lon="3.39642">
        <ele>210.3</ele>
        <time>2017-01-08T13:46:56Z</time>
      </trkpt>
      <trkpt lat="43.61237" lon="3.39634">
        <ele>211.4</ele>
        <time>2017-01-08T13:47:03Z</time>
      </trkpt>
      <trkpt lat="43.61235" lon="3.39626">
        <ele>212.9</ele>
        <time>2017-01-08T13:47:10Z</time>
      </trkpt>
      <trkpt lat="43.61233" lon="3.39616">
        <ele>214.2</ele>
        <time>2017-01-08T13:47:17Z</time>
      </trkpt>
      <trkpt lat="43.61239" lon="3.39609">
        <ele>215.1</ele>
        <time>2017-01-08T13:47:24Z</time>
      </trkpt>
      <trkpt lat="43.61244" lon="3.39599">
        <ele>215.9</ele>
        <time>2017-01-08T13:47:28Z</time>
      </trkpt>
      <trkpt lat="43.61249" lon="3.3959">
        <ele>217.6</ele>
        <time>2017-01-08T13:47:35Z</time>
      </trkpt>
      <trkpt lat="43.61251" lon="3.39579">
        <ele>218.8</ele>
        <time>2017-01-08T13:47:40Z</time>
      </trkpt>
      <trkpt lat="43.61253" lon="3.39569">
        <ele>219.8</ele>
        <time>2017-01-08T13:47:45Z</time>
      </trkpt>
      <trkpt lat="43.61261" lon="3.39566">
        <ele>220.4</ele>
        <time>2017-01-08T13:47:51Z</time>
      </trkpt>
      <trkpt lat="43.61269" lon="3.39568">
        <ele>220.8</ele>
        <time>2017-01-08T13:47:55Z</time>
      </trkpt>
      <trkpt lat="43.61276" lon="3.39566">
        <ele>221.5</ele>
        <time>2017-01-08T13:48:00Z</time>
      </trkpt>
      <trkpt lat="43.61285" lon="3.3956">
        <ele>221.9</ele>
        <time>2017-01-08T13:48:05Z</time>
      </trkpt>
      <trkpt lat="43.61292" lon="3.39559">
        <ele>222.1</ele>
        <time>2017-01-08T13:48:09Z</time>
      </trkpt>
      <trkpt lat="43.61301" lon="3.39561">
        <ele>222.5</ele>
        <time>2017-01-08T13:48:14Z</time>
      </trkpt>
      <trkpt lat="43.61309" lon="3.39565">
        <ele>223.2</ele>
        <time>2017-01-08T13:48:19Z</time>
      </trkpt>
      <trkpt lat="43.61317" lon="3.39562">
        <ele>224.1</ele>
        <time>2017-01-08T13:48:23Z</time>
      </trkpt>
      <trkpt lat="43.61323" lon="3.39557">
        <ele>224.9</ele>
        <time>2017-01-08T13:48:27Z</time>
      </trkpt>
      <trkpt lat="43.61327" lon="3.39548">
        <ele>225.9</ele>
        <time>2017-01-08T13:48:31Z</time>
      </trkpt>
      <trkpt lat="43.61329" lon="3.39538">
        <ele>226.7</ele>
        <time>2017-01-08T13:48:35Z</time>
      </trkpt>
      <trkpt lat="43.61333" lon="3.39529">
        <ele>227.5</ele>
        <time>2017-01-08T13:48:39Z</time>
      </trkpt>
      <trkpt lat="43.61336" lon="3.39517">
        <ele>228.6</ele>
        <time>2017-01-08T13:48:45Z</time>
      </trkpt>
      <trkpt lat="43.61337" lon="3.39506">
        <ele>229.3</ele>
        <time>2017-01-08T13:48:50Z</time>
      </trkpt>
      <trkpt lat="43.61338" lon="3.39495">
        <ele>230.3</ele>
        <time>2017-01-08T13:48:55Z</time>
      </trkpt>
      <trkpt lat="43.61338" lon="3.39485">
        <ele>231.2</ele>
        <time>2017-01-08T13:48:59Z</time>
      </trkpt>
      <trkpt lat="43.61337" lon="3.39474">
        <ele>232.1</ele>
        <time>2017-01-08T13:49:04Z</time>
      </trkpt>
      <trkpt lat="43.61334" lon="3.39463">
        <ele>233.3</ele>
        <time>2017-01-08T13:49:09Z</time>
      </trkpt>
      <trkpt lat="43.61334" lon="3.39451">
        <ele>235</ele>
        <time>2017-01-08T13:49:15Z</time>
      </trkpt>
      <trkpt lat="43.61337" lon="3.39441">
        <ele>236.2</ele>
        <time>2017-01-08T13:49:21Z</time>
      </trkpt>
      <trkpt lat="43.61341" lon="3.39431">
        <ele>237.3</ele>
        <time>2017-01-08T13:49:26Z</time>
      </trkpt>
      <trkpt lat="43.61343" lon="3.39422">
        <ele>238.3</ele>
        <time>2017-01-08T13:49:31Z</time>
      </trkpt>
      <trkpt lat="43.61345" lon="3.39411">
        <ele>239.4</ele>
        <time>2017-01-08T13:49:36Z</time>
      </trkpt>
      <trkpt lat="43.61345" lon="3.39401">
        <ele>240.6</ele>
        <time>2017-01-08T13:49:41Z</time>
      </trkpt>
      <trkpt lat="43.61344" lon="3.3939">
        <ele>242.3</ele>
        <time>2017-01-08T13:49:48Z</time>
      </trkpt>
      <trkpt lat="43.61342" lon="3.3938">
        <ele>242.8</ele>
        <time>2017-01-08T13:49:51Z</time>
      </trkpt>
      <trkpt lat="43.61341" lon="3.39367">
        <ele>243.4</ele>
        <time>2017-01-08T13:49:56Z</time>
      </trkpt>
      <trkpt lat="43.61341" lon="3.39354">
        <ele>243.7</ele>
        <time>2017-01-08T13:49:59Z</time>
      </trkpt>
      <trkpt lat="43.61335" lon="3.39354">
        <ele>244.7</ele>
        <time>2017-01-08T13:50:06Z</time>
      </trkpt>
      <trkpt lat="43.61337" lon="3.39366">
        <ele>245.2</ele>
        <time>2017-01-08T13:50:11Z</time>
      </trkpt>
      <trkpt lat="43.61342" lon="3.39377">
        <ele>245.7</ele>
        <time>2017-01-08T13:50:17Z</time>
      </trkpt>
      <trkpt lat="43.61344" lon="3.39387">
        <ele>246.2</ele>
        <time>2017-01-08T13:50:23Z</time>
      </trkpt>
      <trkpt lat="43.61345" lon="3.39397">
        <ele>246.6</ele>
        <time>2017-01-08T13:50:28Z</time>
      </trkpt>
      <trkpt lat="43.61345" lon="3.3941">
        <ele>246.8</ele>
        <time>2017-01-08T13:50:31Z</time>
      </trkpt>
      <trkpt lat="43.61343" lon="3.39423">
        <ele>247</ele>
        <time>2017-01-08T13:50:33Z</time>
      </trkpt>
      <trkpt lat="43.61338" lon="3.39438">
        <ele>246.1</ele>
        <time>2017-01-08T13:50:35Z</time>
      </trkpt>
      <trkpt lat="43.61335" lon="3.39454">
        <ele>245.3</ele>
        <time>2017-01-08T13:50:37Z</time>
      </trkpt>
      <trkpt lat="43.61335" lon="3.39465">
        <ele>245</ele>
        <time>2017-01-08T13:50:38Z</time>
      </trkpt>
      <trkpt lat="43.61337" lon="3.39484">
        <ele>243.9</ele>
        <time>2017-01-08T13:50:40Z</time>
      </trkpt>
      <trkpt lat="43.61337" lon="3.39501">
        <ele>242.6</ele>
        <time>2017-01-08T13:50:42Z</time>
      </trkpt>
      <trkpt lat="43.61334" lon="3.39521">
        <ele>240.6</ele>
        <time>2017-01-08T13:50:44Z</time>
      </trkpt>
      <trkpt lat="43.61332" lon="3.39531">
        <ele>239.5</ele>
        <time>2017-01-08T13:50:45Z</time>
      </trkpt>
      <trkpt lat="43.61328" lon="3.39545">
        <ele>237.1</ele>
        <time>2017-01-08T13:50:47Z</time>
      </trkpt>
      <trkpt lat="43.61325" lon="3.39559">
        <ele>234.4</ele>
        <time>2017-01-08T13:50:49Z</time>
      </trkpt>
      <trkpt lat="43.61323" lon="3.39571">
        <ele>233.3</ele>
        <time>2017-01-08T13:50:51Z</time>
      </trkpt>
      <trkpt lat="43.6132" lon="3.39586">
        <ele>231.8</ele>
        <time>2017-01-08T13:50:53Z</time>
      </trkpt>
      <trkpt lat="43.6132" lon="3.39596">
        <ele>231</ele>
        <time>2017-01-08T13:50:55Z</time>
      </trkpt>
      <trkpt lat="43.61312" lon="3.39603">
        <ele>230.3</ele>
        <time>2017-01-08T13:50:58Z</time>
      </trkpt>
      <trkpt lat="43.61305" lon="3.39608">
        <ele>229.2</ele>
        <time>2017-01-08T13:51:00Z</time>
      </trkpt>
      <trkpt lat="43.61298" lon="3.39612">
        <ele>228.5</ele>
        <time>2017-01-08T13:51:02Z</time>
      </trkpt>
      <trkpt lat="43.61289" lon="3.39615">
        <ele>228.3</ele>
        <time>2017-01-08T13:51:05Z</time>
      </trkpt>
      <trkpt lat="43.61279" lon="3.39617">
        <ele>228.1</ele>
        <time>2017-01-08T13:51:08Z</time>
      </trkpt>
      <trkpt lat="43.61272" lon="3.39616">
        <ele>227.8</ele>
        <time>2017-01-08T13:51:11Z</time>
      </trkpt>
      <trkpt lat="43.61261" lon="3.39615">
        <ele>227.7</ele>
        <time>2017-01-08T13:51:14Z</time>
      </trkpt>
      <trkpt lat="43.61253" lon="3.39613">
        <ele>227.7</ele>
        <time>2017-01-08T13:51:17Z</time>
      </trkpt>
      <trkpt lat="43.61248" lon="3.39605">
        <ele>227.7</ele>
        <time>2017-01-08T13:51:21Z</time>
      </trkpt>
      <trkpt lat="43.61244" lon="3.39601">
        <ele>227.7</ele>
        <time>2017-01-08T13:51:28Z</time>
      </trkpt>
      <trkpt lat="43.61239" lon="3.39609">
        <ele>227.5</ele>
        <time>2017-01-08T13:51:30Z</time>
      </trkpt>
      <trkpt lat="43.61231" lon="3.39616">
        <ele>227.1</ele>
        <time>2017-01-08T13:51:33Z</time>
      </trkpt>
      <trkpt lat="43.6123" lon="3.39605">
        <ele>226.7</ele>
        <time>2017-01-08T13:51:37Z</time>
      </trkpt>
      <trkpt lat="43.61233" lon="3.3959">
        <ele>226.4</ele>
        <time>2017-01-08T13:51:40Z</time>
      </trkpt>
      <trkpt lat="43.61233" lon="3.39579">
        <ele>226.2</ele>
        <time>2017-01-08T13:51:42Z</time>
      </trkpt>
      <trkpt lat="43.61238" lon="3.39571">
        <ele>225.9</ele>
        <time>2017-01-08T13:51:44Z</time>
      </trkpt>
      <trkpt lat="43.6124" lon="3.3956">
        <ele>225.6</ele>
        <time>2017-01-08T13:51:46Z</time>
      </trkpt>
      <trkpt lat="43.61247" lon="3.3955">
        <ele>222.9</ele>
        <time>2017-01-08T13:51:49Z</time>
      </trkpt>
      <trkpt lat="43.6125" lon="3.39539">
        <ele>221</ele>
        <time>2017-01-08T13:51:51Z</time>
      </trkpt>
      <trkpt lat="43.61254" lon="3.39529">
        <ele>220.4</ele>
        <time>2017-01-08T13:51:53Z</time>
      </trkpt>
      <trkpt lat="43.6126" lon="3.39515">
        <ele>220.3</ele>
        <time>2017-01-08T13:51:56Z</time>
      </trkpt>
      <trkpt lat="43.61264" lon="3.39501">
        <ele>220.3</ele>
        <time>2017-01-08T13:51:59Z</time>
      </trkpt>
      <trkpt lat="43.61266" lon="3.39491">
        <ele>220.2</ele>
        <time>2017-01-08T13:52:01Z</time>
      </trkpt>
      <trkpt lat="43.61269" lon="3.39478">
        <ele>220.2</ele>
        <time>2017-01-08T13:52:04Z</time>
      </trkpt>
      <trkpt lat="43.6127" lon="3.39468">
        <ele>220.3</ele>
        <time>2017-01-08T13:52:06Z</time>
      </trkpt>
      <trkpt lat="43.61269" lon="3.39453">
        <ele>220.3</ele>
        <time>2017-01-08T13:52:09Z</time>
      </trkpt>
      <trkpt lat="43.61269" lon="3.39443">
        <ele>220.4</ele>
        <time>2017-01-08T13:52:12Z</time>
      </trkpt>
      <trkpt lat="43.61269" lon="3.39431">
        <ele>220.6</ele>
        <time>2017-01-08T13:52:15Z</time>
      </trkpt>
      <trkpt lat="43.61268" lon="3.39421">
        <ele>220.9</ele>
        <time>2017-01-08T13:52:18Z</time>
      </trkpt>
      <trkpt lat="43.61267" lon="3.39408">
        <ele>221.2</ele>
        <time>2017-01-08T13:52:21Z</time>
      </trkpt>
      <trkpt lat="43.61265" lon="3.39397">
        <ele>221.6</ele>
        <time>2017-01-08T13:52:25Z</time>
      </trkpt>
      <trkpt lat="43.61262" lon="3.39387">
        <ele>221.7</ele>
        <time>2017-01-08T13:52:28Z</time>
      </trkpt>
      <trkpt lat="43.6126" lon="3.39375">
        <ele>221.8</ele>
        <time>2017-01-08T13:52:32Z</time>
      </trkpt>
      <trkpt lat="43.61259" lon="3.39364">
        <ele>222</ele>
        <time>2017-01-08T13:52:35Z</time>
      </trkpt>
      <trkpt lat="43.61259" lon="3.39354">
        <ele>222.5</ele>
        <time>2017-01-08T13:52:39Z</time>
      </trkpt>
      <trkpt lat="43.6126" lon="3.39343">
        <ele>223.3</ele>
        <time>2017-01-08T13:52:44Z</time>
      </trkpt>
      <trkpt lat="43.61257" lon="3.39333">
        <ele>224</ele>
        <time>2017-01-08T13:52:49Z</time>
      </trkpt>
      <trkpt lat="43.61248" lon="3.39326">
        <ele>224.6</ele>
        <time>2017-01-08T13:52:54Z</time>
      </trkpt>
      <trkpt lat="43.6124" lon="3.39319">
        <ele>224.8</ele>
        <time>2017-01-08T13:52:57Z</time>
      </trkpt>
      <trkpt lat="43.61234" lon="3.3931">
        <ele>225</ele>
        <time>2017-01-08T13:53:00Z</time>
      </trkpt>
      <trkpt lat="43.61229" lon="3.393">
        <ele>225.4</ele>
        <time>2017-01-08T13:53:03Z</time>
      </trkpt>
      <trkpt lat="43.61225" lon="3.39291">
        <ele>225.6</ele>
        <time>2017-01-08T13:53:06Z</time>
      </trkpt>
      <trkpt lat="43.6122" lon="3.39281">
        <ele>225.7</ele>
        <time>2017-01-08T13:53:09Z</time>
      </trkpt>
      <trkpt lat="43.61214" lon="3.39271">
        <ele>225.7</ele>
        <time>2017-01-08T13:53:12Z</time>
      </trkpt>
      <trkpt lat="43.61209" lon="3.39262">
        <ele>225.7</ele>
        <time>2017-01-08T13:53:14Z</time>
      </trkpt>
      <trkpt lat="43.61204" lon="3.39252">
        <ele>225.7</ele>
        <time>2017-01-08T13:53:17Z</time>
      </trkpt>
      <trkpt lat="43.61202" lon="3.3924">
        <ele>225.6</ele>
        <time>2017-01-08T13:53:20Z</time>
      </trkpt>
      <trkpt lat="43.61202" lon="3.39228">
        <ele>225.5</ele>
        <time>2017-01-08T13:53:23Z</time>
      </trkpt>
      <trkpt lat="43.61202" lon="3.39218">
        <ele>225.5</ele>
        <time>2017-01-08T13:53:25Z</time>
      </trkpt>
      <trkpt lat="43.61203" lon="3.39208">
        <ele>225.5</ele>
        <time>2017-01-08T13:53:27Z</time>
      </trkpt>
      <trkpt lat="43.61205" lon="3.39196">
        <ele>225.6</ele>
        <time>2017-01-08T13:53:30Z</time>
      </trkpt>
      <trkpt lat="43.61207" lon="3.39184">
        <ele>225.7</ele>
        <time>2017-01-08T13:53:33Z</time>
      </trkpt>
      <trkpt lat="43.61207" lon="3.39171">
        <ele>225.7</ele>
        <time>2017-01-08T13:53:36Z</time>
      </trkpt>
      <trkpt lat="43.61208" lon="3.39157">
        <ele>225.6</ele>
        <time>2017-01-08T13:53:39Z</time>
      </trkpt>
      <trkpt lat="43.61212" lon="3.39147">
        <ele>225.6</ele>
        <time>2017-01-08T13:53:43Z</time>
      </trkpt>
      <trkpt lat="43.61218" lon="3.39139">
        <ele>225.5</ele>
        <time>2017-01-08T13:53:46Z</time>
      </trkpt>
      <trkpt lat="43.61223" lon="3.39131">
        <ele>225.7</ele>
        <time>2017-01-08T13:53:50Z</time>
      </trkpt>
      <trkpt lat="43.61228" lon="3.39121">
        <ele>225.7</ele>
        <time>2017-01-08T13:53:55Z</time>
      </trkpt>
      <trkpt lat="43.61233" lon="3.39112">
        <ele>225.6</ele>
        <time>2017-01-08T13:54:01Z</time>
      </trkpt>
      <trkpt lat="43.61239" lon="3.39103">
        <ele>225.5</ele>
        <time>2017-01-08T13:54:05Z</time>
      </trkpt>
      <trkpt lat="43.61245" lon="3.39093">
        <ele>225.4</ele>
        <time>2017-01-08T13:54:08Z</time>
      </trkpt>
      <trkpt lat="43.61251" lon="3.39084">
        <ele>225.4</ele>
        <time>2017-01-08T13:54:11Z</time>
      </trkpt>
      <trkpt lat="43.61257" lon="3.39076">
        <ele>225.4</ele>
        <time>2017-01-08T13:54:13Z</time>
      </trkpt>
      <trkpt lat="43.61263" lon="3.39068">
        <ele>225.4</ele>
        <time>2017-01-08T13:54:15Z</time>
      </trkpt>
      <trkpt lat="43.61268" lon="3.39061">
        <ele>225.4</ele>
        <time>2017-01-08T13:54:17Z</time>
      </trkpt>
      <trkpt lat="43.61275" lon="3.39054">
        <ele>225.5</ele>
        <time>2017-01-08T13:54:20Z</time>
      </trkpt>
      <trkpt lat="43.61282" lon="3.39049">
        <ele>225.8</ele>
        <time>2017-01-08T13:54:24Z</time>
      </trkpt>
      <trkpt lat="43.61289" lon="3.39042">
        <ele>225.8</ele>
        <time>2017-01-08T13:54:27Z</time>
      </trkpt>
      <trkpt lat="43.61298" lon="3.39034">
        <ele>225</ele>
        <time>2017-01-08T13:54:29Z</time>
      </trkpt>
      <trkpt lat="43.61307" lon="3.39023">
        <ele>225.1</ele>
        <time>2017-01-08T13:54:31Z</time>
      </trkpt>
      <trkpt lat="43.61317" lon="3.39011">
        <ele>224.8</ele>
        <time>2017-01-08T13:54:33Z</time>
      </trkpt>
      <trkpt lat="43.61323" lon="3.39001">
        <ele>224.5</ele>
        <time>2017-01-08T13:54:35Z</time>
      </trkpt>
      <trkpt lat="43.61328" lon="3.38993">
        <ele>224.8</ele>
        <time>2017-01-08T13:54:37Z</time>
      </trkpt>
      <trkpt lat="43.61334" lon="3.38984">
        <ele>224.6</ele>
        <time>2017-01-08T13:54:39Z</time>
      </trkpt>
      <trkpt lat="43.61339" lon="3.38977">
        <ele>224.5</ele>
        <time>2017-01-08T13:54:41Z</time>
      </trkpt>
      <trkpt lat="43.61345" lon="3.38969">
        <ele>224.4</ele>
        <time>2017-01-08T13:54:44Z</time>
      </trkpt>
      <trkpt lat="43.61349" lon="3.38965">
        <ele>224</ele>
        <time>2017-01-08T13:54:51Z</time>
      </trkpt>
      <trkpt lat="43.61342" lon="3.38961">
        <ele>222.7</ele>
        <time>2017-01-08T13:56:14Z</time>
      </trkpt>
      <trkpt lat="43.61334" lon="3.38959">
        <ele>222.2</ele>
        <time>2017-01-08T13:56:18Z</time>
      </trkpt>
      <trkpt lat="43.61326" lon="3.38961">
        <ele>222</ele>
        <time>2017-01-08T13:56:21Z</time>
      </trkpt>
      <trkpt lat="43.61319" lon="3.38963">
        <ele>221.5</ele>
        <time>2017-01-08T13:56:25Z</time>
      </trkpt>
      <trkpt lat="43.61311" lon="3.38965">
        <ele>220.6</ele>
        <time>2017-01-08T13:56:28Z</time>
      </trkpt>
      <trkpt lat="43.61301" lon="3.38969">
        <ele>215.7</ele>
        <time>2017-01-08T13:56:31Z</time>
      </trkpt>
      <trkpt lat="43.61292" lon="3.38973">
        <ele>214.5</ele>
        <time>2017-01-08T13:56:34Z</time>
      </trkpt>
      <trkpt lat="43.61282" lon="3.38977">
        <ele>207.2</ele>
        <time>2017-01-08T13:56:37Z</time>
      </trkpt>
      <trkpt lat="43.61269" lon="3.38979">
        <ele>203.6</ele>
        <time>2017-01-08T13:56:39Z</time>
      </trkpt>
      <trkpt lat="43.61261" lon="3.3898">
        <ele>202.4</ele>
        <time>2017-01-08T13:56:40Z</time>
      </trkpt>
      <trkpt lat="43.61251" lon="3.38986">
        <ele>199.5</ele>
        <time>2017-01-08T13:56:42Z</time>
      </trkpt>
      <trkpt lat="43.61242" lon="3.38996">
        <ele>196.7</ele>
        <time>2017-01-08T13:56:44Z</time>
      </trkpt>
      <trkpt lat="43.61236" lon="3.39005">
        <ele>196.5</ele>
        <time>2017-01-08T13:56:46Z</time>
      </trkpt>
      <trkpt lat="43.61229" lon="3.39015">
        <ele>196</ele>
        <time>2017-01-08T13:56:48Z</time>
      </trkpt>
      <trkpt lat="43.6122" lon="3.39025">
        <ele>195.3</ele>
        <time>2017-01-08T13:56:50Z</time>
      </trkpt>
      <trkpt lat="43.61213" lon="3.39032">
        <ele>195.3</ele>
        <time>2017-01-08T13:56:52Z</time>
      </trkpt>
      <trkpt lat="43.61208" lon="3.3904">
        <ele>195.2</ele>
        <time>2017-01-08T13:56:55Z</time>
      </trkpt>
      <trkpt lat="43.61206" lon="3.39047">
        <ele>195.3</ele>
        <time>2017-01-08T13:57:02Z</time>
      </trkpt>
      <trkpt lat="43.61202" lon="3.39054">
        <ele>195.1</ele>
        <time>2017-01-08T13:57:09Z</time>
      </trkpt>
      <trkpt lat="43.61195" lon="3.3906">
        <ele>194.9</ele>
        <time>2017-01-08T13:57:13Z</time>
      </trkpt>
      <trkpt lat="43.61187" lon="3.39068">
        <ele>194.8</ele>
        <time>2017-01-08T13:57:15Z</time>
      </trkpt>
      <trkpt lat="43.61183" lon="3.39078">
        <ele>195</ele>
        <time>2017-01-08T13:57:18Z</time>
      </trkpt>
      <trkpt lat="43.61176" lon="3.39085">
        <ele>194.8</ele>
        <time>2017-01-08T13:57:20Z</time>
      </trkpt>
      <trkpt lat="43.61169" lon="3.39093">
        <ele>193.7</ele>
        <time>2017-01-08T13:57:22Z</time>
      </trkpt>
      <trkpt lat="43.61166" lon="3.39108">
        <ele>192.8</ele>
        <time>2017-01-08T13:57:25Z</time>
      </trkpt>
      <trkpt lat="43.61162" lon="3.3912">
        <ele>192.8</ele>
        <time>2017-01-08T13:57:27Z</time>
      </trkpt>
      <trkpt lat="43.61159" lon="3.39129">
        <ele>192.8</ele>
        <time>2017-01-08T13:57:29Z</time>
      </trkpt>
      <trkpt lat="43.61156" lon="3.39143">
        <ele>192.9</ele>
        <time>2017-01-08T13:57:32Z</time>
      </trkpt>
      <trkpt lat="43.61152" lon="3.39154">
        <ele>193</ele>
        <time>2017-01-08T13:57:34Z</time>
      </trkpt>
      <trkpt lat="43.6115" lon="3.39163">
        <ele>193</ele>
        <time>2017-01-08T13:57:36Z</time>
      </trkpt>
      <trkpt lat="43.61148" lon="3.39175">
        <ele>193</ele>
        <time>2017-01-08T13:57:38Z</time>
      </trkpt>
      <trkpt lat="43.61147" lon="3.39188">
        <ele>192.9</ele>
        <time>2017-01-08T13:57:40Z</time>
      </trkpt>
      <trkpt lat="43.61146" lon="3.39202">
        <ele>193</ele>
        <time>2017-01-08T13:57:42Z</time>
      </trkpt>
      <trkpt lat="43.61145" lon="3.39218">
        <ele>193</ele>
        <time>2017-01-08T13:57:44Z</time>
      </trkpt>
      <trkpt lat="43.61146" lon="3.39232">
        <ele>193.4</ele>
        <time>2017-01-08T13:57:46Z</time>
      </trkpt>
      <trkpt lat="43.61149" lon="3.39246">
        <ele>193.5</ele>
        <time>2017-01-08T13:57:48Z</time>
      </trkpt>
      <trkpt lat="43.6115" lon="3.39256">
        <ele>193.5</ele>
        <time>2017-01-08T13:57:50Z</time>
      </trkpt>
      <trkpt lat="43.61151" lon="3.39269">
        <ele>194.4</ele>
        <time>2017-01-08T13:57:52Z</time>
      </trkpt>
      <trkpt lat="43.61153" lon="3.39282">
        <ele>194.4</ele>
        <time>2017-01-08T13:57:54Z</time>
      </trkpt>
      <trkpt lat="43.61157" lon="3.39295">
        <ele>194.7</ele>
        <time>2017-01-08T13:57:56Z</time>
      </trkpt>
      <trkpt lat="43.61158" lon="3.39307">
        <ele>195</ele>
        <time>2017-01-08T13:57:58Z</time>
      </trkpt>
      <trkpt lat="43.6116" lon="3.3932">
        <ele>195.1</ele>
        <time>2017-01-08T13:58:00Z</time>
      </trkpt>
      <trkpt lat="43.61161" lon="3.39333">
        <ele>195.3</ele>
        <time>2017-01-08T13:58:02Z</time>
      </trkpt>
      <trkpt lat="43.61163" lon="3.39348">
        <ele>195.4</ele>
        <time>2017-01-08T13:58:05Z</time>
      </trkpt>
      <trkpt lat="43.61163" lon="3.39359">
        <ele>196</ele>
        <time>2017-01-08T13:58:07Z</time>
      </trkpt>
      <trkpt lat="43.61164" lon="3.39372">
        <ele>196</ele>
        <time>2017-01-08T13:58:09Z</time>
      </trkpt>
      <trkpt lat="43.61166" lon="3.39386">
        <ele>195.6</ele>
        <time>2017-01-08T13:58:11Z</time>
      </trkpt>
      <trkpt lat="43.61169" lon="3.39395">
        <ele>194.7</ele>
        <time>2017-01-08T13:58:13Z</time>
      </trkpt>
      <trkpt lat="43.61175" lon="3.39407">
        <ele>194.7</ele>
        <time>2017-01-08T13:58:16Z</time>
      </trkpt>
      <trkpt lat="43.61174" lon="3.39418">
        <ele>194.6</ele>
        <time>2017-01-08T13:58:18Z</time>
      </trkpt>
      <trkpt lat="43.61176" lon="3.3943">
        <ele>194</ele>
        <time>2017-01-08T13:58:20Z</time>
      </trkpt>
      <trkpt lat="43.61181" lon="3.39443">
        <ele>194</ele>
        <time>2017-01-08T13:58:22Z</time>
      </trkpt>
      <trkpt lat="43.61184" lon="3.39455">
        <ele>194</ele>
        <time>2017-01-08T13:58:25Z</time>
      </trkpt>
      <trkpt lat="43.61185" lon="3.39466">
        <ele>194</ele>
        <time>2017-01-08T13:58:28Z</time>
      </trkpt>
      <trkpt lat="43.61184" lon="3.3948">
        <ele>193.9</ele>
        <time>2017-01-08T13:58:30Z</time>
      </trkpt>
      <trkpt lat="43.61181" lon="3.39496">
        <ele>193.9</ele>
        <time>2017-01-08T13:58:33Z</time>
      </trkpt>
      <trkpt lat="43.6118" lon="3.39507">
        <ele>193.9</ele>
        <time>2017-01-08T13:58:36Z</time>
      </trkpt>
      <trkpt lat="43.61174" lon="3.3952">
        <ele>193.9</ele>
        <time>2017-01-08T13:58:39Z</time>
      </trkpt>
      <trkpt lat="43.6117" lon="3.39529">
        <ele>193.9</ele>
        <time>2017-01-08T13:58:41Z</time>
      </trkpt>
      <trkpt lat="43.61165" lon="3.39542">
        <ele>193.9</ele>
        <time>2017-01-08T13:58:43Z</time>
      </trkpt>
      <trkpt lat="43.61159" lon="3.39552">
        <ele>193.9</ele>
        <time>2017-01-08T13:58:45Z</time>
      </trkpt>
      <trkpt lat="43.61155" lon="3.39565">
        <ele>193.9</ele>
        <time>2017-01-08T13:58:48Z</time>
      </trkpt>
      <trkpt lat="43.61155" lon="3.39575">
        <ele>193.7</ele>
        <time>2017-01-08T13:58:51Z</time>
      </trkpt>
      <trkpt lat="43.61141" lon="3.39589">
        <ele>191.7</ele>
        <time>2017-01-08T13:59:20Z</time>
      </trkpt>
      <trkpt lat="43.61134" lon="3.39597">
        <ele>191.6</ele>
        <time>2017-01-08T13:59:24Z</time>
      </trkpt>
      <trkpt lat="43.61127" lon="3.39606">
        <ele>191.5</ele>
        <time>2017-01-08T13:59:27Z</time>
      </trkpt>
      <trkpt lat="43.61119" lon="3.39613">
        <ele>191.6</ele>
        <time>2017-01-08T13:59:30Z</time>
      </trkpt>
      <trkpt lat="43.61112" lon="3.3962">
        <ele>191.6</ele>
        <time>2017-01-08T13:59:32Z</time>
      </trkpt>
      <trkpt lat="43.61105" lon="3.39625">
        <ele>191.7</ele>
        <time>2017-01-08T13:59:34Z</time>
      </trkpt>
      <trkpt lat="43.61099" lon="3.39631">
        <ele>191.7</ele>
        <time>2017-01-08T13:59:36Z</time>
      </trkpt>
      <trkpt lat="43.6109" lon="3.3964">
        <ele>192.2</ele>
        <time>2017-01-08T13:59:39Z</time>
      </trkpt>
      <trkpt lat="43.61081" lon="3.39646">
        <ele>192.3</ele>
        <time>2017-01-08T13:59:42Z</time>
      </trkpt>
      <trkpt lat="43.61074" lon="3.3965">
        <ele>192.3</ele>
        <time>2017-01-08T13:59:46Z</time>
      </trkpt>
      <trkpt lat="43.61067" lon="3.39658">
        <ele>192.2</ele>
        <time>2017-01-08T13:59:48Z</time>
      </trkpt>
      <trkpt lat="43.61061" lon="3.39666">
        <ele>192.3</ele>
        <time>2017-01-08T13:59:50Z</time>
      </trkpt>
      <trkpt lat="43.61053" lon="3.39675">
        <ele>191.9</ele>
        <time>2017-01-08T13:59:52Z</time>
      </trkpt>
      <trkpt lat="43.61047" lon="3.39685">
        <ele>191.8</ele>
        <time>2017-01-08T13:59:54Z</time>
      </trkpt>
      <trkpt lat="43.61048" lon="3.39699">
        <ele>192</ele>
        <time>2017-01-08T13:59:57Z</time>
      </trkpt>
      <trkpt lat="43.61049" lon="3.39712">
        <ele>192.3</ele>
        <time>2017-01-08T14:00:02Z</time>
      </trkpt>
      <trkpt lat="43.61042" lon="3.39722">
        <ele>192.3</ele>
        <time>2017-01-08T14:00:05Z</time>
      </trkpt>
      <trkpt lat="43.61034" lon="3.3973">
        <ele>192.3</ele>
        <time>2017-01-08T14:00:07Z</time>
      </trkpt>
      <trkpt lat="43.61028" lon="3.39737">
        <ele>192.3</ele>
        <time>2017-01-08T14:00:09Z</time>
      </trkpt>
      <trkpt lat="43.61024" lon="3.39745">
        <ele>192.2</ele>
        <time>2017-01-08T14:00:11Z</time>
      </trkpt>
      <trkpt lat="43.61018" lon="3.39752">
        <ele>192.3</ele>
        <time>2017-01-08T14:00:13Z</time>
      </trkpt>
      <trkpt lat="43.61012" lon="3.3976">
        <ele>192.3</ele>
        <time>2017-01-08T14:00:15Z</time>
      </trkpt>
      <trkpt lat="43.61008" lon="3.39769">
        <ele>192.3</ele>
        <time>2017-01-08T14:00:17Z</time>
      </trkpt>
      <trkpt lat="43.61005" lon="3.39781">
        <ele>192.5</ele>
        <time>2017-01-08T14:00:19Z</time>
      </trkpt>
      <trkpt lat="43.61002" lon="3.39795">
        <ele>192.7</ele>
        <time>2017-01-08T14:00:21Z</time>
      </trkpt>
      <trkpt lat="43.61001" lon="3.39807">
        <ele>192.7</ele>
        <time>2017-01-08T14:00:23Z</time>
      </trkpt>
      <trkpt lat="43.61002" lon="3.39821">
        <ele>192.5</ele>
        <time>2017-01-08T14:00:25Z</time>
      </trkpt>
      <trkpt lat="43.61002" lon="3.39833">
        <ele>192.5</ele>
        <time>2017-01-08T14:00:27Z</time>
      </trkpt>
      <trkpt lat="43.61001" lon="3.39846">
        <ele>192.4</ele>
        <time>2017-01-08T14:00:29Z</time>
      </trkpt>
      <trkpt lat="43.61" lon="3.39859">
        <ele>191.9</ele>
        <time>2017-01-08T14:00:31Z</time>
      </trkpt>
      <trkpt lat="43.60997" lon="3.39873">
        <ele>191.1</ele>
        <time>2017-01-08T14:00:33Z</time>
      </trkpt>
      <trkpt lat="43.60996" lon="3.39887">
        <ele>190.8</ele>
        <time>2017-01-08T14:00:35Z</time>
      </trkpt>
      <trkpt lat="43.60995" lon="3.399">
        <ele>189.3</ele>
        <time>2017-01-08T14:00:37Z</time>
      </trkpt>
      <trkpt lat="43.60994" lon="3.39912">
        <ele>188.9</ele>
        <time>2017-01-08T14:00:39Z</time>
      </trkpt>
      <trkpt lat="43.60993" lon="3.39924">
        <ele>188.9</ele>
        <time>2017-01-08T14:00:41Z</time>
      </trkpt>
      <trkpt lat="43.60991" lon="3.39935">
        <ele>188.9</ele>
        <time>2017-01-08T14:00:45Z</time>
      </trkpt>
      <trkpt lat="43.60986" lon="3.39944">
        <ele>188.9</ele>
        <time>2017-01-08T14:00:48Z</time>
      </trkpt>
      <trkpt lat="43.60984" lon="3.39955">
        <ele>188.9</ele>
        <time>2017-01-08T14:00:54Z</time>
      </trkpt>
      <trkpt lat="43.60986" lon="3.39965">
        <ele>188.8</ele>
        <time>2017-01-08T14:00:57Z</time>
      </trkpt>
      <trkpt lat="43.60989" lon="3.39976">
        <ele>188.5</ele>
        <time>2017-01-08T14:00:59Z</time>
      </trkpt>
      <trkpt lat="43.60993" lon="3.39987">
        <ele>189.2</ele>
        <time>2017-01-08T14:01:01Z</time>
      </trkpt>
      <trkpt lat="43.60997" lon="3.39998">
        <ele>189.5</ele>
        <time>2017-01-08T14:01:03Z</time>
      </trkpt>
      <trkpt lat="43.61" lon="3.40009">
        <ele>188.7</ele>
        <time>2017-01-08T14:01:05Z</time>
      </trkpt>
      <trkpt lat="43.61004" lon="3.40023">
        <ele>188.1</ele>
        <time>2017-01-08T14:01:07Z</time>
      </trkpt>
      <trkpt lat="43.61008" lon="3.40035">
        <ele>187.5</ele>
        <time>2017-01-08T14:01:09Z</time>
      </trkpt>
      <trkpt lat="43.61012" lon="3.40048">
        <ele>187</ele>
        <time>2017-01-08T14:01:11Z</time>
      </trkpt>
      <trkpt lat="43.61016" lon="3.40057">
        <ele>187.1</ele>
        <time>2017-01-08T14:01:13Z</time>
      </trkpt>
      <trkpt lat="43.61019" lon="3.40067">
        <ele>187.2</ele>
        <time>2017-01-08T14:01:15Z</time>
      </trkpt>
      <trkpt lat="43.61022" lon="3.40078">
        <ele>187.5</ele>
        <time>2017-01-08T14:01:17Z</time>
      </trkpt>
      <trkpt lat="43.61026" lon="3.40092">
        <ele>187.6</ele>
        <time>2017-01-08T14:01:20Z</time>
      </trkpt>
      <trkpt lat="43.61028" lon="3.40102">
        <ele>187.6</ele>
        <time>2017-01-08T14:01:22Z</time>
      </trkpt>
      <trkpt lat="43.61033" lon="3.40112">
        <ele>187.6</ele>
        <time>2017-01-08T14:01:25Z</time>
      </trkpt>
      <trkpt lat="43.61041" lon="3.40113">
        <ele>187.6</ele>
        <time>2017-01-08T14:01:29Z</time>
      </trkpt>
      <trkpt lat="43.61047" lon="3.40107">
        <ele>187.6</ele>
        <time>2017-01-08T14:01:31Z</time>
      </trkpt>
      <trkpt lat="43.61054" lon="3.40102">
        <ele>187.7</ele>
        <time>2017-01-08T14:01:34Z</time>
      </trkpt>
      <trkpt lat="43.61061" lon="3.40097">
        <ele>188</ele>
        <time>2017-01-08T14:01:37Z</time>
      </trkpt>
      <trkpt lat="43.6107" lon="3.40094">
        <ele>188.4</ele>
        <time>2017-01-08T14:01:40Z</time>
      </trkpt>
      <trkpt lat="43.61078" lon="3.4009">
        <ele>191.4</ele>
        <time>2017-01-08T14:01:43Z</time>
      </trkpt>
      <trkpt lat="43.61088" lon="3.40084">
        <ele>192</ele>
        <time>2017-01-08T14:01:45Z</time>
      </trkpt>
      <trkpt lat="43.61096" lon="3.40079">
        <ele>191.8</ele>
        <time>2017-01-08T14:01:47Z</time>
      </trkpt>
      <trkpt lat="43.61104" lon="3.40073">
        <ele>192</ele>
        <time>2017-01-08T14:01:49Z</time>
      </trkpt>
      <trkpt lat="43.6111" lon="3.40067">
        <ele>191.9</ele>
        <time>2017-01-08T14:01:51Z</time>
      </trkpt>
      <trkpt lat="43.61117" lon="3.40058">
        <ele>191.8</ele>
        <time>2017-01-08T14:01:53Z</time>
      </trkpt>
      <trkpt lat="43.61125" lon="3.40054">
        <ele>191.5</ele>
        <time>2017-01-08T14:01:56Z</time>
      </trkpt>
      <trkpt lat="43.61133" lon="3.40054">
        <ele>191.3</ele>
        <time>2017-01-08T14:01:58Z</time>
      </trkpt>
      <trkpt lat="43.61142" lon="3.4005">
        <ele>191.1</ele>
        <time>2017-01-08T14:02:01Z</time>
      </trkpt>
      <trkpt lat="43.6115" lon="3.40045">
        <ele>190.8</ele>
        <time>2017-01-08T14:02:03Z</time>
      </trkpt>
      <trkpt lat="43.61158" lon="3.4004">
        <ele>190.5</ele>
        <time>2017-01-08T14:02:05Z</time>
      </trkpt>
      <trkpt lat="43.61166" lon="3.40036">
        <ele>190.3</ele>
        <time>2017-01-08T14:02:07Z</time>
      </trkpt>
      <trkpt lat="43.61173" lon="3.40028">
        <ele>189.1</ele>
        <time>2017-01-08T14:02:09Z</time>
      </trkpt>
      <trkpt lat="43.6118" lon="3.40025">
        <ele>188.5</ele>
        <time>2017-01-08T14:02:11Z</time>
      </trkpt>
      <trkpt lat="43.61188" lon="3.40022">
        <ele>188.4</ele>
        <time>2017-01-08T14:02:13Z</time>
      </trkpt>
      <trkpt lat="43.61198" lon="3.40017">
        <ele>188.2</ele>
        <time>2017-01-08T14:02:15Z</time>
      </trkpt>
      <trkpt lat="43.61207" lon="3.40012">
        <ele>187.9</ele>
        <time>2017-01-08T14:02:17Z</time>
      </trkpt>
      <trkpt lat="43.61215" lon="3.40006">
        <ele>187.7</ele>
        <time>2017-01-08T14:02:19Z</time>
      </trkpt>
      <trkpt lat="43.61225" lon="3.4">
        <ele>187.7</ele>
        <time>2017-01-08T14:02:22Z</time>
      </trkpt>
      <trkpt lat="43.61236" lon="3.4">
        <ele>187.9</ele>
        <time>2017-01-08T14:02:25Z</time>
      </trkpt>
      <trkpt lat="43.61245" lon="3.4">
        <ele>188</ele>
        <time>2017-01-08T14:02:27Z</time>
      </trkpt>
      <trkpt lat="43.61256" lon="3.40003">
        <ele>188.6</ele>
        <time>2017-01-08T14:02:29Z</time>
      </trkpt>
      <trkpt lat="43.61266" lon="3.40003">
        <ele>188.3</ele>
        <time>2017-01-08T14:02:31Z</time>
      </trkpt>
      <trkpt lat="43.61274" lon="3.4">
        <ele>188.2</ele>
        <time>2017-01-08T14:02:33Z</time>
      </trkpt>
      <trkpt lat="43.61282" lon="3.39995">
        <ele>188.1</ele>
        <time>2017-01-08T14:02:35Z</time>
      </trkpt>
      <trkpt lat="43.61291" lon="3.39996">
        <ele>188</ele>
        <time>2017-01-08T14:02:37Z</time>
      </trkpt>
      <trkpt lat="43.61299" lon="3.39996">
        <ele>188</ele>
        <time>2017-01-08T14:02:39Z</time>
      </trkpt>
      <trkpt lat="43.61309" lon="3.39999">
        <ele>188</ele>
        <time>2017-01-08T14:02:42Z</time>
      </trkpt>
      <trkpt lat="43.61319" lon="3.40003">
        <ele>187.8</ele>
        <time>2017-01-08T14:02:44Z</time>
      </trkpt>
      <trkpt lat="43.61327" lon="3.40003">
        <ele>187.8</ele>
        <time>2017-01-08T14:02:46Z</time>
      </trkpt>
      <trkpt lat="43.61336" lon="3.39996">
        <ele>188</ele>
        <time>2017-01-08T14:02:49Z</time>
      </trkpt>
      <trkpt lat="43.61343" lon="3.39992">
        <ele>188.1</ele>
        <time>2017-01-08T14:02:51Z</time>
      </trkpt>
      <trkpt lat="43.6135" lon="3.39985">
        <ele>188.2</ele>
        <time>2017-01-08T14:02:54Z</time>
      </trkpt>
      <trkpt lat="43.6135" lon="3.39973">
        <ele>188.4</ele>
        <time>2017-01-08T14:02:56Z</time>
      </trkpt>
      <trkpt lat="43.61354" lon="3.39964">
        <ele>188.6</ele>
        <time>2017-01-08T14:02:59Z</time>
      </trkpt>
      <trkpt lat="43.61363" lon="3.39957">
        <ele>188.7</ele>
        <time>2017-01-08T14:03:02Z</time>
      </trkpt>
      <trkpt lat="43.61369" lon="3.39952">
        <ele>188.8</ele>
        <time>2017-01-08T14:03:05Z</time>
      </trkpt>
      <trkpt lat="43.61368" lon="3.39938">
        <ele>189</ele>
        <time>2017-01-08T14:03:08Z</time>
      </trkpt>
      <trkpt lat="43.61363" lon="3.39926">
        <ele>189.3</ele>
        <time>2017-01-08T14:03:11Z</time>
      </trkpt>
      <trkpt lat="43.61357" lon="3.39915">
        <ele>189.5</ele>
        <time>2017-01-08T14:03:14Z</time>
      </trkpt>
      <trkpt lat="43.61355" lon="3.39904">
        <ele>189.7</ele>
        <time>2017-01-08T14:03:16Z</time>
      </trkpt>
      <trkpt lat="43.61354" lon="3.39892">
        <ele>190</ele>
        <time>2017-01-08T14:03:19Z</time>
      </trkpt>
      <trkpt lat="43.61352" lon="3.39877">
        <ele>190.3</ele>
        <time>2017-01-08T14:03:22Z</time>
      </trkpt>
      <trkpt lat="43.61353" lon="3.39867">
        <ele>190.7</ele>
        <time>2017-01-08T14:03:26Z</time>
      </trkpt>
      <trkpt lat="43.6136" lon="3.39859">
        <ele>190.8</ele>
        <time>2017-01-08T14:03:30Z</time>
      </trkpt>
      <trkpt lat="43.61367" lon="3.39853">
        <ele>190.7</ele>
        <time>2017-01-08T14:03:33Z</time>
      </trkpt>
      <trkpt lat="43.61375" lon="3.3985">
        <ele>190.8</ele>
        <time>2017-01-08T14:03:37Z</time>
      </trkpt>
      <trkpt lat="43.61384" lon="3.39845">
        <ele>191</ele>
        <time>2017-01-08T14:03:40Z</time>
      </trkpt>
      <trkpt lat="43.61391" lon="3.39841">
        <ele>191.1</ele>
        <time>2017-01-08T14:03:42Z</time>
      </trkpt>
      <trkpt lat="43.61399" lon="3.39836">
        <ele>191.3</ele>
        <time>2017-01-08T14:03:45Z</time>
      </trkpt>
      <trkpt lat="43.61406" lon="3.3983">
        <ele>191.6</ele>
        <time>2017-01-08T14:03:48Z</time>
      </trkpt>
      <trkpt lat="43.61416" lon="3.39825">
        <ele>192.2</ele>
        <time>2017-01-08T14:03:52Z</time>
      </trkpt>
      <trkpt lat="43.61425" lon="3.3982">
        <ele>192.5</ele>
        <time>2017-01-08T14:03:55Z</time>
      </trkpt>
      <trkpt lat="43.61434" lon="3.39815">
        <ele>192.7</ele>
        <time>2017-01-08T14:03:58Z</time>
      </trkpt>
      <trkpt lat="43.61441" lon="3.39811">
        <ele>192.8</ele>
        <time>2017-01-08T14:04:01Z</time>
      </trkpt>
      <trkpt lat="43.6145" lon="3.39808">
        <ele>193.2</ele>
        <time>2017-01-08T14:04:04Z</time>
      </trkpt>
      <trkpt lat="43.61458" lon="3.39809">
        <ele>193.4</ele>
        <time>2017-01-08T14:04:07Z</time>
      </trkpt>
      <trkpt lat="43.61464" lon="3.39814">
        <ele>193.5</ele>
        <time>2017-01-08T14:04:09Z</time>
      </trkpt>
      <trkpt lat="43.61474" lon="3.39818">
        <ele>193.6</ele>
        <time>2017-01-08T14:04:11Z</time>
      </trkpt>
      <trkpt lat="43.61481" lon="3.39823">
        <ele>194</ele>
        <time>2017-01-08T14:04:13Z</time>
      </trkpt>
      <trkpt lat="43.6149" lon="3.39829">
        <ele>194.4</ele>
        <time>2017-01-08T14:04:16Z</time>
      </trkpt>
      <trkpt lat="43.61496" lon="3.39835">
        <ele>194.6</ele>
        <time>2017-01-08T14:04:18Z</time>
      </trkpt>
      <trkpt lat="43.61502" lon="3.39844">
        <ele>194.7</ele>
        <time>2017-01-08T14:04:20Z</time>
      </trkpt>
      <trkpt lat="43.61508" lon="3.39853">
        <ele>194.8</ele>
        <time>2017-01-08T14:04:22Z</time>
      </trkpt>
      <trkpt lat="43.61515" lon="3.39865">
        <ele>195.1</ele>
        <time>2017-01-08T14:04:24Z</time>
      </trkpt>
      <trkpt lat="43.61522" lon="3.39876">
        <ele>194.3</ele>
        <time>2017-01-08T14:04:26Z</time>
      </trkpt>
      <trkpt lat="43.61529" lon="3.39887">
        <ele>193.5</ele>
        <time>2017-01-08T14:04:28Z</time>
      </trkpt>
      <trkpt lat="43.61534" lon="3.39897">
        <ele>193.7</ele>
        <time>2017-01-08T14:04:30Z</time>
      </trkpt>
      <trkpt lat="43.6154" lon="3.39905">
        <ele>193.4</ele>
        <time>2017-01-08T14:04:32Z</time>
      </trkpt>
      <trkpt lat="43.61545" lon="3.39914">
        <ele>192.8</ele>
        <time>2017-01-08T14:04:34Z</time>
      </trkpt>
      <trkpt lat="43.61549" lon="3.39922">
        <ele>192.6</ele>
        <time>2017-01-08T14:04:36Z</time>
      </trkpt>
      <trkpt lat="43.61554" lon="3.39933">
        <ele>192.8</ele>
        <time>2017-01-08T14:04:38Z</time>
      </trkpt>
      <trkpt lat="43.6156" lon="3.39944">
        <ele>193.2</ele>
        <time>2017-01-08T14:04:40Z</time>
      </trkpt>
      <trkpt lat="43.61566" lon="3.39955">
        <ele>192.7</ele>
        <time>2017-01-08T14:04:42Z</time>
      </trkpt>
      <trkpt lat="43.61572" lon="3.39968">
        <ele>192</ele>
        <time>2017-01-08T14:04:44Z</time>
      </trkpt>
      <trkpt lat="43.6158" lon="3.39979">
        <ele>191</ele>
        <time>2017-01-08T14:04:46Z</time>
      </trkpt>
      <trkpt lat="43.61586" lon="3.39991">
        <ele>190.1</ele>
        <time>2017-01-08T14:04:48Z</time>
      </trkpt>
      <trkpt lat="43.61592" lon="3.40001">
        <ele>189.3</ele>
        <time>2017-01-08T14:04:50Z</time>
      </trkpt>
      <trkpt lat="43.61599" lon="3.40013">
        <ele>189.5</ele>
        <time>2017-01-08T14:04:52Z</time>
      </trkpt>
      <trkpt lat="43.61605" lon="3.40024">
        <ele>189.4</ele>
        <time>2017-01-08T14:04:54Z</time>
      </trkpt>
      <trkpt lat="43.6161" lon="3.40035">
        <ele>189.6</ele>
        <time>2017-01-08T14:04:56Z</time>
      </trkpt>
      <trkpt lat="43.61615" lon="3.40046">
        <ele>189.5</ele>
        <time>2017-01-08T14:04:58Z</time>
      </trkpt>
      <trkpt lat="43.61617" lon="3.40055">
        <ele>189.4</ele>
        <time>2017-01-08T14:05:00Z</time>
      </trkpt>
      <trkpt lat="43.61622" lon="3.40068">
        <ele>189.6</ele>
        <time>2017-01-08T14:05:02Z</time>
      </trkpt>
      <trkpt lat="43.61625" lon="3.40079">
        <ele>190</ele>
        <time>2017-01-08T14:05:04Z</time>
      </trkpt>
      <trkpt lat="43.61627" lon="3.4009">
        <ele>190.5</ele>
        <time>2017-01-08T14:05:06Z</time>
      </trkpt>
      <trkpt lat="43.6163" lon="3.40104">
        <ele>191</ele>
        <time>2017-01-08T14:05:08Z</time>
      </trkpt>
      <trkpt lat="43.61633" lon="3.40115">
        <ele>191.1</ele>
        <time>2017-01-08T14:05:10Z</time>
      </trkpt>
      <trkpt lat="43.61637" lon="3.40125">
        <ele>191.1</ele>
        <time>2017-01-08T14:05:12Z</time>
      </trkpt>
      <trkpt lat="43.61641" lon="3.40139">
        <ele>190.9</ele>
        <time>2017-01-08T14:05:14Z</time>
      </trkpt>
      <trkpt lat="43.61648" lon="3.40153">
        <ele>190.6</ele>
        <time>2017-01-08T14:05:16Z</time>
      </trkpt>
      <trkpt lat="43.61653" lon="3.40166">
        <ele>190.4</ele>
        <time>2017-01-08T14:05:18Z</time>
      </trkpt>
      <trkpt lat="43.61658" lon="3.40178">
        <ele>190.3</ele>
        <time>2017-01-08T14:05:20Z</time>
      </trkpt>
      <trkpt lat="43.61663" lon="3.4019">
        <ele>190.3</ele>
        <time>2017-01-08T14:05:22Z</time>
      </trkpt>
      <trkpt lat="43.61668" lon="3.40203">
        <ele>190</ele>
        <time>2017-01-08T14:05:24Z</time>
      </trkpt>
      <trkpt lat="43.61673" lon="3.40215">
        <ele>190.1</ele>
        <time>2017-01-08T14:05:26Z</time>
      </trkpt>
      <trkpt lat="43.61679" lon="3.40226">
        <ele>190.3</ele>
        <time>2017-01-08T14:05:28Z</time>
      </trkpt>
      <trkpt lat="43.61684" lon="3.40236">
        <ele>190</ele>
        <time>2017-01-08T14:05:30Z</time>
      </trkpt>
      <trkpt lat="43.61689" lon="3.40247">
        <ele>189.4</ele>
        <time>2017-01-08T14:05:32Z</time>
      </trkpt>
      <trkpt lat="43.61694" lon="3.40256">
        <ele>189.5</ele>
        <time>2017-01-08T14:05:34Z</time>
      </trkpt>
      <trkpt lat="43.61698" lon="3.40265">
        <ele>189.8</ele>
        <time>2017-01-08T14:05:36Z</time>
      </trkpt>
      <trkpt lat="43.61703" lon="3.40275">
        <ele>189.9</ele>
        <time>2017-01-08T14:05:38Z</time>
      </trkpt>
      <trkpt lat="43.61707" lon="3.40284">
        <ele>189.9</ele>
        <time>2017-01-08T14:05:40Z</time>
      </trkpt>
      <trkpt lat="43.61711" lon="3.40293">
        <ele>190.2</ele>
        <time>2017-01-08T14:05:42Z</time>
      </trkpt>
      <trkpt lat="43.61715" lon="3.40303">
        <ele>190.5</ele>
        <time>2017-01-08T14:05:44Z</time>
      </trkpt>
      <trkpt lat="43.61719" lon="3.40313">
        <ele>190.7</ele>
        <time>2017-01-08T14:05:46Z</time>
      </trkpt>
      <trkpt lat="43.61722" lon="3.40322">
        <ele>190.8</ele>
        <time>2017-01-08T14:05:48Z</time>
      </trkpt>
      <trkpt lat="43.61726" lon="3.40331">
        <ele>190.8</ele>
        <time>2017-01-08T14:05:50Z</time>
      </trkpt>
      <trkpt lat="43.61729" lon="3.40344">
        <ele>190.9</ele>
        <time>2017-01-08T14:05:53Z</time>
      </trkpt>
      <trkpt lat="43.6173" lon="3.40356">
        <ele>191</ele>
        <time>2017-01-08T14:05:55Z</time>
      </trkpt>
      <trkpt lat="43.61731" lon="3.4037">
        <ele>191</ele>
        <time>2017-01-08T14:05:58Z</time>
      </trkpt>
      <trkpt lat="43.61731" lon="3.40381">
        <ele>191.1</ele>
        <time>2017-01-08T14:06:00Z</time>
      </trkpt>
      <trkpt lat="43.61733" lon="3.40391">
        <ele>191.2</ele>
        <time>2017-01-08T14:06:04Z</time>
      </trkpt>
      <trkpt lat="43.61739" lon="3.40383">
        <ele>191.5</ele>
        <time>2017-01-08T14:06:09Z</time>
      </trkpt>
      <trkpt lat="43.61743" lon="3.40373">
        <ele>191.7</ele>
        <time>2017-01-08T14:06:12Z</time>
      </trkpt>
      <trkpt lat="43.61748" lon="3.40363">
        <ele>191.8</ele>
        <time>2017-01-08T14:06:15Z</time>
      </trkpt>
      <trkpt lat="43.61754" lon="3.40353">
        <ele>192</ele>
        <time>2017-01-08T14:06:18Z</time>
      </trkpt>
      <trkpt lat="43.61761" lon="3.40343">
        <ele>192.1</ele>
        <time>2017-01-08T14:06:21Z</time>
      </trkpt>
      <trkpt lat="43.61766" lon="3.40336">
        <ele>192.1</ele>
        <time>2017-01-08T14:06:23Z</time>
      </trkpt>
      <trkpt lat="43.61773" lon="3.40328">
        <ele>192.1</ele>
        <time>2017-01-08T14:06:25Z</time>
      </trkpt>
      <trkpt lat="43.61779" lon="3.40319">
        <ele>192.1</ele>
        <time>2017-01-08T14:06:27Z</time>
      </trkpt>
      <trkpt lat="43.61786" lon="3.40309">
        <ele>192.1</ele>
        <time>2017-01-08T14:06:30Z</time>
      </trkpt>
      <trkpt lat="43.61793" lon="3.40297">
        <ele>191.9</ele>
        <time>2017-01-08T14:06:33Z</time>
      </trkpt>
      <trkpt lat="43.61798" lon="3.40289">
        <ele>191.9</ele>
        <time>2017-01-08T14:06:35Z</time>
      </trkpt>
      <trkpt lat="43.61803" lon="3.40282">
        <ele>191.8</ele>
        <time>2017-01-08T14:06:37Z</time>
      </trkpt>
      <trkpt lat="43.61807" lon="3.40274">
        <ele>191.8</ele>
        <time>2017-01-08T14:06:39Z</time>
      </trkpt>
      <trkpt lat="43.61814" lon="3.40263">
        <ele>191.8</ele>
        <time>2017-01-08T14:06:42Z</time>
      </trkpt>
      <trkpt lat="43.61819" lon="3.4025">
        <ele>192</ele>
        <time>2017-01-08T14:06:45Z</time>
      </trkpt>
      <trkpt lat="43.61823" lon="3.40242">
        <ele>192.6</ele>
        <time>2017-01-08T14:06:47Z</time>
      </trkpt>
      <trkpt lat="43.61827" lon="3.40232">
        <ele>193</ele>
        <time>2017-01-08T14:06:49Z</time>
      </trkpt>
      <trkpt lat="43.6183" lon="3.40221">
        <ele>193.1</ele>
        <time>2017-01-08T14:06:51Z</time>
      </trkpt>
      <trkpt lat="43.61835" lon="3.40208">
        <ele>193.5</ele>
        <time>2017-01-08T14:06:53Z</time>
      </trkpt>
      <trkpt lat="43.61838" lon="3.40197">
        <ele>193.6</ele>
        <time>2017-01-08T14:06:55Z</time>
      </trkpt>
      <trkpt lat="43.61841" lon="3.40187">
        <ele>194</ele>
        <time>2017-01-08T14:06:57Z</time>
      </trkpt>
      <trkpt lat="43.61844" lon="3.40175">
        <ele>194.5</ele>
        <time>2017-01-08T14:06:59Z</time>
      </trkpt>
      <trkpt lat="43.61845" lon="3.40164">
        <ele>194.6</ele>
        <time>2017-01-08T14:07:01Z</time>
      </trkpt>
      <trkpt lat="43.61847" lon="3.40153">
        <ele>195.1</ele>
        <time>2017-01-08T14:07:03Z</time>
      </trkpt>
      <trkpt lat="43.61848" lon="3.40139">
        <ele>195.4</ele>
        <time>2017-01-08T14:07:06Z</time>
      </trkpt>
      <trkpt lat="43.61849" lon="3.40128">
        <ele>196.3</ele>
        <time>2017-01-08T14:07:08Z</time>
      </trkpt>
      <trkpt lat="43.61851" lon="3.40116">
        <ele>196.5</ele>
        <time>2017-01-08T14:07:10Z</time>
      </trkpt>
      <trkpt lat="43.61854" lon="3.40104">
        <ele>197</ele>
        <time>2017-01-08T14:07:12Z</time>
      </trkpt>
      <trkpt lat="43.61856" lon="3.40093">
        <ele>196.9</ele>
        <time>2017-01-08T14:07:14Z</time>
      </trkpt>
      <trkpt lat="43.61858" lon="3.40081">
        <ele>197.3</ele>
        <time>2017-01-08T14:07:16Z</time>
      </trkpt>
      <trkpt lat="43.6186" lon="3.40071">
        <ele>198.1</ele>
        <time>2017-01-08T14:07:18Z</time>
      </trkpt>
      <trkpt lat="43.61862" lon="3.4006">
        <ele>198.1</ele>
        <time>2017-01-08T14:07:20Z</time>
      </trkpt>
      <trkpt lat="43.61865" lon="3.4005">
        <ele>198.2</ele>
        <time>2017-01-08T14:07:22Z</time>
      </trkpt>
      <trkpt lat="43.61867" lon="3.40038">
        <ele>197.8</ele>
        <time>2017-01-08T14:07:24Z</time>
      </trkpt>
      <trkpt lat="43.6187" lon="3.40029">
        <ele>197.1</ele>
        <time>2017-01-08T14:07:26Z</time>
      </trkpt>
      <trkpt lat="43.61874" lon="3.40019">
        <ele>196</ele>
        <time>2017-01-08T14:07:28Z</time>
      </trkpt>
      <trkpt lat="43.61877" lon="3.40008">
        <ele>195.3</ele>
        <time>2017-01-08T14:07:30Z</time>
      </trkpt>
      <trkpt lat="43.6188" lon="3.39993">
        <ele>195.2</ele>
        <time>2017-01-08T14:07:33Z</time>
      </trkpt>
      <trkpt lat="43.61884" lon="3.39981">
        <ele>195</ele>
        <time>2017-01-08T14:07:36Z</time>
      </trkpt>
      <trkpt lat="43.61888" lon="3.39969">
        <ele>194.9</ele>
        <time>2017-01-08T14:07:39Z</time>
      </trkpt>
      <trkpt lat="43.6189" lon="3.3996">
        <ele>194.9</ele>
        <time>2017-01-08T14:07:41Z</time>
      </trkpt>
      <trkpt lat="43.61893" lon="3.39946">
        <ele>195</ele>
        <time>2017-01-08T14:07:44Z</time>
      </trkpt>
      <trkpt lat="43.61895" lon="3.39934">
        <ele>195.1</ele>
        <time>2017-01-08T14:07:47Z</time>
      </trkpt>
      <trkpt lat="43.61898" lon="3.39922">
        <ele>195.2</ele>
        <time>2017-01-08T14:07:50Z</time>
      </trkpt>
      <trkpt lat="43.61902" lon="3.3991">
        <ele>195.5</ele>
        <time>2017-01-08T14:07:53Z</time>
      </trkpt>
      <trkpt lat="43.61906" lon="3.39898">
        <ele>195.7</ele>
        <time>2017-01-08T14:07:56Z</time>
      </trkpt>
      <trkpt lat="43.6191" lon="3.39884">
        <ele>195.9</ele>
        <time>2017-01-08T14:07:59Z</time>
      </trkpt>
      <trkpt lat="43.61913" lon="3.39872">
        <ele>196</ele>
        <time>2017-01-08T14:08:02Z</time>
      </trkpt>
      <trkpt lat="43.61914" lon="3.39858">
        <ele>196.2</ele>
        <time>2017-01-08T14:08:05Z</time>
      </trkpt>
      <trkpt lat="43.61914" lon="3.39846">
        <ele>196.4</ele>
        <time>2017-01-08T14:08:08Z</time>
      </trkpt>
      <trkpt lat="43.61914" lon="3.39832">
        <ele>196.6</ele>
        <time>2017-01-08T14:08:11Z</time>
      </trkpt>
      <trkpt lat="43.61916" lon="3.39819">
        <ele>197</ele>
        <time>2017-01-08T14:08:14Z</time>
      </trkpt>
      <trkpt lat="43.61918" lon="3.39809">
        <ele>197.5</ele>
        <time>2017-01-08T14:08:17Z</time>
      </trkpt>
      <trkpt lat="43.61921" lon="3.39797">
        <ele>197.8</ele>
        <time>2017-01-08T14:08:20Z</time>
      </trkpt>
      <trkpt lat="43.61925" lon="3.39785">
        <ele>197.9</ele>
        <time>2017-01-08T14:08:23Z</time>
      </trkpt>
      <trkpt lat="43.61928" lon="3.39773">
        <ele>198</ele>
        <time>2017-01-08T14:08:26Z</time>
      </trkpt>
      <trkpt lat="43.61932" lon="3.39762">
        <ele>198.3</ele>
        <time>2017-01-08T14:08:29Z</time>
      </trkpt>
      <trkpt lat="43.61935" lon="3.39751">
        <ele>198.6</ele>
        <time>2017-01-08T14:08:32Z</time>
      </trkpt>
      <trkpt lat="43.61939" lon="3.39741">
        <ele>198.9</ele>
        <time>2017-01-08T14:08:35Z</time>
      </trkpt>
      <trkpt lat="43.61947" lon="3.39742">
        <ele>199.2</ele>
        <time>2017-01-08T14:08:40Z</time>
      </trkpt>
      <trkpt lat="43.61955" lon="3.39745">
        <ele>199.4</ele>
        <time>2017-01-08T14:08:43Z</time>
      </trkpt>
      <trkpt lat="43.61963" lon="3.39748">
        <ele>199.6</ele>
        <time>2017-01-08T14:08:46Z</time>
      </trkpt>
      <trkpt lat="43.61971" lon="3.39749">
        <ele>199.9</ele>
        <time>2017-01-08T14:08:49Z</time>
      </trkpt>
      <trkpt lat="43.61979" lon="3.39749">
        <ele>200.1</ele>
        <time>2017-01-08T14:08:52Z</time>
      </trkpt>
      <trkpt lat="43.61988" lon="3.39749">
        <ele>200.4</ele>
        <time>2017-01-08T14:08:55Z</time>
      </trkpt>
      <trkpt lat="43.61996" lon="3.39747">
        <ele>200.8</ele>
        <time>2017-01-08T14:08:58Z</time>
      </trkpt>
      <trkpt lat="43.62004" lon="3.39747">
        <ele>201.1</ele>
        <time>2017-01-08T14:09:01Z</time>
      </trkpt>
      <trkpt lat="43.62011" lon="3.39746">
        <ele>201.4</ele>
        <time>2017-01-08T14:09:04Z</time>
      </trkpt>
      <trkpt lat="43.6202" lon="3.39745">
        <ele>201.8</ele>
        <time>2017-01-08T14:09:08Z</time>
      </trkpt>
      <trkpt lat="43.62028" lon="3.39744">
        <ele>202.1</ele>
        <time>2017-01-08T14:09:11Z</time>
      </trkpt>
      <trkpt lat="43.62038" lon="3.39742">
        <ele>202.4</ele>
        <time>2017-01-08T14:09:15Z</time>
      </trkpt>
      <trkpt lat="43.62046" lon="3.39741">
        <ele>202.6</ele>
        <time>2017-01-08T14:09:19Z</time>
      </trkpt>
      <trkpt lat="43.62054" lon="3.39742">
        <ele>203</ele>
        <time>2017-01-08T14:09:23Z</time>
      </trkpt>
      <trkpt lat="43.62063" lon="3.3974">
        <ele>203.5</ele>
        <time>2017-01-08T14:09:27Z</time>
      </trkpt>
      <trkpt lat="43.62072" lon="3.39737">
        <ele>203.8</ele>
        <time>2017-01-08T14:09:31Z</time>
      </trkpt>
      <trkpt lat="43.6208" lon="3.39735">
        <ele>204.2</ele>
        <time>2017-01-08T14:09:35Z</time>
      </trkpt>
      <trkpt lat="43.62089" lon="3.39733">
        <ele>204.6</ele>
        <time>2017-01-08T14:09:39Z</time>
      </trkpt>
      <trkpt lat="43.62097" lon="3.39735">
        <ele>205.3</ele>
        <time>2017-01-08T14:09:43Z</time>
      </trkpt>
      <trkpt lat="43.62104" lon="3.3974">
        <ele>206.2</ele>
        <time>2017-01-08T14:09:48Z</time>
      </trkpt>
      <trkpt lat="43.62111" lon="3.39747">
        <ele>207</ele>
        <time>2017-01-08T14:09:52Z</time>
      </trkpt>
      <trkpt lat="43.62116" lon="3.39758">
        <ele>207.7</ele>
        <time>2017-01-08T14:09:56Z</time>
      </trkpt>
      <trkpt lat="43.62123" lon="3.39766">
        <ele>208.5</ele>
        <time>2017-01-08T14:10:00Z</time>
      </trkpt>
      <trkpt lat="43.62128" lon="3.39774">
        <ele>209.4</ele>
        <time>2017-01-08T14:10:04Z</time>
      </trkpt>
      <trkpt lat="43.62132" lon="3.39783">
        <ele>210.4</ele>
        <time>2017-01-08T14:10:08Z</time>
      </trkpt>
      <trkpt lat="43.62135" lon="3.39792">
        <ele>211.4</ele>
        <time>2017-01-08T14:10:13Z</time>
      </trkpt>
      <trkpt lat="43.62136" lon="3.39804">
        <ele>211.9</ele>
        <time>2017-01-08T14:10:16Z</time>
      </trkpt>
      <trkpt lat="43.62138" lon="3.39817">
        <ele>213.1</ele>
        <time>2017-01-08T14:10:19Z</time>
      </trkpt>
      <trkpt lat="43.6214" lon="3.3983">
        <ele>213.7</ele>
        <time>2017-01-08T14:10:21Z</time>
      </trkpt>
      <trkpt lat="43.6214" lon="3.39841">
        <ele>214.5</ele>
        <time>2017-01-08T14:10:23Z</time>
      </trkpt>
      <trkpt lat="43.6214" lon="3.39851">
        <ele>215.7</ele>
        <time>2017-01-08T14:10:25Z</time>
      </trkpt>
      <trkpt lat="43.6214" lon="3.39865">
        <ele>216.6</ele>
        <time>2017-01-08T14:10:27Z</time>
      </trkpt>
      <trkpt lat="43.6214" lon="3.39876">
        <ele>216.9</ele>
        <time>2017-01-08T14:10:28Z</time>
      </trkpt>
      <trkpt lat="43.6214" lon="3.39893">
        <ele>215.8</ele>
        <time>2017-01-08T14:10:30Z</time>
      </trkpt>
      <trkpt lat="43.62138" lon="3.39908">
        <ele>214.6</ele>
        <time>2017-01-08T14:10:32Z</time>
      </trkpt>
      <trkpt lat="43.62132" lon="3.39919">
        <ele>213.7</ele>
        <time>2017-01-08T14:10:34Z</time>
      </trkpt>
      <trkpt lat="43.62125" lon="3.39931">
        <ele>213.3</ele>
        <time>2017-01-08T14:10:36Z</time>
      </trkpt>
      <trkpt lat="43.62117" lon="3.39941">
        <ele>212.6</ele>
        <time>2017-01-08T14:10:38Z</time>
      </trkpt>
      <trkpt lat="43.62111" lon="3.39949">
        <ele>212.2</ele>
        <time>2017-01-08T14:10:40Z</time>
      </trkpt>
      <trkpt lat="43.62104" lon="3.3996">
        <ele>212.4</ele>
        <time>2017-01-08T14:10:43Z</time>
      </trkpt>
      <trkpt lat="43.62099" lon="3.39971">
        <ele>212.6</ele>
        <time>2017-01-08T14:10:46Z</time>
      </trkpt>
      <trkpt lat="43.62093" lon="3.3998">
        <ele>212.7</ele>
        <time>2017-01-08T14:10:49Z</time>
      </trkpt>
      <trkpt lat="43.62087" lon="3.3999">
        <ele>213.1</ele>
        <time>2017-01-08T14:10:53Z</time>
      </trkpt>
      <trkpt lat="43.6208" lon="3.39998">
        <ele>213.4</ele>
        <time>2017-01-08T14:10:56Z</time>
      </trkpt>
      <trkpt lat="43.62074" lon="3.40005">
        <ele>213.7</ele>
        <time>2017-01-08T14:10:59Z</time>
      </trkpt>
      <trkpt lat="43.62067" lon="3.40013">
        <ele>214.1</ele>
        <time>2017-01-08T14:11:02Z</time>
      </trkpt>
      <trkpt lat="43.6206" lon="3.40022">
        <ele>214.3</ele>
        <time>2017-01-08T14:11:04Z</time>
      </trkpt>
      <trkpt lat="43.62054" lon="3.40031">
        <ele>214.5</ele>
        <time>2017-01-08T14:11:06Z</time>
      </trkpt>
      <trkpt lat="43.62048" lon="3.40043">
        <ele>214.8</ele>
        <time>2017-01-08T14:11:09Z</time>
      </trkpt>
      <trkpt lat="43.62042" lon="3.40051">
        <ele>215.2</ele>
        <time>2017-01-08T14:11:13Z</time>
      </trkpt>
      <trkpt lat="43.62038" lon="3.40061">
        <ele>215.3</ele>
        <time>2017-01-08T14:11:16Z</time>
      </trkpt>
      <trkpt lat="43.62033" lon="3.40071">
        <ele>215.6</ele>
        <time>2017-01-08T14:11:20Z</time>
      </trkpt>
      <trkpt lat="43.62028" lon="3.4008">
        <ele>216</ele>
        <time>2017-01-08T14:11:24Z</time>
      </trkpt>
      <trkpt lat="43.62024" lon="3.40089">
        <ele>216.2</ele>
        <time>2017-01-08T14:11:27Z</time>
      </trkpt>
      <trkpt lat="43.62019" lon="3.40097">
        <ele>216.5</ele>
        <time>2017-01-08T14:11:31Z</time>
      </trkpt>
      <trkpt lat="43.62015" lon="3.40107">
        <ele>217</ele>
        <time>2017-01-08T14:11:34Z</time>
      </trkpt>
      <trkpt lat="43.6201" lon="3.40116">
        <ele>217.6</ele>
        <time>2017-01-08T14:11:38Z</time>
      </trkpt>
      <trkpt lat="43.62004" lon="3.40125">
        <ele>218.2</ele>
        <time>2017-01-08T14:11:42Z</time>
      </trkpt>
      <trkpt lat="43.61999" lon="3.40134">
        <ele>218.8</ele>
        <time>2017-01-08T14:11:46Z</time>
      </trkpt>
      <trkpt lat="43.61993" lon="3.40144">
        <ele>219.6</ele>
        <time>2017-01-08T14:11:51Z</time>
      </trkpt>
      <trkpt lat="43.61988" lon="3.40154">
        <ele>220.4</ele>
        <time>2017-01-08T14:11:55Z</time>
      </trkpt>
      <trkpt lat="43.61983" lon="3.40165">
        <ele>221.1</ele>
        <time>2017-01-08T14:11:59Z</time>
      </trkpt>
      <trkpt lat="43.61979" lon="3.40174">
        <ele>221.8</ele>
        <time>2017-01-08T14:12:03Z</time>
      </trkpt>
      <trkpt lat="43.61974" lon="3.40184">
        <ele>222.3</ele>
        <time>2017-01-08T14:12:07Z</time>
      </trkpt>
      <trkpt lat="43.61968" lon="3.40194">
        <ele>222.8</ele>
        <time>2017-01-08T14:12:11Z</time>
      </trkpt>
      <trkpt lat="43.61962" lon="3.40204">
        <ele>223.3</ele>
        <time>2017-01-08T14:12:15Z</time>
      </trkpt>
      <trkpt lat="43.61958" lon="3.40212">
        <ele>224.2</ele>
        <time>2017-01-08T14:12:19Z</time>
      </trkpt>
      <trkpt lat="43.61956" lon="3.40215">
        <ele>225.6</ele>
        <time>2017-01-08T14:12:26Z</time>
      </trkpt>
      <trkpt lat="43.61959" lon="3.40203">
        <ele>226.7</ele>
        <time>2017-01-08T14:12:32Z</time>
      </trkpt>
      <trkpt lat="43.61965" lon="3.40194">
        <ele>229.5</ele>
        <time>2017-01-08T14:12:34Z</time>
      </trkpt>
      <trkpt lat="43.61971" lon="3.40182">
        <ele>230.9</ele>
        <time>2017-01-08T14:12:36Z</time>
      </trkpt>
      <trkpt lat="43.61979" lon="3.40168">
        <ele>230.9</ele>
        <time>2017-01-08T14:12:38Z</time>
      </trkpt>
      <trkpt lat="43.61987" lon="3.40153">
        <ele>230</ele>
        <time>2017-01-08T14:12:40Z</time>
      </trkpt>
      <trkpt lat="43.61991" lon="3.40144">
        <ele>229.5</ele>
        <time>2017-01-08T14:12:41Z</time>
      </trkpt>
      <trkpt lat="43.62" lon="3.4013">
        <ele>227.6</ele>
        <time>2017-01-08T14:12:43Z</time>
      </trkpt>
      <trkpt lat="43.62008" lon="3.40115">
        <ele>225.9</ele>
        <time>2017-01-08T14:12:45Z</time>
      </trkpt>
      <trkpt lat="43.62016" lon="3.40098">
        <ele>224.6</ele>
        <time>2017-01-08T14:12:47Z</time>
      </trkpt>
      <trkpt lat="43.62024" lon="3.40084">
        <ele>224.7</ele>
        <time>2017-01-08T14:12:49Z</time>
      </trkpt>
      <trkpt lat="43.62032" lon="3.40071">
        <ele>223.6</ele>
        <time>2017-01-08T14:12:51Z</time>
      </trkpt>
      <trkpt lat="43.62037" lon="3.40062">
        <ele>223.5</ele>
        <time>2017-01-08T14:12:55Z</time>
      </trkpt>
      <trkpt lat="43.62041" lon="3.40052">
        <ele>223.2</ele>
        <time>2017-01-08T14:13:00Z</time>
      </trkpt>
      <trkpt lat="43.62047" lon="3.40042">
        <ele>222.7</ele>
        <time>2017-01-08T14:13:03Z</time>
      </trkpt>
      <trkpt lat="43.62052" lon="3.40034">
        <ele>222</ele>
        <time>2017-01-08T14:13:05Z</time>
      </trkpt>
      <trkpt lat="43.62057" lon="3.40025">
        <ele>221.1</ele>
        <time>2017-01-08T14:13:07Z</time>
      </trkpt>
      <trkpt lat="43.62064" lon="3.40016">
        <ele>220.9</ele>
        <time>2017-01-08T14:13:09Z</time>
      </trkpt>
      <trkpt lat="43.6207" lon="3.40009">
        <ele>221</ele>
        <time>2017-01-08T14:13:12Z</time>
      </trkpt>
      <trkpt lat="43.62074" lon="3.40006">
        <ele>220.9</ele>
        <time>2017-01-08T14:13:19Z</time>
      </trkpt>
      <trkpt lat="43.6208" lon="3.39999">
        <ele>220.9</ele>
        <time>2017-01-08T14:13:22Z</time>
      </trkpt>
      <trkpt lat="43.62081" lon="3.39997">
        <ele>220.4</ele>
        <time>2017-01-08T14:13:29Z</time>
      </trkpt>
      <trkpt lat="43.62069" lon="3.40011">
        <ele>218.9</ele>
        <time>2017-01-08T14:13:43Z</time>
      </trkpt>
      <trkpt lat="43.62062" lon="3.40017">
        <ele>218.7</ele>
        <time>2017-01-08T14:13:46Z</time>
      </trkpt>
      <trkpt lat="43.62057" lon="3.40025">
        <ele>218.4</ele>
        <time>2017-01-08T14:13:49Z</time>
      </trkpt>
      <trkpt lat="43.62052" lon="3.40036">
        <ele>218.1</ele>
        <time>2017-01-08T14:13:53Z</time>
      </trkpt>
      <trkpt lat="43.62047" lon="3.40043">
        <ele>217.8</ele>
        <time>2017-01-08T14:13:56Z</time>
      </trkpt>
      <trkpt lat="43.62041" lon="3.40052">
        <ele>217.7</ele>
        <time>2017-01-08T14:14:00Z</time>
      </trkpt>
      <trkpt lat="43.62035" lon="3.40061">
        <ele>217.6</ele>
        <time>2017-01-08T14:14:04Z</time>
      </trkpt>
      <trkpt lat="43.6203" lon="3.40072">
        <ele>217.5</ele>
        <time>2017-01-08T14:14:10Z</time>
      </trkpt>
      <trkpt lat="43.62026" lon="3.40082">
        <ele>217.5</ele>
        <time>2017-01-08T14:14:15Z</time>
      </trkpt>
      <trkpt lat="43.62019" lon="3.4009">
        <ele>217.7</ele>
        <time>2017-01-08T14:14:19Z</time>
      </trkpt>
      <trkpt lat="43.62015" lon="3.401">
        <ele>217.7</ele>
        <time>2017-01-08T14:14:23Z</time>
      </trkpt>
      <trkpt lat="43.6201" lon="3.40111">
        <ele>217.9</ele>
        <time>2017-01-08T14:14:27Z</time>
      </trkpt>
      <trkpt lat="43.62004" lon="3.40121">
        <ele>218.1</ele>
        <time>2017-01-08T14:14:31Z</time>
      </trkpt>
      <trkpt lat="43.62" lon="3.40129">
        <ele>218.5</ele>
        <time>2017-01-08T14:14:34Z</time>
      </trkpt>
      <trkpt lat="43.61994" lon="3.40139">
        <ele>218.9</ele>
        <time>2017-01-08T14:14:38Z</time>
      </trkpt>
      <trkpt lat="43.61988" lon="3.40147">
        <ele>219.4</ele>
        <time>2017-01-08T14:14:42Z</time>
      </trkpt>
      <trkpt lat="43.61983" lon="3.40154">
        <ele>219.9</ele>
        <time>2017-01-08T14:14:46Z</time>
      </trkpt>
      <trkpt lat="43.6198" lon="3.40163">
        <ele>220.2</ele>
        <time>2017-01-08T14:14:50Z</time>
      </trkpt>
      <trkpt lat="43.61975" lon="3.40176">
        <ele>220.5</ele>
        <time>2017-01-08T14:14:54Z</time>
      </trkpt>
      <trkpt lat="43.6197" lon="3.40186">
        <ele>220.8</ele>
        <time>2017-01-08T14:14:58Z</time>
      </trkpt>
      <trkpt lat="43.61965" lon="3.40194">
        <ele>221.1</ele>
        <time>2017-01-08T14:15:01Z</time>
      </trkpt>
      <trkpt lat="43.61958" lon="3.40204">
        <ele>221.8</ele>
        <time>2017-01-08T14:15:05Z</time>
      </trkpt>
      <trkpt lat="43.61953" lon="3.40212">
        <ele>222.7</ele>
        <time>2017-01-08T14:15:09Z</time>
      </trkpt>
      <trkpt lat="43.61951" lon="3.40225">
        <ele>223.2</ele>
        <time>2017-01-08T14:15:13Z</time>
      </trkpt>
      <trkpt lat="43.61949" lon="3.40235">
        <ele>223.7</ele>
        <time>2017-01-08T14:15:16Z</time>
      </trkpt>
      <trkpt lat="43.61948" lon="3.40247">
        <ele>224.4</ele>
        <time>2017-01-08T14:15:21Z</time>
      </trkpt>
      <trkpt lat="43.61947" lon="3.4026">
        <ele>225.8</ele>
        <time>2017-01-08T14:15:26Z</time>
      </trkpt>
      <trkpt lat="43.61947" lon="3.40271">
        <ele>226.7</ele>
        <time>2017-01-08T14:15:29Z</time>
      </trkpt>
      <trkpt lat="43.61949" lon="3.40284">
        <ele>227.7</ele>
        <time>2017-01-08T14:15:32Z</time>
      </trkpt>
      <trkpt lat="43.61952" lon="3.40296">
        <ele>228.5</ele>
        <time>2017-01-08T14:15:35Z</time>
      </trkpt>
      <trkpt lat="43.61952" lon="3.40307">
        <ele>229.2</ele>
        <time>2017-01-08T14:15:38Z</time>
      </trkpt>
      <trkpt lat="43.61952" lon="3.4032">
        <ele>230</ele>
        <time>2017-01-08T14:15:41Z</time>
      </trkpt>
      <trkpt lat="43.61953" lon="3.40332">
        <ele>230.7</ele>
        <time>2017-01-08T14:15:44Z</time>
      </trkpt>
      <trkpt lat="43.6195" lon="3.40341">
        <ele>231.3</ele>
        <time>2017-01-08T14:15:47Z</time>
      </trkpt>
      <trkpt lat="43.61947" lon="3.40354">
        <ele>232.1</ele>
        <time>2017-01-08T14:15:51Z</time>
      </trkpt>
      <trkpt lat="43.61945" lon="3.40365">
        <ele>232.6</ele>
        <time>2017-01-08T14:15:54Z</time>
      </trkpt>
      <trkpt lat="43.61943" lon="3.40378">
        <ele>233.1</ele>
        <time>2017-01-08T14:15:57Z</time>
      </trkpt>
      <trkpt lat="43.61942" lon="3.40391">
        <ele>233.7</ele>
        <time>2017-01-08T14:16:00Z</time>
      </trkpt>
      <trkpt lat="43.61939" lon="3.40403">
        <ele>234</ele>
        <time>2017-01-08T14:16:03Z</time>
      </trkpt>
      <trkpt lat="43.61938" lon="3.40414">
        <ele>234.4</ele>
        <time>2017-01-08T14:16:06Z</time>
      </trkpt>
      <trkpt lat="43.61939" lon="3.40427">
        <ele>234.7</ele>
        <time>2017-01-08T14:16:09Z</time>
      </trkpt>
      <trkpt lat="43.61941" lon="3.40441">
        <ele>235.1</ele>
        <time>2017-01-08T14:16:12Z</time>
      </trkpt>
      <trkpt lat="43.61942" lon="3.40451">
        <ele>236.7</ele>
        <time>2017-01-08T14:16:14Z</time>
      </trkpt>
      <trkpt lat="43.61944" lon="3.4046">
        <ele>238.7</ele>
        <time>2017-01-08T14:16:16Z</time>
      </trkpt>
      <trkpt lat="43.61945" lon="3.40473">
        <ele>238.9</ele>
        <time>2017-01-08T14:16:18Z</time>
      </trkpt>
      <trkpt lat="43.61948" lon="3.40483">
        <ele>239.5</ele>
        <time>2017-01-08T14:16:20Z</time>
      </trkpt>
      <trkpt lat="43.6195" lon="3.40494">
        <ele>239.9</ele>
        <time>2017-01-08T14:16:22Z</time>
      </trkpt>
      <trkpt lat="43.61952" lon="3.40503">
        <ele>239.6</ele>
        <time>2017-01-08T14:16:24Z</time>
      </trkpt>
      <trkpt lat="43.61954" lon="3.40514">
        <ele>239</ele>
        <time>2017-01-08T14:16:26Z</time>
      </trkpt>
      <trkpt lat="43.61956" lon="3.40525">
        <ele>238.7</ele>
        <time>2017-01-08T14:16:28Z</time>
      </trkpt>
      <trkpt lat="43.61959" lon="3.40534">
        <ele>238.8</ele>
        <time>2017-01-08T14:16:30Z</time>
      </trkpt>
      <trkpt lat="43.61967" lon="3.4054">
        <ele>238.7</ele>
        <time>2017-01-08T14:16:33Z</time>
      </trkpt>
      <trkpt lat="43.61977" lon="3.40546">
        <ele>239.1</ele>
        <time>2017-01-08T14:16:36Z</time>
      </trkpt>
      <trkpt lat="43.61986" lon="3.40551">
        <ele>239.5</ele>
        <time>2017-01-08T14:16:38Z</time>
      </trkpt>
      <trkpt lat="43.61993" lon="3.40555">
        <ele>239.5</ele>
        <time>2017-01-08T14:16:39Z</time>
      </trkpt>
      <trkpt lat="43.62001" lon="3.40557">
        <ele>239</ele>
        <time>2017-01-08T14:16:40Z</time>
      </trkpt>
      <trkpt lat="43.6201" lon="3.40556">
        <ele>238</ele>
        <time>2017-01-08T14:16:41Z</time>
      </trkpt>
      <trkpt lat="43.62019" lon="3.40555">
        <ele>236.7</ele>
        <time>2017-01-08T14:16:42Z</time>
      </trkpt>
      <trkpt lat="43.62029" lon="3.40554">
        <ele>235.9</ele>
        <time>2017-01-08T14:16:43Z</time>
      </trkpt>
      <trkpt lat="43.62039" lon="3.40551">
        <ele>234.6</ele>
        <time>2017-01-08T14:16:44Z</time>
      </trkpt>
      <trkpt lat="43.62049" lon="3.40549">
        <ele>233</ele>
        <time>2017-01-08T14:16:45Z</time>
      </trkpt>
      <trkpt lat="43.62057" lon="3.40551">
        <ele>231.4</ele>
        <time>2017-01-08T14:16:46Z</time>
      </trkpt>
      <trkpt lat="43.62065" lon="3.40553">
        <ele>230</ele>
        <time>2017-01-08T14:16:47Z</time>
      </trkpt>
      <trkpt lat="43.62073" lon="3.40556">
        <ele>228.7</ele>
        <time>2017-01-08T14:16:48Z</time>
      </trkpt>
      <trkpt lat="43.6208" lon="3.40561">
        <ele>227.1</ele>
        <time>2017-01-08T14:16:49Z</time>
      </trkpt>
      <trkpt lat="43.62088" lon="3.40568">
        <ele>225.7</ele>
        <time>2017-01-08T14:16:50Z</time>
      </trkpt>
      <trkpt lat="43.62095" lon="3.40575">
        <ele>224.7</ele>
        <time>2017-01-08T14:16:51Z</time>
      </trkpt>
      <trkpt lat="43.62102" lon="3.40582">
        <ele>224.2</ele>
        <time>2017-01-08T14:16:52Z</time>
      </trkpt>
      <trkpt lat="43.62108" lon="3.4059">
        <ele>223.6</ele>
        <time>2017-01-08T14:16:53Z</time>
      </trkpt>
      <trkpt lat="43.62115" lon="3.406">
        <ele>223</ele>
        <time>2017-01-08T14:16:54Z</time>
      </trkpt>
      <trkpt lat="43.62121" lon="3.4061">
        <ele>222.8</ele>
        <time>2017-01-08T14:16:55Z</time>
      </trkpt>
      <trkpt lat="43.62126" lon="3.40622">
        <ele>222.5</ele>
        <time>2017-01-08T14:16:56Z</time>
      </trkpt>
      <trkpt lat="43.6213" lon="3.40633">
        <ele>222</ele>
        <time>2017-01-08T14:16:57Z</time>
      </trkpt>
      <trkpt lat="43.62134" lon="3.40643">
        <ele>221.2</ele>
        <time>2017-01-08T14:16:58Z</time>
      </trkpt>
      <trkpt lat="43.62138" lon="3.40653">
        <ele>220.5</ele>
        <time>2017-01-08T14:16:59Z</time>
      </trkpt>
      <trkpt lat="43.62142" lon="3.40663">
        <ele>219.7</ele>
        <time>2017-01-08T14:17:00Z</time>
      </trkpt>
      <trkpt lat="43.62146" lon="3.40673">
        <ele>219.1</ele>
        <time>2017-01-08T14:17:01Z</time>
      </trkpt>
      <trkpt lat="43.62149" lon="3.40683">
        <ele>218.3</ele>
        <time>2017-01-08T14:17:02Z</time>
      </trkpt>
      <trkpt lat="43.62151" lon="3.40693">
        <ele>217.8</ele>
        <time>2017-01-08T14:17:03Z</time>
      </trkpt>
      <trkpt lat="43.62155" lon="3.40711">
        <ele>217</ele>
        <time>2017-01-08T14:17:05Z</time>
      </trkpt>
      <trkpt lat="43.62159" lon="3.4073">
        <ele>216.7</ele>
        <time>2017-01-08T14:17:07Z</time>
      </trkpt>
      <trkpt lat="43.62162" lon="3.40748">
        <ele>216.5</ele>
        <time>2017-01-08T14:17:09Z</time>
      </trkpt>
      <trkpt lat="43.62166" lon="3.40766">
        <ele>216.3</ele>
        <time>2017-01-08T14:17:11Z</time>
      </trkpt>
      <trkpt lat="43.62169" lon="3.40784">
        <ele>215.7</ele>
        <time>2017-01-08T14:17:13Z</time>
      </trkpt>
      <trkpt lat="43.62172" lon="3.40803">
        <ele>214.5</ele>
        <time>2017-01-08T14:17:15Z</time>
      </trkpt>
      <trkpt lat="43.62174" lon="3.40813">
        <ele>213.8</ele>
        <time>2017-01-08T14:17:16Z</time>
      </trkpt>
      <trkpt lat="43.62176" lon="3.40823">
        <ele>213.1</ele>
        <time>2017-01-08T14:17:17Z</time>
      </trkpt>
      <trkpt lat="43.62178" lon="3.40834">
        <ele>212.4</ele>
        <time>2017-01-08T14:17:18Z</time>
      </trkpt>
      <trkpt lat="43.6218" lon="3.40844">
        <ele>211.8</ele>
        <time>2017-01-08T14:17:19Z</time>
      </trkpt>
      <trkpt lat="43.62183" lon="3.40855">
        <ele>211.4</ele>
        <time>2017-01-08T14:17:20Z</time>
      </trkpt>
      <trkpt lat="43.62186" lon="3.40866">
        <ele>210.8</ele>
        <time>2017-01-08T14:17:21Z</time>
      </trkpt>
      <trkpt lat="43.62188" lon="3.40877">
        <ele>210.6</ele>
        <time>2017-01-08T14:17:22Z</time>
      </trkpt>
      <trkpt lat="43.62191" lon="3.40888">
        <ele>210.4</ele>
        <time>2017-01-08T14:17:23Z</time>
      </trkpt>
      <trkpt lat="43.62193" lon="3.40897">
        <ele>210.2</ele>
        <time>2017-01-08T14:17:24Z</time>
      </trkpt>
      <trkpt lat="43.62198" lon="3.40906">
        <ele>209.9</ele>
        <time>2017-01-08T14:17:25Z</time>
      </trkpt>
      <trkpt lat="43.62203" lon="3.40915">
        <ele>209.5</ele>
        <time>2017-01-08T14:17:26Z</time>
      </trkpt>
      <trkpt lat="43.62208" lon="3.40923">
        <ele>209.1</ele>
        <time>2017-01-08T14:17:27Z</time>
      </trkpt>
      <trkpt lat="43.62213" lon="3.40931">
        <ele>208.9</ele>
        <time>2017-01-08T14:17:28Z</time>
      </trkpt>
      <trkpt lat="43.62222" lon="3.40945">
        <ele>208.3</ele>
        <time>2017-01-08T14:17:30Z</time>
      </trkpt>
      <trkpt lat="43.6223" lon="3.4096">
        <ele>208.3</ele>
        <time>2017-01-08T14:17:32Z</time>
      </trkpt>
      <trkpt lat="43.62237" lon="3.40973">
        <ele>208.8</ele>
        <time>2017-01-08T14:17:34Z</time>
      </trkpt>
      <trkpt lat="43.62244" lon="3.40985">
        <ele>208.8</ele>
        <time>2017-01-08T14:17:36Z</time>
      </trkpt>
      <trkpt lat="43.62252" lon="3.40998">
        <ele>208.7</ele>
        <time>2017-01-08T14:17:38Z</time>
      </trkpt>
      <trkpt lat="43.6226" lon="3.41013">
        <ele>208.4</ele>
        <time>2017-01-08T14:17:40Z</time>
      </trkpt>
      <trkpt lat="43.62267" lon="3.41029">
        <ele>208.4</ele>
        <time>2017-01-08T14:17:42Z</time>
      </trkpt>
      <trkpt lat="43.62273" lon="3.41047">
        <ele>207.5</ele>
        <time>2017-01-08T14:17:44Z</time>
      </trkpt>
      <trkpt lat="43.62275" lon="3.41056">
        <ele>207.1</ele>
        <time>2017-01-08T14:17:45Z</time>
      </trkpt>
      <trkpt lat="43.62281" lon="3.41073">
        <ele>206.7</ele>
        <time>2017-01-08T14:17:47Z</time>
      </trkpt>
      <trkpt lat="43.62284" lon="3.41083">
        <ele>206</ele>
        <time>2017-01-08T14:17:48Z</time>
      </trkpt>
      <trkpt lat="43.62287" lon="3.41093">
        <ele>205.1</ele>
        <time>2017-01-08T14:17:49Z</time>
      </trkpt>
      <trkpt lat="43.6229" lon="3.41103">
        <ele>204.5</ele>
        <time>2017-01-08T14:17:50Z</time>
      </trkpt>
      <trkpt lat="43.62294" lon="3.41112">
        <ele>204.3</ele>
        <time>2017-01-08T14:17:51Z</time>
      </trkpt>
      <trkpt lat="43.62297" lon="3.41123">
        <ele>204.3</ele>
        <time>2017-01-08T14:17:52Z</time>
      </trkpt>
      <trkpt lat="43.62298" lon="3.41134">
        <ele>204.2</ele>
        <time>2017-01-08T14:17:53Z</time>
      </trkpt>
      <trkpt lat="43.62299" lon="3.41146">
        <ele>204.3</ele>
        <time>2017-01-08T14:17:54Z</time>
      </trkpt>
      <trkpt lat="43.62299" lon="3.41156">
        <ele>204.1</ele>
        <time>2017-01-08T14:17:55Z</time>
      </trkpt>
      <trkpt lat="43.62299" lon="3.41166">
        <ele>203.8</ele>
        <time>2017-01-08T14:17:56Z</time>
      </trkpt>
      <trkpt lat="43.62299" lon="3.41177">
        <ele>203.3</ele>
        <time>2017-01-08T14:17:57Z</time>
      </trkpt>
      <trkpt lat="43.62298" lon="3.41199">
        <ele>201.4</ele>
        <time>2017-01-08T14:17:59Z</time>
      </trkpt>
      <trkpt lat="43.62297" lon="3.41211">
        <ele>200.7</ele>
        <time>2017-01-08T14:18:00Z</time>
      </trkpt>
      <trkpt lat="43.62297" lon="3.41222">
        <ele>200.1</ele>
        <time>2017-01-08T14:18:01Z</time>
      </trkpt>
      <trkpt lat="43.62297" lon="3.41234">
        <ele>199.4</ele>
        <time>2017-01-08T14:18:02Z</time>
      </trkpt>
      <trkpt lat="43.62297" lon="3.41244">
        <ele>198.8</ele>
        <time>2017-01-08T14:18:03Z</time>
      </trkpt>
      <trkpt lat="43.62298" lon="3.41254">
        <ele>198.3</ele>
        <time>2017-01-08T14:18:04Z</time>
      </trkpt>
      <trkpt lat="43.62298" lon="3.41264">
        <ele>197.9</ele>
        <time>2017-01-08T14:18:05Z</time>
      </trkpt>
      <trkpt lat="43.62298" lon="3.41274">
        <ele>197.9</ele>
        <time>2017-01-08T14:18:06Z</time>
      </trkpt>
      <trkpt lat="43.62298" lon="3.41293">
        <ele>197.6</ele>
        <time>2017-01-08T14:18:08Z</time>
      </trkpt>
      <trkpt lat="43.62298" lon="3.41312">
        <ele>197.4</ele>
        <time>2017-01-08T14:18:10Z</time>
      </trkpt>
      <trkpt lat="43.62298" lon="3.41332">
        <ele>197.1</ele>
        <time>2017-01-08T14:18:12Z</time>
      </trkpt>
      <trkpt lat="43.62299" lon="3.41352">
        <ele>196.3</ele>
        <time>2017-01-08T14:18:14Z</time>
      </trkpt>
      <trkpt lat="43.623" lon="3.41362">
        <ele>195.9</ele>
        <time>2017-01-08T14:18:15Z</time>
      </trkpt>
      <trkpt lat="43.62301" lon="3.41372">
        <ele>195.9</ele>
        <time>2017-01-08T14:18:16Z</time>
      </trkpt>
      <trkpt lat="43.62303" lon="3.41383">
        <ele>195.9</ele>
        <time>2017-01-08T14:18:17Z</time>
      </trkpt>
      <trkpt lat="43.62305" lon="3.41394">
        <ele>195.7</ele>
        <time>2017-01-08T14:18:18Z</time>
      </trkpt>
      <trkpt lat="43.62306" lon="3.41404">
        <ele>195.7</ele>
        <time>2017-01-08T14:18:19Z</time>
      </trkpt>
      <trkpt lat="43.62308" lon="3.41414">
        <ele>195.4</ele>
        <time>2017-01-08T14:18:20Z</time>
      </trkpt>
      <trkpt lat="43.62308" lon="3.41424">
        <ele>195</ele>
        <time>2017-01-08T14:18:21Z</time>
      </trkpt>
      <trkpt lat="43.62311" lon="3.41444">
        <ele>194.2</ele>
        <time>2017-01-08T14:18:23Z</time>
      </trkpt>
      <trkpt lat="43.62311" lon="3.41463">
        <ele>193.3</ele>
        <time>2017-01-08T14:18:25Z</time>
      </trkpt>
      <trkpt lat="43.6231" lon="3.41473">
        <ele>193.4</ele>
        <time>2017-01-08T14:18:26Z</time>
      </trkpt>
      <trkpt lat="43.62308" lon="3.41492">
        <ele>193.7</ele>
        <time>2017-01-08T14:18:28Z</time>
      </trkpt>
      <trkpt lat="43.62305" lon="3.41512">
        <ele>193.7</ele>
        <time>2017-01-08T14:18:30Z</time>
      </trkpt>
      <trkpt lat="43.62301" lon="3.41526">
        <ele>193.7</ele>
        <time>2017-01-08T14:18:32Z</time>
      </trkpt>
      <trkpt lat="43.623" lon="3.41538">
        <ele>193.7</ele>
        <time>2017-01-08T14:18:34Z</time>
      </trkpt>
      <trkpt lat="43.62301" lon="3.4155">
        <ele>193.8</ele>
        <time>2017-01-08T14:18:37Z</time>
      </trkpt>
      <trkpt lat="43.62306" lon="3.4156">
        <ele>195.1</ele>
        <time>2017-01-08T14:18:39Z</time>
      </trkpt>
      <trkpt lat="43.6231" lon="3.41571">
        <ele>196</ele>
        <time>2017-01-08T14:18:41Z</time>
      </trkpt>
      <trkpt lat="43.62314" lon="3.41584">
        <ele>197.2</ele>
        <time>2017-01-08T14:18:43Z</time>
      </trkpt>
      <trkpt lat="43.62319" lon="3.41601">
        <ele>198.6</ele>
        <time>2017-01-08T14:18:45Z</time>
      </trkpt>
      <trkpt lat="43.62324" lon="3.41619">
        <ele>198.7</ele>
        <time>2017-01-08T14:18:47Z</time>
      </trkpt>
      <trkpt lat="43.6233" lon="3.41634">
        <ele>197.9</ele>
        <time>2017-01-08T14:18:49Z</time>
      </trkpt>
      <trkpt lat="43.62336" lon="3.4165">
        <ele>197.1</ele>
        <time>2017-01-08T14:18:51Z</time>
      </trkpt>
      <trkpt lat="43.62341" lon="3.41664">
        <ele>195.5</ele>
        <time>2017-01-08T14:18:53Z</time>
      </trkpt>
      <trkpt lat="43.62346" lon="3.41676">
        <ele>194.9</ele>
        <time>2017-01-08T14:18:55Z</time>
      </trkpt>
      <trkpt lat="43.62351" lon="3.4169">
        <ele>194.1</ele>
        <time>2017-01-08T14:18:57Z</time>
      </trkpt>
      <trkpt lat="43.62353" lon="3.41701">
        <ele>194.5</ele>
        <time>2017-01-08T14:18:59Z</time>
      </trkpt>
      <trkpt lat="43.62357" lon="3.41713">
        <ele>195.3</ele>
        <time>2017-01-08T14:19:01Z</time>
      </trkpt>
      <trkpt lat="43.62361" lon="3.41722">
        <ele>195.7</ele>
        <time>2017-01-08T14:19:03Z</time>
      </trkpt>
      <trkpt lat="43.6237" lon="3.4173">
        <ele>195.4</ele>
        <time>2017-01-08T14:19:05Z</time>
      </trkpt>
      <trkpt lat="43.62376" lon="3.41738">
        <ele>194</ele>
        <time>2017-01-08T14:19:07Z</time>
      </trkpt>
      <trkpt lat="43.62382" lon="3.41749">
        <ele>193.2</ele>
        <time>2017-01-08T14:19:09Z</time>
      </trkpt>
      <trkpt lat="43.62387" lon="3.41758">
        <ele>193.7</ele>
        <time>2017-01-08T14:19:11Z</time>
      </trkpt>
      <trkpt lat="43.62391" lon="3.4177">
        <ele>194.3</ele>
        <time>2017-01-08T14:19:13Z</time>
      </trkpt>
      <trkpt lat="43.62395" lon="3.41784">
        <ele>193.9</ele>
        <time>2017-01-08T14:19:15Z</time>
      </trkpt>
      <trkpt lat="43.62397" lon="3.41796">
        <ele>194.3</ele>
        <time>2017-01-08T14:19:17Z</time>
      </trkpt>
      <trkpt lat="43.62399" lon="3.41809">
        <ele>194.2</ele>
        <time>2017-01-08T14:19:19Z</time>
      </trkpt>
      <trkpt lat="43.62402" lon="3.41822">
        <ele>193.9</ele>
        <time>2017-01-08T14:19:21Z</time>
      </trkpt>
      <trkpt lat="43.62404" lon="3.41836">
        <ele>193.9</ele>
        <time>2017-01-08T14:19:23Z</time>
      </trkpt>
      <trkpt lat="43.62406" lon="3.4185">
        <ele>194</ele>
        <time>2017-01-08T14:19:25Z</time>
      </trkpt>
      <trkpt lat="43.62408" lon="3.41863">
        <ele>194.2</ele>
        <time>2017-01-08T14:19:27Z</time>
      </trkpt>
      <trkpt lat="43.62408" lon="3.41879">
        <ele>194.5</ele>
        <time>2017-01-08T14:19:29Z</time>
      </trkpt>
      <trkpt lat="43.62408" lon="3.41895">
        <ele>193.8</ele>
        <time>2017-01-08T14:19:31Z</time>
      </trkpt>
      <trkpt lat="43.62406" lon="3.41907">
        <ele>193.9</ele>
        <time>2017-01-08T14:19:33Z</time>
      </trkpt>
      <trkpt lat="43.62399" lon="3.41911">
        <ele>194.3</ele>
        <time>2017-01-08T14:19:35Z</time>
      </trkpt>
      <trkpt lat="43.6239" lon="3.41904">
        <ele>194.5</ele>
        <time>2017-01-08T14:19:38Z</time>
      </trkpt>
      <trkpt lat="43.6238" lon="3.41902">
        <ele>194.6</ele>
        <time>2017-01-08T14:19:41Z</time>
      </trkpt>
      <trkpt lat="43.6237" lon="3.419">
        <ele>194.6</ele>
        <time>2017-01-08T14:19:44Z</time>
      </trkpt>
      <trkpt lat="43.6236" lon="3.41898">
        <ele>194.8</ele>
        <time>2017-01-08T14:19:48Z</time>
      </trkpt>
      <trkpt lat="43.62353" lon="3.41896">
        <ele>195.1</ele>
        <time>2017-01-08T14:19:51Z</time>
      </trkpt>
      <trkpt lat="43.62346" lon="3.41893">
        <ele>195.5</ele>
        <time>2017-01-08T14:19:55Z</time>
      </trkpt>
      <trkpt lat="43.62337" lon="3.4189">
        <ele>196.2</ele>
        <time>2017-01-08T14:20:00Z</time>
      </trkpt>
      <trkpt lat="43.62329" lon="3.41885">
        <ele>196.6</ele>
        <time>2017-01-08T14:20:04Z</time>
      </trkpt>
      <trkpt lat="43.62322" lon="3.41879">
        <ele>197.1</ele>
        <time>2017-01-08T14:20:08Z</time>
      </trkpt>
      <trkpt lat="43.62314" lon="3.41874">
        <ele>197.8</ele>
        <time>2017-01-08T14:20:12Z</time>
      </trkpt>
      <trkpt lat="43.62306" lon="3.41873">
        <ele>198.5</ele>
        <time>2017-01-08T14:20:16Z</time>
      </trkpt>
      <trkpt lat="43.62297" lon="3.4187">
        <ele>199.2</ele>
        <time>2017-01-08T14:20:20Z</time>
      </trkpt>
      <trkpt lat="43.62289" lon="3.41864">
        <ele>199.9</ele>
        <time>2017-01-08T14:20:24Z</time>
      </trkpt>
      <trkpt lat="43.6228" lon="3.4186">
        <ele>200.5</ele>
        <time>2017-01-08T14:20:28Z</time>
      </trkpt>
      <trkpt lat="43.62273" lon="3.41857">
        <ele>201.3</ele>
        <time>2017-01-08T14:20:32Z</time>
      </trkpt>
      <trkpt lat="43.62266" lon="3.41851">
        <ele>202.1</ele>
        <time>2017-01-08T14:20:36Z</time>
      </trkpt>
      <trkpt lat="43.6226" lon="3.41847">
        <ele>202.6</ele>
        <time>2017-01-08T14:20:39Z</time>
      </trkpt>
      <trkpt lat="43.62252" lon="3.41842">
        <ele>203.3</ele>
        <time>2017-01-08T14:20:43Z</time>
      </trkpt>
      <trkpt lat="43.62245" lon="3.41839">
        <ele>204.1</ele>
        <time>2017-01-08T14:20:47Z</time>
      </trkpt>
      <trkpt lat="43.62237" lon="3.41836">
        <ele>205.5</ele>
        <time>2017-01-08T14:20:52Z</time>
      </trkpt>
      <trkpt lat="43.6223" lon="3.4183">
        <ele>206.2</ele>
        <time>2017-01-08T14:20:55Z</time>
      </trkpt>
      <trkpt lat="43.62224" lon="3.41826">
        <ele>207.1</ele>
        <time>2017-01-08T14:20:59Z</time>
      </trkpt>
      <trkpt lat="43.62218" lon="3.41819">
        <ele>207.7</ele>
        <time>2017-01-08T14:21:03Z</time>
      </trkpt>
      <trkpt lat="43.62211" lon="3.41815">
        <ele>208.2</ele>
        <time>2017-01-08T14:21:07Z</time>
      </trkpt>
      <trkpt lat="43.62204" lon="3.4181">
        <ele>209</ele>
        <time>2017-01-08T14:21:11Z</time>
      </trkpt>
      <trkpt lat="43.62198" lon="3.41803">
        <ele>209.7</ele>
        <time>2017-01-08T14:21:14Z</time>
      </trkpt>
      <trkpt lat="43.62192" lon="3.41798">
        <ele>210.8</ele>
        <time>2017-01-08T14:21:18Z</time>
      </trkpt>
      <trkpt lat="43.62184" lon="3.41793">
        <ele>211.8</ele>
        <time>2017-01-08T14:21:23Z</time>
      </trkpt>
      <trkpt lat="43.62177" lon="3.41787">
        <ele>212.5</ele>
        <time>2017-01-08T14:21:27Z</time>
      </trkpt>
      <trkpt lat="43.6217" lon="3.41779">
        <ele>213.1</ele>
        <time>2017-01-08T14:21:31Z</time>
      </trkpt>
      <trkpt lat="43.62162" lon="3.41771">
        <ele>213.6</ele>
        <time>2017-01-08T14:21:35Z</time>
      </trkpt>
      <trkpt lat="43.62153" lon="3.41763">
        <ele>214.1</ele>
        <time>2017-01-08T14:21:39Z</time>
      </trkpt>
      <trkpt lat="43.62147" lon="3.41756">
        <ele>214.6</ele>
        <time>2017-01-08T14:21:42Z</time>
      </trkpt>
      <trkpt lat="43.6214" lon="3.41749">
        <ele>215</ele>
        <time>2017-01-08T14:21:45Z</time>
      </trkpt>
      <trkpt lat="43.62134" lon="3.41742">
        <ele>215.4</ele>
        <time>2017-01-08T14:21:48Z</time>
      </trkpt>
      <trkpt lat="43.62127" lon="3.41734">
        <ele>215.8</ele>
        <time>2017-01-08T14:21:52Z</time>
      </trkpt>
      <trkpt lat="43.6212" lon="3.41727">
        <ele>216.2</ele>
        <time>2017-01-08T14:21:56Z</time>
      </trkpt>
      <trkpt lat="43.62115" lon="3.41719">
        <ele>216.5</ele>
        <time>2017-01-08T14:21:59Z</time>
      </trkpt>
      <trkpt lat="43.62108" lon="3.41712">
        <ele>216.9</ele>
        <time>2017-01-08T14:22:03Z</time>
      </trkpt>
      <trkpt lat="43.62101" lon="3.41706">
        <ele>217.2</ele>
        <time>2017-01-08T14:22:06Z</time>
      </trkpt>
      <trkpt lat="43.62093" lon="3.41698">
        <ele>217.5</ele>
        <time>2017-01-08T14:22:09Z</time>
      </trkpt>
      <trkpt lat="43.62087" lon="3.41692">
        <ele>217.9</ele>
        <time>2017-01-08T14:22:12Z</time>
      </trkpt>
      <trkpt lat="43.6208" lon="3.41685">
        <ele>218.2</ele>
        <time>2017-01-08T14:22:15Z</time>
      </trkpt>
      <trkpt lat="43.62073" lon="3.41678">
        <ele>218.5</ele>
        <time>2017-01-08T14:22:18Z</time>
      </trkpt>
      <trkpt lat="43.62065" lon="3.41671">
        <ele>218.7</ele>
        <time>2017-01-08T14:22:21Z</time>
      </trkpt>
      <trkpt lat="43.62058" lon="3.41664">
        <ele>219</ele>
        <time>2017-01-08T14:22:24Z</time>
      </trkpt>
      <trkpt lat="43.62051" lon="3.41657">
        <ele>219.2</ele>
        <time>2017-01-08T14:22:27Z</time>
      </trkpt>
      <trkpt lat="43.62042" lon="3.41649">
        <ele>219.4</ele>
        <time>2017-01-08T14:22:30Z</time>
      </trkpt>
      <trkpt lat="43.62034" lon="3.41642">
        <ele>219.8</ele>
        <time>2017-01-08T14:22:34Z</time>
      </trkpt>
      <trkpt lat="43.62027" lon="3.41636">
        <ele>220.1</ele>
        <time>2017-01-08T14:22:37Z</time>
      </trkpt>
      <trkpt lat="43.6202" lon="3.41629">
        <ele>220.4</ele>
        <time>2017-01-08T14:22:40Z</time>
      </trkpt>
      <trkpt lat="43.62015" lon="3.41621">
        <ele>220.7</ele>
        <time>2017-01-08T14:22:43Z</time>
      </trkpt>
      <trkpt lat="43.62009" lon="3.41612">
        <ele>221.1</ele>
        <time>2017-01-08T14:22:46Z</time>
      </trkpt>
      <trkpt lat="43.62003" lon="3.41602">
        <ele>221.6</ele>
        <time>2017-01-08T14:22:49Z</time>
      </trkpt>
      <trkpt lat="43.61998" lon="3.41593">
        <ele>222.1</ele>
        <time>2017-01-08T14:22:52Z</time>
      </trkpt>
      <trkpt lat="43.61993" lon="3.41583">
        <ele>222.8</ele>
        <time>2017-01-08T14:22:56Z</time>
      </trkpt>
      <trkpt lat="43.61988" lon="3.41573">
        <ele>223.3</ele>
        <time>2017-01-08T14:22:59Z</time>
      </trkpt>
      <trkpt lat="43.61981" lon="3.41565">
        <ele>223.8</ele>
        <time>2017-01-08T14:23:02Z</time>
      </trkpt>
      <trkpt lat="43.61975" lon="3.41558">
        <ele>224.1</ele>
        <time>2017-01-08T14:23:05Z</time>
      </trkpt>
      <trkpt lat="43.6197" lon="3.41551">
        <ele>224.4</ele>
        <time>2017-01-08T14:23:08Z</time>
      </trkpt>
      <trkpt lat="43.61964" lon="3.41543">
        <ele>225</ele>
        <time>2017-01-08T14:23:11Z</time>
      </trkpt>
      <trkpt lat="43.61957" lon="3.41534">
        <ele>225.5</ele>
        <time>2017-01-08T14:23:14Z</time>
      </trkpt>
      <trkpt lat="43.61951" lon="3.41528">
        <ele>226</ele>
        <time>2017-01-08T14:23:17Z</time>
      </trkpt>
      <trkpt lat="43.61945" lon="3.4152">
        <ele>226.4</ele>
        <time>2017-01-08T14:23:20Z</time>
      </trkpt>
      <trkpt lat="43.61938" lon="3.41511">
        <ele>226.9</ele>
        <time>2017-01-08T14:23:24Z</time>
      </trkpt>
      <trkpt lat="43.61929" lon="3.41505">
        <ele>227.5</ele>
        <time>2017-01-08T14:23:28Z</time>
      </trkpt>
      <trkpt lat="43.61921" lon="3.41499">
        <ele>228.1</ele>
        <time>2017-01-08T14:23:32Z</time>
      </trkpt>
      <trkpt lat="43.61913" lon="3.41495">
        <ele>228.8</ele>
        <time>2017-01-08T14:23:36Z</time>
      </trkpt>
      <trkpt lat="43.61905" lon="3.41496">
        <ele>229.4</ele>
        <time>2017-01-08T14:23:40Z</time>
      </trkpt>
      <trkpt lat="43.61899" lon="3.41503">
        <ele>229.6</ele>
        <time>2017-01-08T14:23:43Z</time>
      </trkpt>
      <trkpt lat="43.61896" lon="3.41513">
        <ele>229.8</ele>
        <time>2017-01-08T14:23:47Z</time>
      </trkpt>
      <trkpt lat="43.61889" lon="3.41518">
        <ele>230</ele>
        <time>2017-01-08T14:23:51Z</time>
      </trkpt>
      <trkpt lat="43.61882" lon="3.41529">
        <ele>230.3</ele>
        <time>2017-01-08T14:23:54Z</time>
      </trkpt>
      <trkpt lat="43.61883" lon="3.41542">
        <ele>231.1</ele>
        <time>2017-01-08T14:23:58Z</time>
      </trkpt>
      <trkpt lat="43.61884" lon="3.41555">
        <ele>232</ele>
        <time>2017-01-08T14:24:02Z</time>
      </trkpt>
      <trkpt lat="43.61887" lon="3.41566">
        <ele>232.8</ele>
        <time>2017-01-08T14:24:06Z</time>
      </trkpt>
      <trkpt lat="43.61889" lon="3.41576">
        <ele>233.5</ele>
        <time>2017-01-08T14:24:10Z</time>
      </trkpt>
      <trkpt lat="43.61892" lon="3.41585">
        <ele>234.1</ele>
        <time>2017-01-08T14:24:13Z</time>
      </trkpt>
      <trkpt lat="43.61897" lon="3.41595">
        <ele>234.8</ele>
        <time>2017-01-08T14:24:17Z</time>
      </trkpt>
      <trkpt lat="43.619" lon="3.41605">
        <ele>235.3</ele>
        <time>2017-01-08T14:24:20Z</time>
      </trkpt>
      <trkpt lat="43.61901" lon="3.41617">
        <ele>235.9</ele>
        <time>2017-01-08T14:24:23Z</time>
      </trkpt>
      <trkpt lat="43.61893" lon="3.4162">
        <ele>237.4</ele>
        <time>2017-01-08T14:24:30Z</time>
      </trkpt>
      <trkpt lat="43.61887" lon="3.41614">
        <ele>238</ele>
        <time>2017-01-08T14:24:33Z</time>
      </trkpt>
      <trkpt lat="43.61879" lon="3.41606">
        <ele>238.9</ele>
        <time>2017-01-08T14:24:37Z</time>
      </trkpt>
      <trkpt lat="43.61873" lon="3.41599">
        <ele>239.6</ele>
        <time>2017-01-08T14:24:40Z</time>
      </trkpt>
      <trkpt lat="43.61866" lon="3.41591">
        <ele>240.4</ele>
        <time>2017-01-08T14:24:44Z</time>
      </trkpt>
      <trkpt lat="43.6186" lon="3.41581">
        <ele>241.3</ele>
        <time>2017-01-08T14:24:48Z</time>
      </trkpt>
      <trkpt lat="43.61852" lon="3.4158">
        <ele>242.7</ele>
        <time>2017-01-08T14:24:54Z</time>
      </trkpt>
      <trkpt lat="43.61853" lon="3.41592">
        <ele>243.5</ele>
        <time>2017-01-08T14:24:58Z</time>
      </trkpt>
      <trkpt lat="43.61857" lon="3.41603">
        <ele>244.4</ele>
        <time>2017-01-08T14:25:02Z</time>
      </trkpt>
      <trkpt lat="43.61861" lon="3.41611">
        <ele>245.2</ele>
        <time>2017-01-08T14:25:07Z</time>
      </trkpt>
      <trkpt lat="43.61866" lon="3.41621">
        <ele>245.8</ele>
        <time>2017-01-08T14:25:11Z</time>
      </trkpt>
      <trkpt lat="43.61869" lon="3.41633">
        <ele>246.2</ele>
        <time>2017-01-08T14:25:15Z</time>
      </trkpt>
      <trkpt lat="43.61874" lon="3.41641">
        <ele>246.7</ele>
        <time>2017-01-08T14:25:18Z</time>
      </trkpt>
      <trkpt lat="43.61879" lon="3.4165">
        <ele>247.2</ele>
        <time>2017-01-08T14:25:21Z</time>
      </trkpt>
      <trkpt lat="43.61885" lon="3.41658">
        <ele>247.9</ele>
        <time>2017-01-08T14:25:25Z</time>
      </trkpt>
      <trkpt lat="43.6189" lon="3.41665">
        <ele>248.5</ele>
        <time>2017-01-08T14:25:29Z</time>
      </trkpt>
      <trkpt lat="43.61896" lon="3.41672">
        <ele>248.9</ele>
        <time>2017-01-08T14:25:32Z</time>
      </trkpt>
      <trkpt lat="43.61903" lon="3.41678">
        <ele>249.3</ele>
        <time>2017-01-08T14:25:35Z</time>
      </trkpt>
      <trkpt lat="43.61909" lon="3.41686">
        <ele>249.8</ele>
        <time>2017-01-08T14:25:39Z</time>
      </trkpt>
      <trkpt lat="43.61915" lon="3.41695">
        <ele>250.2</ele>
        <time>2017-01-08T14:25:43Z</time>
      </trkpt>
      <trkpt lat="43.61921" lon="3.41704">
        <ele>250.5</ele>
        <time>2017-01-08T14:25:47Z</time>
      </trkpt>
      <trkpt lat="43.61927" lon="3.4171">
        <ele>250.9</ele>
        <time>2017-01-08T14:25:51Z</time>
      </trkpt>
      <trkpt lat="43.61934" lon="3.4172">
        <ele>251.2</ele>
        <time>2017-01-08T14:25:55Z</time>
      </trkpt>
      <trkpt lat="43.61939" lon="3.41727">
        <ele>251.6</ele>
        <time>2017-01-08T14:25:58Z</time>
      </trkpt>
      <trkpt lat="43.61945" lon="3.41737">
        <ele>252.3</ele>
        <time>2017-01-08T14:26:02Z</time>
      </trkpt>
      <trkpt lat="43.61951" lon="3.41745">
        <ele>252.9</ele>
        <time>2017-01-08T14:26:06Z</time>
      </trkpt>
      <trkpt lat="43.61956" lon="3.41755">
        <ele>253.3</ele>
        <time>2017-01-08T14:26:10Z</time>
      </trkpt>
      <trkpt lat="43.61961" lon="3.41763">
        <ele>253.7</ele>
        <time>2017-01-08T14:26:13Z</time>
      </trkpt>
      <trkpt lat="43.61966" lon="3.41772">
        <ele>254.1</ele>
        <time>2017-01-08T14:26:16Z</time>
      </trkpt>
      <trkpt lat="43.61971" lon="3.41782">
        <ele>254.8</ele>
        <time>2017-01-08T14:26:20Z</time>
      </trkpt>
      <trkpt lat="43.61977" lon="3.41792">
        <ele>255.6</ele>
        <time>2017-01-08T14:26:24Z</time>
      </trkpt>
      <trkpt lat="43.61983" lon="3.41803">
        <ele>256.4</ele>
        <time>2017-01-08T14:26:28Z</time>
      </trkpt>
      <trkpt lat="43.61986" lon="3.41811">
        <ele>256.9</ele>
        <time>2017-01-08T14:26:31Z</time>
      </trkpt>
      <trkpt lat="43.61992" lon="3.41821">
        <ele>257.5</ele>
        <time>2017-01-08T14:26:35Z</time>
      </trkpt>
      <trkpt lat="43.61996" lon="3.41831">
        <ele>258.1</ele>
        <time>2017-01-08T14:26:38Z</time>
      </trkpt>
      <trkpt lat="43.62" lon="3.41841">
        <ele>258.7</ele>
        <time>2017-01-08T14:26:41Z</time>
      </trkpt>
      <trkpt lat="43.62004" lon="3.4185">
        <ele>259.3</ele>
        <time>2017-01-08T14:26:44Z</time>
      </trkpt>
      <trkpt lat="43.62008" lon="3.4186">
        <ele>259.8</ele>
        <time>2017-01-08T14:26:47Z</time>
      </trkpt>
      <trkpt lat="43.6201" lon="3.4187">
        <ele>260.4</ele>
        <time>2017-01-08T14:26:50Z</time>
      </trkpt>
      <trkpt lat="43.62011" lon="3.41883">
        <ele>261.2</ele>
        <time>2017-01-08T14:26:54Z</time>
      </trkpt>
      <trkpt lat="43.62009" lon="3.41895">
        <ele>261.8</ele>
        <time>2017-01-08T14:26:58Z</time>
      </trkpt>
      <trkpt lat="43.62004" lon="3.41904">
        <ele>262.6</ele>
        <time>2017-01-08T14:27:02Z</time>
      </trkpt>
      <trkpt lat="43.61997" lon="3.41911">
        <ele>263.4</ele>
        <time>2017-01-08T14:27:06Z</time>
      </trkpt>
      <trkpt lat="43.6199" lon="3.41919">
        <ele>264</ele>
        <time>2017-01-08T14:27:09Z</time>
      </trkpt>
      <trkpt lat="43.61983" lon="3.41924">
        <ele>264.6</ele>
        <time>2017-01-08T14:27:12Z</time>
      </trkpt>
      <trkpt lat="43.61976" lon="3.41928">
        <ele>265.5</ele>
        <time>2017-01-08T14:27:16Z</time>
      </trkpt>
      <trkpt lat="43.61969" lon="3.41933">
        <ele>266.2</ele>
        <time>2017-01-08T14:27:19Z</time>
      </trkpt>
      <trkpt lat="43.61962" lon="3.41938">
        <ele>267.3</ele>
        <time>2017-01-08T14:27:23Z</time>
      </trkpt>
      <trkpt lat="43.61956" lon="3.41943">
        <ele>268.2</ele>
        <time>2017-01-08T14:27:26Z</time>
      </trkpt>
      <trkpt lat="43.61951" lon="3.41952">
        <ele>269.1</ele>
        <time>2017-01-08T14:27:29Z</time>
      </trkpt>
      <trkpt lat="43.61952" lon="3.41963">
        <ele>269.9</ele>
        <time>2017-01-08T14:27:32Z</time>
      </trkpt>
      <trkpt lat="43.61957" lon="3.41972">
        <ele>271.1</ele>
        <time>2017-01-08T14:27:36Z</time>
      </trkpt>
      <trkpt lat="43.61963" lon="3.4198">
        <ele>271.8</ele>
        <time>2017-01-08T14:27:39Z</time>
      </trkpt>
      <trkpt lat="43.61971" lon="3.41987">
        <ele>272.7</ele>
        <time>2017-01-08T14:27:43Z</time>
      </trkpt>
      <trkpt lat="43.61977" lon="3.41995">
        <ele>273.3</ele>
        <time>2017-01-08T14:27:46Z</time>
      </trkpt>
      <trkpt lat="43.61983" lon="3.42002">
        <ele>273.9</ele>
        <time>2017-01-08T14:27:49Z</time>
      </trkpt>
      <trkpt lat="43.61989" lon="3.4201">
        <ele>274.4</ele>
        <time>2017-01-08T14:27:52Z</time>
      </trkpt>
      <trkpt lat="43.61995" lon="3.42018">
        <ele>274.9</ele>
        <time>2017-01-08T14:27:55Z</time>
      </trkpt>
      <trkpt lat="43.62" lon="3.42025">
        <ele>275.4</ele>
        <time>2017-01-08T14:27:58Z</time>
      </trkpt>
      <trkpt lat="43.62008" lon="3.42033">
        <ele>276</ele>
        <time>2017-01-08T14:28:02Z</time>
      </trkpt>
      <trkpt lat="43.62015" lon="3.42038">
        <ele>276.5</ele>
        <time>2017-01-08T14:28:06Z</time>
      </trkpt>
      <trkpt lat="43.62024" lon="3.42044">
        <ele>277</ele>
        <time>2017-01-08T14:28:10Z</time>
      </trkpt>
      <trkpt lat="43.6203" lon="3.42049">
        <ele>277.4</ele>
        <time>2017-01-08T14:28:13Z</time>
      </trkpt>
      <trkpt lat="43.62037" lon="3.42054">
        <ele>278</ele>
        <time>2017-01-08T14:28:16Z</time>
      </trkpt>
      <trkpt lat="43.62044" lon="3.42058">
        <ele>278.6</ele>
        <time>2017-01-08T14:28:19Z</time>
      </trkpt>
      <trkpt lat="43.6205" lon="3.42061">
        <ele>279.1</ele>
        <time>2017-01-08T14:28:22Z</time>
      </trkpt>
      <trkpt lat="43.62059" lon="3.42067">
        <ele>279.9</ele>
        <time>2017-01-08T14:28:26Z</time>
      </trkpt>
      <trkpt lat="43.62066" lon="3.4207">
        <ele>280.8</ele>
        <time>2017-01-08T14:28:30Z</time>
      </trkpt>
      <trkpt lat="43.62074" lon="3.42073">
        <ele>281.4</ele>
        <time>2017-01-08T14:28:33Z</time>
      </trkpt>
      <trkpt lat="43.62082" lon="3.42077">
        <ele>281.8</ele>
        <time>2017-01-08T14:28:36Z</time>
      </trkpt>
      <trkpt lat="43.62088" lon="3.42082">
        <ele>282.3</ele>
        <time>2017-01-08T14:28:40Z</time>
      </trkpt>
      <trkpt lat="43.62095" lon="3.42088">
        <ele>282.8</ele>
        <time>2017-01-08T14:28:44Z</time>
      </trkpt>
      <trkpt lat="43.62101" lon="3.42093">
        <ele>283.3</ele>
        <time>2017-01-08T14:28:48Z</time>
      </trkpt>
      <trkpt lat="43.62108" lon="3.421">
        <ele>283.7</ele>
        <time>2017-01-08T14:28:51Z</time>
      </trkpt>
      <trkpt lat="43.62114" lon="3.42109">
        <ele>284.3</ele>
        <time>2017-01-08T14:28:54Z</time>
      </trkpt>
      <trkpt lat="43.62119" lon="3.42117">
        <ele>284.9</ele>
        <time>2017-01-08T14:28:57Z</time>
      </trkpt>
      <trkpt lat="43.62125" lon="3.42128">
        <ele>285.7</ele>
        <time>2017-01-08T14:29:01Z</time>
      </trkpt>
      <trkpt lat="43.6213" lon="3.42139">
        <ele>286.6</ele>
        <time>2017-01-08T14:29:05Z</time>
      </trkpt>
      <trkpt lat="43.62124" lon="3.42145">
        <ele>288</ele>
        <time>2017-01-08T14:29:11Z</time>
      </trkpt>
      <trkpt lat="43.62115" lon="3.42141">
        <ele>288.9</ele>
        <time>2017-01-08T14:29:15Z</time>
      </trkpt>
      <trkpt lat="43.62108" lon="3.42137">
        <ele>290.1</ele>
        <time>2017-01-08T14:29:19Z</time>
      </trkpt>
      <trkpt lat="43.62099" lon="3.42134">
        <ele>291.6</ele>
        <time>2017-01-08T14:29:24Z</time>
      </trkpt>
      <trkpt lat="43.62091" lon="3.42131">
        <ele>292.8</ele>
        <time>2017-01-08T14:29:28Z</time>
      </trkpt>
      <trkpt lat="43.62083" lon="3.42128">
        <ele>293.7</ele>
        <time>2017-01-08T14:29:31Z</time>
      </trkpt>
      <trkpt lat="43.62075" lon="3.42127">
        <ele>294.5</ele>
        <time>2017-01-08T14:29:35Z</time>
      </trkpt>
      <trkpt lat="43.62067" lon="3.42126">
        <ele>295.1</ele>
        <time>2017-01-08T14:29:38Z</time>
      </trkpt>
      <trkpt lat="43.62059" lon="3.42125">
        <ele>295.8</ele>
        <time>2017-01-08T14:29:42Z</time>
      </trkpt>
      <trkpt lat="43.62051" lon="3.42124">
        <ele>296.4</ele>
        <time>2017-01-08T14:29:46Z</time>
      </trkpt>
      <trkpt lat="43.62042" lon="3.42122">
        <ele>297.3</ele>
        <time>2017-01-08T14:29:50Z</time>
      </trkpt>
      <trkpt lat="43.62032" lon="3.42122">
        <ele>297.8</ele>
        <time>2017-01-08T14:29:54Z</time>
      </trkpt>
      <trkpt lat="43.62023" lon="3.42121">
        <ele>298.2</ele>
        <time>2017-01-08T14:29:58Z</time>
      </trkpt>
      <trkpt lat="43.62015" lon="3.42119">
        <ele>298.7</ele>
        <time>2017-01-08T14:30:02Z</time>
      </trkpt>
      <trkpt lat="43.62007" lon="3.42116">
        <ele>299.2</ele>
        <time>2017-01-08T14:30:05Z</time>
      </trkpt>
      <trkpt lat="43.61999" lon="3.42113">
        <ele>300.2</ele>
        <time>2017-01-08T14:30:09Z</time>
      </trkpt>
      <trkpt lat="43.6199" lon="3.42112">
        <ele>301.1</ele>
        <time>2017-01-08T14:30:13Z</time>
      </trkpt>
      <trkpt lat="43.61983" lon="3.42108">
        <ele>301.7</ele>
        <time>2017-01-08T14:30:16Z</time>
      </trkpt>
      <trkpt lat="43.61976" lon="3.42105">
        <ele>302.9</ele>
        <time>2017-01-08T14:30:20Z</time>
      </trkpt>
      <trkpt lat="43.61969" lon="3.421">
        <ele>303.9</ele>
        <time>2017-01-08T14:30:23Z</time>
      </trkpt>
      <trkpt lat="43.61961" lon="3.42094">
        <ele>305</ele>
        <time>2017-01-08T14:30:27Z</time>
      </trkpt>
      <trkpt lat="43.61952" lon="3.42088">
        <ele>305.8</ele>
        <time>2017-01-08T14:30:31Z</time>
      </trkpt>
      <trkpt lat="43.61944" lon="3.42081">
        <ele>306.5</ele>
        <time>2017-01-08T14:30:35Z</time>
      </trkpt>
      <trkpt lat="43.61938" lon="3.42076">
        <ele>307.1</ele>
        <time>2017-01-08T14:30:38Z</time>
      </trkpt>
      <trkpt lat="43.61931" lon="3.4207">
        <ele>307.7</ele>
        <time>2017-01-08T14:30:42Z</time>
      </trkpt>
      <trkpt lat="43.61924" lon="3.42063">
        <ele>308.4</ele>
        <time>2017-01-08T14:30:46Z</time>
      </trkpt>
      <trkpt lat="43.61917" lon="3.42058">
        <ele>308.9</ele>
        <time>2017-01-08T14:30:49Z</time>
      </trkpt>
      <trkpt lat="43.61911" lon="3.42053">
        <ele>309.2</ele>
        <time>2017-01-08T14:30:52Z</time>
      </trkpt>
      <trkpt lat="43.61903" lon="3.42049">
        <ele>309.7</ele>
        <time>2017-01-08T14:30:56Z</time>
      </trkpt>
      <trkpt lat="43.61896" lon="3.42045">
        <ele>310.2</ele>
        <time>2017-01-08T14:31:00Z</time>
      </trkpt>
      <trkpt lat="43.61889" lon="3.42041">
        <ele>311</ele>
        <time>2017-01-08T14:31:04Z</time>
      </trkpt>
      <trkpt lat="43.61882" lon="3.42034">
        <ele>311.5</ele>
        <time>2017-01-08T14:31:07Z</time>
      </trkpt>
      <trkpt lat="43.61875" lon="3.42026">
        <ele>312.1</ele>
        <time>2017-01-08T14:31:11Z</time>
      </trkpt>
      <trkpt lat="43.61869" lon="3.4202">
        <ele>312.5</ele>
        <time>2017-01-08T14:31:14Z</time>
      </trkpt>
      <trkpt lat="43.61862" lon="3.42012">
        <ele>313.1</ele>
        <time>2017-01-08T14:31:18Z</time>
      </trkpt>
      <trkpt lat="43.61856" lon="3.42007">
        <ele>313.5</ele>
        <time>2017-01-08T14:31:21Z</time>
      </trkpt>
      <trkpt lat="43.61847" lon="3.42001">
        <ele>313.8</ele>
        <time>2017-01-08T14:31:24Z</time>
      </trkpt>
      <trkpt lat="43.6184" lon="3.41996">
        <ele>314.1</ele>
        <time>2017-01-08T14:31:27Z</time>
      </trkpt>
      <trkpt lat="43.61834" lon="3.4199">
        <ele>314.4</ele>
        <time>2017-01-08T14:31:30Z</time>
      </trkpt>
      <trkpt lat="43.61827" lon="3.41981">
        <ele>314.9</ele>
        <time>2017-01-08T14:31:34Z</time>
      </trkpt>
      <trkpt lat="43.61822" lon="3.41972">
        <ele>315.5</ele>
        <time>2017-01-08T14:31:38Z</time>
      </trkpt>
      <trkpt lat="43.61819" lon="3.41961">
        <ele>316</ele>
        <time>2017-01-08T14:31:41Z</time>
      </trkpt>
      <trkpt lat="43.61818" lon="3.41951">
        <ele>316.5</ele>
        <time>2017-01-08T14:31:44Z</time>
      </trkpt>
      <trkpt lat="43.61818" lon="3.41941">
        <ele>317.2</ele>
        <time>2017-01-08T14:31:48Z</time>
      </trkpt>
      <trkpt lat="43.61821" lon="3.41928">
        <ele>317.8</ele>
        <time>2017-01-08T14:31:52Z</time>
      </trkpt>
      <trkpt lat="43.61822" lon="3.41917">
        <ele>318.4</ele>
        <time>2017-01-08T14:31:56Z</time>
      </trkpt>
      <trkpt lat="43.61823" lon="3.41906">
        <ele>319.1</ele>
        <time>2017-01-08T14:32:00Z</time>
      </trkpt>
      <trkpt lat="43.61824" lon="3.41896">
        <ele>319.8</ele>
        <time>2017-01-08T14:32:03Z</time>
      </trkpt>
      <trkpt lat="43.61823" lon="3.41884">
        <ele>320.7</ele>
        <time>2017-01-08T14:32:07Z</time>
      </trkpt>
      <trkpt lat="43.61821" lon="3.41874">
        <ele>321.3</ele>
        <time>2017-01-08T14:32:10Z</time>
      </trkpt>
      <trkpt lat="43.61817" lon="3.41863">
        <ele>322.2</ele>
        <time>2017-01-08T14:32:14Z</time>
      </trkpt>
      <trkpt lat="43.61812" lon="3.41851">
        <ele>322.9</ele>
        <time>2017-01-08T14:32:18Z</time>
      </trkpt>
      <trkpt lat="43.61806" lon="3.41843">
        <ele>323.4</ele>
        <time>2017-01-08T14:32:21Z</time>
      </trkpt>
      <trkpt lat="43.61801" lon="3.41836">
        <ele>323.9</ele>
        <time>2017-01-08T14:32:24Z</time>
      </trkpt>
      <trkpt lat="43.61795" lon="3.41829">
        <ele>324.1</ele>
        <time>2017-01-08T14:32:27Z</time>
      </trkpt>
      <trkpt lat="43.61789" lon="3.41822">
        <ele>324.3</ele>
        <time>2017-01-08T14:32:30Z</time>
      </trkpt>
      <trkpt lat="43.61783" lon="3.41814">
        <ele>324.4</ele>
        <time>2017-01-08T14:32:33Z</time>
      </trkpt>
      <trkpt lat="43.61777" lon="3.41807">
        <ele>324.6</ele>
        <time>2017-01-08T14:32:36Z</time>
      </trkpt>
      <trkpt lat="43.61771" lon="3.41798">
        <ele>324.7</ele>
        <time>2017-01-08T14:32:40Z</time>
      </trkpt>
      <trkpt lat="43.61765" lon="3.41789">
        <ele>325</ele>
        <time>2017-01-08T14:32:44Z</time>
      </trkpt>
      <trkpt lat="43.6176" lon="3.41782">
        <ele>325.2</ele>
        <time>2017-01-08T14:32:47Z</time>
      </trkpt>
      <trkpt lat="43.61754" lon="3.41776">
        <ele>325.4</ele>
        <time>2017-01-08T14:32:50Z</time>
      </trkpt>
      <trkpt lat="43.61747" lon="3.41768">
        <ele>325.7</ele>
        <time>2017-01-08T14:32:54Z</time>
      </trkpt>
      <trkpt lat="43.61739" lon="3.41761">
        <ele>326</ele>
        <time>2017-01-08T14:32:58Z</time>
      </trkpt>
      <trkpt lat="43.61733" lon="3.41754">
        <ele>326.2</ele>
        <time>2017-01-08T14:33:01Z</time>
      </trkpt>
      <trkpt lat="43.61727" lon="3.41749">
        <ele>326.4</ele>
        <time>2017-01-08T14:33:04Z</time>
      </trkpt>
      <trkpt lat="43.61719" lon="3.41742">
        <ele>326.8</ele>
        <time>2017-01-08T14:33:08Z</time>
      </trkpt>
      <trkpt lat="43.6171" lon="3.41742">
        <ele>327.2</ele>
        <time>2017-01-08T14:33:12Z</time>
      </trkpt>
      <trkpt lat="43.61701" lon="3.41748">
        <ele>327.8</ele>
        <time>2017-01-08T14:33:16Z</time>
      </trkpt>
      <trkpt lat="43.61695" lon="3.41756">
        <ele>328.3</ele>
        <time>2017-01-08T14:33:19Z</time>
      </trkpt>
      <trkpt lat="43.61689" lon="3.41763">
        <ele>328.7</ele>
        <time>2017-01-08T14:33:22Z</time>
      </trkpt>
      <trkpt lat="43.61683" lon="3.41772">
        <ele>329.1</ele>
        <time>2017-01-08T14:33:25Z</time>
      </trkpt>
      <trkpt lat="43.61676" lon="3.4178">
        <ele>329.4</ele>
        <time>2017-01-08T14:33:28Z</time>
      </trkpt>
      <trkpt lat="43.61667" lon="3.41788">
        <ele>329.7</ele>
        <time>2017-01-08T14:33:31Z</time>
      </trkpt>
      <trkpt lat="43.61661" lon="3.41792">
        <ele>330.7</ele>
        <time>2017-01-08T14:33:33Z</time>
      </trkpt>
      <trkpt lat="43.61652" lon="3.41797">
        <ele>332</ele>
        <time>2017-01-08T14:33:35Z</time>
      </trkpt>
      <trkpt lat="43.61643" lon="3.41803">
        <ele>332.6</ele>
        <time>2017-01-08T14:33:37Z</time>
      </trkpt>
      <trkpt lat="43.61633" lon="3.41811">
        <ele>332.8</ele>
        <time>2017-01-08T14:33:39Z</time>
      </trkpt>
      <trkpt lat="43.61622" lon="3.41819">
        <ele>332.8</ele>
        <time>2017-01-08T14:33:41Z</time>
      </trkpt>
      <trkpt lat="43.6161" lon="3.41829">
        <ele>332.4</ele>
        <time>2017-01-08T14:33:43Z</time>
      </trkpt>
      <trkpt lat="43.61598" lon="3.41837">
        <ele>331.1</ele>
        <time>2017-01-08T14:33:45Z</time>
      </trkpt>
      <trkpt lat="43.61591" lon="3.41841">
        <ele>330.3</ele>
        <time>2017-01-08T14:33:46Z</time>
      </trkpt>
      <trkpt lat="43.61584" lon="3.41845">
        <ele>329.6</ele>
        <time>2017-01-08T14:33:47Z</time>
      </trkpt>
      <trkpt lat="43.61577" lon="3.41847">
        <ele>329</ele>
        <time>2017-01-08T14:33:48Z</time>
      </trkpt>
      <trkpt lat="43.61569" lon="3.41849">
        <ele>328.4</ele>
        <time>2017-01-08T14:33:49Z</time>
      </trkpt>
      <trkpt lat="43.61562" lon="3.41848">
        <ele>327.6</ele>
        <time>2017-01-08T14:33:50Z</time>
      </trkpt>
      <trkpt lat="43.61554" lon="3.41846">
        <ele>326.9</ele>
        <time>2017-01-08T14:33:51Z</time>
      </trkpt>
      <trkpt lat="43.61547" lon="3.41842">
        <ele>326.2</ele>
        <time>2017-01-08T14:33:52Z</time>
      </trkpt>
      <trkpt lat="43.61536" lon="3.41831">
        <ele>325.4</ele>
        <time>2017-01-08T14:33:54Z</time>
      </trkpt>
      <trkpt lat="43.61531" lon="3.41824">
        <ele>325.3</ele>
        <time>2017-01-08T14:33:55Z</time>
      </trkpt>
      <trkpt lat="43.61526" lon="3.41816">
        <ele>325.3</ele>
        <time>2017-01-08T14:33:56Z</time>
      </trkpt>
      <trkpt lat="43.6152" lon="3.418">
        <ele>325.2</ele>
        <time>2017-01-08T14:33:58Z</time>
      </trkpt>
      <trkpt lat="43.61516" lon="3.41782">
        <ele>324.9</ele>
        <time>2017-01-08T14:34:00Z</time>
      </trkpt>
      <trkpt lat="43.61513" lon="3.41765">
        <ele>324.5</ele>
        <time>2017-01-08T14:34:02Z</time>
      </trkpt>
      <trkpt lat="43.61513" lon="3.4175">
        <ele>323.7</ele>
        <time>2017-01-08T14:34:04Z</time>
      </trkpt>
      <trkpt lat="43.61515" lon="3.41737">
        <ele>323</ele>
        <time>2017-01-08T14:34:06Z</time>
      </trkpt>
      <trkpt lat="43.61516" lon="3.41723">
        <ele>322.3</ele>
        <time>2017-01-08T14:34:08Z</time>
      </trkpt>
      <trkpt lat="43.61516" lon="3.41711">
        <ele>321.7</ele>
        <time>2017-01-08T14:34:10Z</time>
      </trkpt>
      <trkpt lat="43.61515" lon="3.41699">
        <ele>321.2</ele>
        <time>2017-01-08T14:34:12Z</time>
      </trkpt>
      <trkpt lat="43.6151" lon="3.41688">
        <ele>320.8</ele>
        <time>2017-01-08T14:34:14Z</time>
      </trkpt>
      <trkpt lat="43.61501" lon="3.41682">
        <ele>320.8</ele>
        <time>2017-01-08T14:34:16Z</time>
      </trkpt>
      <trkpt lat="43.61491" lon="3.41678">
        <ele>320.2</ele>
        <time>2017-01-08T14:34:18Z</time>
      </trkpt>
      <trkpt lat="43.61479" lon="3.41674">
        <ele>319.3</ele>
        <time>2017-01-08T14:34:20Z</time>
      </trkpt>
      <trkpt lat="43.61471" lon="3.41666">
        <ele>318.3</ele>
        <time>2017-01-08T14:34:22Z</time>
      </trkpt>
      <trkpt lat="43.61465" lon="3.41655">
        <ele>317.4</ele>
        <time>2017-01-08T14:34:24Z</time>
      </trkpt>
      <trkpt lat="43.6146" lon="3.41642">
        <ele>316.5</ele>
        <time>2017-01-08T14:34:26Z</time>
      </trkpt>
      <trkpt lat="43.61455" lon="3.4163">
        <ele>315.6</ele>
        <time>2017-01-08T14:34:28Z</time>
      </trkpt>
      <trkpt lat="43.6145" lon="3.41618">
        <ele>314.9</ele>
        <time>2017-01-08T14:34:30Z</time>
      </trkpt>
      <trkpt lat="43.61442" lon="3.41609">
        <ele>314.3</ele>
        <time>2017-01-08T14:34:32Z</time>
      </trkpt>
      <trkpt lat="43.61433" lon="3.41601">
        <ele>314</ele>
        <time>2017-01-08T14:34:34Z</time>
      </trkpt>
      <trkpt lat="43.61423" lon="3.41593">
        <ele>314.1</ele>
        <time>2017-01-08T14:34:36Z</time>
      </trkpt>
      <trkpt lat="43.61412" lon="3.41586">
        <ele>314.3</ele>
        <time>2017-01-08T14:34:38Z</time>
      </trkpt>
      <trkpt lat="43.61399" lon="3.41579">
        <ele>314.3</ele>
        <time>2017-01-08T14:34:40Z</time>
      </trkpt>
      <trkpt lat="43.61388" lon="3.41576">
        <ele>313.7</ele>
        <time>2017-01-08T14:34:42Z</time>
      </trkpt>
      <trkpt lat="43.61378" lon="3.4158">
        <ele>312.8</ele>
        <time>2017-01-08T14:34:44Z</time>
      </trkpt>
      <trkpt lat="43.61373" lon="3.41592">
        <ele>311.6</ele>
        <time>2017-01-08T14:34:46Z</time>
      </trkpt>
      <trkpt lat="43.6137" lon="3.41604">
        <ele>310.9</ele>
        <time>2017-01-08T14:34:48Z</time>
      </trkpt>
      <trkpt lat="43.61368" lon="3.41615">
        <ele>310.6</ele>
        <time>2017-01-08T14:34:50Z</time>
      </trkpt>
      <trkpt lat="43.61367" lon="3.41628">
        <ele>310.3</ele>
        <time>2017-01-08T14:34:52Z</time>
      </trkpt>
      <trkpt lat="43.61364" lon="3.41641">
        <ele>310.5</ele>
        <time>2017-01-08T14:34:54Z</time>
      </trkpt>
      <trkpt lat="43.61361" lon="3.41654">
        <ele>310.4</ele>
        <time>2017-01-08T14:34:56Z</time>
      </trkpt>
      <trkpt lat="43.61356" lon="3.41669">
        <ele>310</ele>
        <time>2017-01-08T14:34:58Z</time>
      </trkpt>
      <trkpt lat="43.61351" lon="3.41685">
        <ele>309.7</ele>
        <time>2017-01-08T14:35:00Z</time>
      </trkpt>
      <trkpt lat="43.61346" lon="3.41701">
        <ele>309.2</ele>
        <time>2017-01-08T14:35:02Z</time>
      </trkpt>
      <trkpt lat="43.61342" lon="3.41717">
        <ele>308.8</ele>
        <time>2017-01-08T14:35:04Z</time>
      </trkpt>
      <trkpt lat="43.61338" lon="3.41734">
        <ele>308.9</ele>
        <time>2017-01-08T14:35:06Z</time>
      </trkpt>
      <trkpt lat="43.61337" lon="3.41748">
        <ele>308.7</ele>
        <time>2017-01-08T14:35:08Z</time>
      </trkpt>
      <trkpt lat="43.61336" lon="3.41761">
        <ele>308.7</ele>
        <time>2017-01-08T14:35:10Z</time>
      </trkpt>
      <trkpt lat="43.61336" lon="3.41776">
        <ele>308.6</ele>
        <time>2017-01-08T14:35:12Z</time>
      </trkpt>
      <trkpt lat="43.61337" lon="3.4179">
        <ele>308.4</ele>
        <time>2017-01-08T14:35:14Z</time>
      </trkpt>
      <trkpt lat="43.61339" lon="3.41803">
        <ele>307.9</ele>
        <time>2017-01-08T14:35:16Z</time>
      </trkpt>
      <trkpt lat="43.61342" lon="3.41815">
        <ele>307.2</ele>
        <time>2017-01-08T14:35:18Z</time>
      </trkpt>
      <trkpt lat="43.61345" lon="3.41827">
        <ele>306.9</ele>
        <time>2017-01-08T14:35:20Z</time>
      </trkpt>
      <trkpt lat="43.6135" lon="3.41839">
        <ele>306.9</ele>
        <time>2017-01-08T14:35:22Z</time>
      </trkpt>
      <trkpt lat="43.61354" lon="3.4185">
        <ele>307.7</ele>
        <time>2017-01-08T14:35:24Z</time>
      </trkpt>
      <trkpt lat="43.61358" lon="3.41861">
        <ele>308.6</ele>
        <time>2017-01-08T14:35:26Z</time>
      </trkpt>
      <trkpt lat="43.61362" lon="3.41872">
        <ele>309.1</ele>
        <time>2017-01-08T14:35:28Z</time>
      </trkpt>
      <trkpt lat="43.61366" lon="3.41882">
        <ele>309</ele>
        <time>2017-01-08T14:35:30Z</time>
      </trkpt>
      <trkpt lat="43.61371" lon="3.41892">
        <ele>308.8</ele>
        <time>2017-01-08T14:35:32Z</time>
      </trkpt>
      <trkpt lat="43.61375" lon="3.41902">
        <ele>309</ele>
        <time>2017-01-08T14:35:34Z</time>
      </trkpt>
      <trkpt lat="43.61379" lon="3.41913">
        <ele>309.1</ele>
        <time>2017-01-08T14:35:36Z</time>
      </trkpt>
      <trkpt lat="43.61383" lon="3.41923">
        <ele>309</ele>
        <time>2017-01-08T14:35:38Z</time>
      </trkpt>
      <trkpt lat="43.61388" lon="3.41932">
        <ele>309.2</ele>
        <time>2017-01-08T14:35:40Z</time>
      </trkpt>
      <trkpt lat="43.61393" lon="3.41941">
        <ele>309.6</ele>
        <time>2017-01-08T14:35:42Z</time>
      </trkpt>
      <trkpt lat="43.61398" lon="3.41948">
        <ele>309.8</ele>
        <time>2017-01-08T14:35:44Z</time>
      </trkpt>
      <trkpt lat="43.61406" lon="3.41957">
        <ele>309.7</ele>
        <time>2017-01-08T14:35:47Z</time>
      </trkpt>
      <trkpt lat="43.61415" lon="3.41965">
        <ele>309.7</ele>
        <time>2017-01-08T14:35:50Z</time>
      </trkpt>
      <trkpt lat="43.61423" lon="3.41972">
        <ele>309.8</ele>
        <time>2017-01-08T14:35:54Z</time>
      </trkpt>
      <trkpt lat="43.61429" lon="3.41981">
        <ele>309.9</ele>
        <time>2017-01-08T14:35:57Z</time>
      </trkpt>
      <trkpt lat="43.61433" lon="3.41992">
        <ele>310</ele>
        <time>2017-01-08T14:36:00Z</time>
      </trkpt>
      <trkpt lat="43.61437" lon="3.42004">
        <ele>310.3</ele>
        <time>2017-01-08T14:36:03Z</time>
      </trkpt>
      <trkpt lat="43.6144" lon="3.42014">
        <ele>310.4</ele>
        <time>2017-01-08T14:36:06Z</time>
      </trkpt>
      <trkpt lat="43.61443" lon="3.42025">
        <ele>310.6</ele>
        <time>2017-01-08T14:36:09Z</time>
      </trkpt>
      <trkpt lat="43.61445" lon="3.42037">
        <ele>310.9</ele>
        <time>2017-01-08T14:36:13Z</time>
      </trkpt>
      <trkpt lat="43.61448" lon="3.42046">
        <ele>311.1</ele>
        <time>2017-01-08T14:36:16Z</time>
      </trkpt>
      <trkpt lat="43.61451" lon="3.4206">
        <ele>311.2</ele>
        <time>2017-01-08T14:36:19Z</time>
      </trkpt>
      <trkpt lat="43.61454" lon="3.4207">
        <ele>311.4</ele>
        <time>2017-01-08T14:36:22Z</time>
      </trkpt>
      <trkpt lat="43.61457" lon="3.42082">
        <ele>311.7</ele>
        <time>2017-01-08T14:36:25Z</time>
      </trkpt>
      <trkpt lat="43.61459" lon="3.42093">
        <ele>311.9</ele>
        <time>2017-01-08T14:36:28Z</time>
      </trkpt>
      <trkpt lat="43.61462" lon="3.42105">
        <ele>312.1</ele>
        <time>2017-01-08T14:36:31Z</time>
      </trkpt>
      <trkpt lat="43.61464" lon="3.42117">
        <ele>312.4</ele>
        <time>2017-01-08T14:36:34Z</time>
      </trkpt>
      <trkpt lat="43.61466" lon="3.42127">
        <ele>312.7</ele>
        <time>2017-01-08T14:36:37Z</time>
      </trkpt>
      <trkpt lat="43.61468" lon="3.42136">
        <ele>313.2</ele>
        <time>2017-01-08T14:36:40Z</time>
      </trkpt>
      <trkpt lat="43.6147" lon="3.42149">
        <ele>313.5</ele>
        <time>2017-01-08T14:36:43Z</time>
      </trkpt>
      <trkpt lat="43.61473" lon="3.42161">
        <ele>313.9</ele>
        <time>2017-01-08T14:36:46Z</time>
      </trkpt>
      <trkpt lat="43.61475" lon="3.42171">
        <ele>314.3</ele>
        <time>2017-01-08T14:36:49Z</time>
      </trkpt>
      <trkpt lat="43.61477" lon="3.42182">
        <ele>314.9</ele>
        <time>2017-01-08T14:36:52Z</time>
      </trkpt>
      <trkpt lat="43.61479" lon="3.42195">
        <ele>315.5</ele>
        <time>2017-01-08T14:36:56Z</time>
      </trkpt>
      <trkpt lat="43.61482" lon="3.42207">
        <ele>316.2</ele>
        <time>2017-01-08T14:37:00Z</time>
      </trkpt>
      <trkpt lat="43.61483" lon="3.42218">
        <ele>316.9</ele>
        <time>2017-01-08T14:37:04Z</time>
      </trkpt>
      <trkpt lat="43.61483" lon="3.42231">
        <ele>317.6</ele>
        <time>2017-01-08T14:37:08Z</time>
      </trkpt>
      <trkpt lat="43.61482" lon="3.42243">
        <ele>318</ele>
        <time>2017-01-08T14:37:11Z</time>
      </trkpt>
      <trkpt lat="43.61482" lon="3.42253">
        <ele>319</ele>
        <time>2017-01-08T14:37:13Z</time>
      </trkpt>
      <trkpt lat="43.61482" lon="3.42265">
        <ele>320.5</ele>
        <time>2017-01-08T14:37:15Z</time>
      </trkpt>
      <trkpt lat="43.61484" lon="3.42281">
        <ele>320.7</ele>
        <time>2017-01-08T14:37:17Z</time>
      </trkpt>
      <trkpt lat="43.61484" lon="3.42291">
        <ele>320.1</ele>
        <time>2017-01-08T14:37:19Z</time>
      </trkpt>
      <trkpt lat="43.61478" lon="3.42303">
        <ele>319.8</ele>
        <time>2017-01-08T14:37:22Z</time>
      </trkpt>
      <trkpt lat="43.6147" lon="3.4231">
        <ele>318.9</ele>
        <time>2017-01-08T14:37:24Z</time>
      </trkpt>
      <trkpt lat="43.61461" lon="3.42317">
        <ele>317.5</ele>
        <time>2017-01-08T14:37:26Z</time>
      </trkpt>
      <trkpt lat="43.61452" lon="3.42324">
        <ele>317.5</ele>
        <time>2017-01-08T14:37:28Z</time>
      </trkpt>
      <trkpt lat="43.61445" lon="3.42323">
        <ele>317.2</ele>
        <time>2017-01-08T14:37:30Z</time>
      </trkpt>
      <trkpt lat="43.61437" lon="3.42324">
        <ele>316.7</ele>
        <time>2017-01-08T14:37:32Z</time>
      </trkpt>
      <trkpt lat="43.6143" lon="3.42329">
        <ele>316.6</ele>
        <time>2017-01-08T14:37:34Z</time>
      </trkpt>
      <trkpt lat="43.6142" lon="3.42332">
        <ele>314.6</ele>
        <time>2017-01-08T14:37:37Z</time>
      </trkpt>
      <trkpt lat="43.61412" lon="3.4233">
        <ele>313.3</ele>
        <time>2017-01-08T14:37:39Z</time>
      </trkpt>
      <trkpt lat="43.61404" lon="3.42325">
        <ele>312.8</ele>
        <time>2017-01-08T14:37:43Z</time>
      </trkpt>
      <trkpt lat="43.61399" lon="3.42317">
        <ele>310.7</ele>
        <time>2017-01-08T14:37:45Z</time>
      </trkpt>
      <trkpt lat="43.61392" lon="3.42309">
        <ele>309.7</ele>
        <time>2017-01-08T14:37:47Z</time>
      </trkpt>
      <trkpt lat="43.61384" lon="3.42312">
        <ele>308</ele>
        <time>2017-01-08T14:37:50Z</time>
      </trkpt>
      <trkpt lat="43.61375" lon="3.42311">
        <ele>306.2</ele>
        <time>2017-01-08T14:37:52Z</time>
      </trkpt>
      <trkpt lat="43.61366" lon="3.42314">
        <ele>305.8</ele>
        <time>2017-01-08T14:37:55Z</time>
      </trkpt>
      <trkpt lat="43.61361" lon="3.42326">
        <ele>305.3</ele>
        <time>2017-01-08T14:37:58Z</time>
      </trkpt>
      <trkpt lat="43.61357" lon="3.42338">
        <ele>304.7</ele>
        <time>2017-01-08T14:38:01Z</time>
      </trkpt>
      <trkpt lat="43.61349" lon="3.42347">
        <ele>301.8</ele>
        <time>2017-01-08T14:38:04Z</time>
      </trkpt>
      <trkpt lat="43.61341" lon="3.42351">
        <ele>300.9</ele>
        <time>2017-01-08T14:38:08Z</time>
      </trkpt>
      <trkpt lat="43.61336" lon="3.42363">
        <ele>300</ele>
        <time>2017-01-08T14:38:11Z</time>
      </trkpt>
      <trkpt lat="43.61331" lon="3.42372">
        <ele>298.6</ele>
        <time>2017-01-08T14:38:15Z</time>
      </trkpt>
      <trkpt lat="43.61322" lon="3.42374">
        <ele>297.3</ele>
        <time>2017-01-08T14:38:19Z</time>
      </trkpt>
      <trkpt lat="43.61314" lon="3.42378">
        <ele>293</ele>
        <time>2017-01-08T14:38:22Z</time>
      </trkpt>
      <trkpt lat="43.61308" lon="3.42384">
        <ele>289.5</ele>
        <time>2017-01-08T14:38:24Z</time>
      </trkpt>
      <trkpt lat="43.613" lon="3.42383">
        <ele>286.6</ele>
        <time>2017-01-08T14:38:28Z</time>
      </trkpt>
      <trkpt lat="43.61293" lon="3.42386">
        <ele>284.1</ele>
        <time>2017-01-08T14:38:30Z</time>
      </trkpt>
      <trkpt lat="43.61287" lon="3.42395">
        <ele>279.4</ele>
        <time>2017-01-08T14:38:32Z</time>
      </trkpt>
      <trkpt lat="43.61278" lon="3.42404">
        <ele>274.5</ele>
        <time>2017-01-08T14:38:34Z</time>
      </trkpt>
      <trkpt lat="43.61273" lon="3.4242">
        <ele>270.8</ele>
        <time>2017-01-08T14:38:36Z</time>
      </trkpt>
      <trkpt lat="43.61268" lon="3.42434">
        <ele>267.8</ele>
        <time>2017-01-08T14:38:38Z</time>
      </trkpt>
      <trkpt lat="43.61262" lon="3.42446">
        <ele>266.7</ele>
        <time>2017-01-08T14:38:40Z</time>
      </trkpt>
      <trkpt lat="43.61261" lon="3.42459">
        <ele>265.1</ele>
        <time>2017-01-08T14:38:43Z</time>
      </trkpt>
      <trkpt lat="43.61257" lon="3.4247">
        <ele>263.6</ele>
        <time>2017-01-08T14:38:45Z</time>
      </trkpt>
      <trkpt lat="43.61251" lon="3.42485">
        <ele>261.2</ele>
        <time>2017-01-08T14:38:47Z</time>
      </trkpt>
      <trkpt lat="43.61244" lon="3.42498">
        <ele>258.9</ele>
        <time>2017-01-08T14:38:49Z</time>
      </trkpt>
      <trkpt lat="43.61235" lon="3.42514">
        <ele>256.1</ele>
        <time>2017-01-08T14:38:51Z</time>
      </trkpt>
      <trkpt lat="43.61226" lon="3.4253">
        <ele>253.4</ele>
        <time>2017-01-08T14:38:53Z</time>
      </trkpt>
      <trkpt lat="43.61216" lon="3.42545">
        <ele>251.7</ele>
        <time>2017-01-08T14:38:55Z</time>
      </trkpt>
      <trkpt lat="43.61211" lon="3.42554">
        <ele>250.9</ele>
        <time>2017-01-08T14:38:56Z</time>
      </trkpt>
      <trkpt lat="43.61206" lon="3.42561">
        <ele>250.4</ele>
        <time>2017-01-08T14:38:57Z</time>
      </trkpt>
      <trkpt lat="43.61201" lon="3.42568">
        <ele>249.7</ele>
        <time>2017-01-08T14:38:58Z</time>
      </trkpt>
      <trkpt lat="43.61195" lon="3.42575">
        <ele>248.9</ele>
        <time>2017-01-08T14:38:59Z</time>
      </trkpt>
      <trkpt lat="43.61189" lon="3.42581">
        <ele>248.5</ele>
        <time>2017-01-08T14:39:00Z</time>
      </trkpt>
      <trkpt lat="43.6118" lon="3.42593">
        <ele>247.9</ele>
        <time>2017-01-08T14:39:02Z</time>
      </trkpt>
      <trkpt lat="43.61179" lon="3.42603">
        <ele>247</ele>
        <time>2017-01-08T14:39:04Z</time>
      </trkpt>
      <trkpt lat="43.61181" lon="3.42614">
        <ele>245.6</ele>
        <time>2017-01-08T14:39:06Z</time>
      </trkpt>
      <trkpt lat="43.61182" lon="3.42626">
        <ele>244.1</ele>
        <time>2017-01-08T14:39:08Z</time>
      </trkpt>
      <trkpt lat="43.61177" lon="3.42636">
        <ele>243.1</ele>
        <time>2017-01-08T14:39:10Z</time>
      </trkpt>
      <trkpt lat="43.6117" lon="3.42644">
        <ele>243</ele>
        <time>2017-01-08T14:39:13Z</time>
      </trkpt>
      <trkpt lat="43.61163" lon="3.42651">
        <ele>243.2</ele>
        <time>2017-01-08T14:39:17Z</time>
      </trkpt>
      <trkpt lat="43.61157" lon="3.42658">
        <ele>243.4</ele>
        <time>2017-01-08T14:39:20Z</time>
      </trkpt>
      <trkpt lat="43.6115" lon="3.42662">
        <ele>243.6</ele>
        <time>2017-01-08T14:39:23Z</time>
      </trkpt>
      <trkpt lat="43.61142" lon="3.42661">
        <ele>243.7</ele>
        <time>2017-01-08T14:39:26Z</time>
      </trkpt>
      <trkpt lat="43.61134" lon="3.42664">
        <ele>243.7</ele>
        <time>2017-01-08T14:39:29Z</time>
      </trkpt>
      <trkpt lat="43.61126" lon="3.42669">
        <ele>243.6</ele>
        <time>2017-01-08T14:39:32Z</time>
      </trkpt>
      <trkpt lat="43.61119" lon="3.42674">
        <ele>243.5</ele>
        <time>2017-01-08T14:39:36Z</time>
      </trkpt>
      <trkpt lat="43.61114" lon="3.42681">
        <ele>243.6</ele>
        <time>2017-01-08T14:39:38Z</time>
      </trkpt>
      <trkpt lat="43.61107" lon="3.4269">
        <ele>243.8</ele>
        <time>2017-01-08T14:39:41Z</time>
      </trkpt>
      <trkpt lat="43.61101" lon="3.42697">
        <ele>244</ele>
        <time>2017-01-08T14:39:45Z</time>
      </trkpt>
      <trkpt lat="43.61098" lon="3.42709">
        <ele>244</ele>
        <time>2017-01-08T14:39:49Z</time>
      </trkpt>
      <trkpt lat="43.61089" lon="3.42716">
        <ele>244.2</ele>
        <time>2017-01-08T14:39:53Z</time>
      </trkpt>
      <trkpt lat="43.61084" lon="3.42722">
        <ele>244.3</ele>
        <time>2017-01-08T14:39:56Z</time>
      </trkpt>
      <trkpt lat="43.61077" lon="3.42731">
        <ele>244.5</ele>
        <time>2017-01-08T14:40:00Z</time>
      </trkpt>
      <trkpt lat="43.61073" lon="3.4274">
        <ele>244.6</ele>
        <time>2017-01-08T14:40:03Z</time>
      </trkpt>
      <trkpt lat="43.61071" lon="3.42752">
        <ele>244.7</ele>
        <time>2017-01-08T14:40:07Z</time>
      </trkpt>
      <trkpt lat="43.61066" lon="3.42762">
        <ele>244.9</ele>
        <time>2017-01-08T14:40:11Z</time>
      </trkpt>
      <trkpt lat="43.61061" lon="3.42771">
        <ele>244.9</ele>
        <time>2017-01-08T14:40:14Z</time>
      </trkpt>
      <trkpt lat="43.61056" lon="3.42778">
        <ele>245</ele>
        <time>2017-01-08T14:40:17Z</time>
      </trkpt>
      <trkpt lat="43.6105" lon="3.42787">
        <ele>245.2</ele>
        <time>2017-01-08T14:40:21Z</time>
      </trkpt>
      <trkpt lat="43.61044" lon="3.42794">
        <ele>245.5</ele>
        <time>2017-01-08T14:40:24Z</time>
      </trkpt>
      <trkpt lat="43.61039" lon="3.42803">
        <ele>245.8</ele>
        <time>2017-01-08T14:40:27Z</time>
      </trkpt>
      <trkpt lat="43.61034" lon="3.42815">
        <ele>246.1</ele>
        <time>2017-01-08T14:40:30Z</time>
      </trkpt>
      <trkpt lat="43.6103" lon="3.42826">
        <ele>246.2</ele>
        <time>2017-01-08T14:40:33Z</time>
      </trkpt>
      <trkpt lat="43.61024" lon="3.42837">
        <ele>246.3</ele>
        <time>2017-01-08T14:40:36Z</time>
      </trkpt>
      <trkpt lat="43.61018" lon="3.42846">
        <ele>246.3</ele>
        <time>2017-01-08T14:40:39Z</time>
      </trkpt>
      <trkpt lat="43.61012" lon="3.42856">
        <ele>246.7</ele>
        <time>2017-01-08T14:40:43Z</time>
      </trkpt>
      <trkpt lat="43.61005" lon="3.42866">
        <ele>246.9</ele>
        <time>2017-01-08T14:40:46Z</time>
      </trkpt>
      <trkpt lat="43.60999" lon="3.42872">
        <ele>247.1</ele>
        <time>2017-01-08T14:40:48Z</time>
      </trkpt>
      <trkpt lat="43.60989" lon="3.42878">
        <ele>247.7</ele>
        <time>2017-01-08T14:40:51Z</time>
      </trkpt>
      <trkpt lat="43.60979" lon="3.42885">
        <ele>247.9</ele>
        <time>2017-01-08T14:40:53Z</time>
      </trkpt>
      <trkpt lat="43.6097" lon="3.42897">
        <ele>248.1</ele>
        <time>2017-01-08T14:40:55Z</time>
      </trkpt>
      <trkpt lat="43.60965" lon="3.42907">
        <ele>247.6</ele>
        <time>2017-01-08T14:40:57Z</time>
      </trkpt>
      <trkpt lat="43.60958" lon="3.42911">
        <ele>247.4</ele>
        <time>2017-01-08T14:40:59Z</time>
      </trkpt>
      <trkpt lat="43.60949" lon="3.42915">
        <ele>246.4</ele>
        <time>2017-01-08T14:41:01Z</time>
      </trkpt>
      <trkpt lat="43.60939" lon="3.42921">
        <ele>245.3</ele>
        <time>2017-01-08T14:41:03Z</time>
      </trkpt>
      <trkpt lat="43.60929" lon="3.42931">
        <ele>243</ele>
        <time>2017-01-08T14:41:05Z</time>
      </trkpt>
      <trkpt lat="43.6092" lon="3.42942">
        <ele>241.2</ele>
        <time>2017-01-08T14:41:07Z</time>
      </trkpt>
      <trkpt lat="43.60912" lon="3.42951">
        <ele>239.8</ele>
        <time>2017-01-08T14:41:09Z</time>
      </trkpt>
      <trkpt lat="43.60904" lon="3.42958">
        <ele>238.4</ele>
        <time>2017-01-08T14:41:11Z</time>
      </trkpt>
      <trkpt lat="43.60897" lon="3.42964">
        <ele>237.4</ele>
        <time>2017-01-08T14:41:14Z</time>
      </trkpt>
      <trkpt lat="43.60889" lon="3.42965">
        <ele>233.4</ele>
        <time>2017-01-08T14:41:16Z</time>
      </trkpt>
      <trkpt lat="43.60878" lon="3.42964">
        <ele>231.8</ele>
        <time>2017-01-08T14:41:19Z</time>
      </trkpt>
      <trkpt lat="43.60869" lon="3.42966">
        <ele>229.2</ele>
        <time>2017-01-08T14:41:21Z</time>
      </trkpt>
      <trkpt lat="43.60859" lon="3.4297">
        <ele>227.2</ele>
        <time>2017-01-08T14:41:23Z</time>
      </trkpt>
      <trkpt lat="43.6085" lon="3.42972">
        <ele>225.2</ele>
        <time>2017-01-08T14:41:25Z</time>
      </trkpt>
      <trkpt lat="43.60841" lon="3.42972">
        <ele>224.8</ele>
        <time>2017-01-08T14:41:28Z</time>
      </trkpt>
      <trkpt lat="43.60832" lon="3.4297">
        <ele>224.5</ele>
        <time>2017-01-08T14:41:31Z</time>
      </trkpt>
      <trkpt lat="43.60822" lon="3.42969">
        <ele>223.8</ele>
        <time>2017-01-08T14:41:34Z</time>
      </trkpt>
      <trkpt lat="43.60816" lon="3.42962">
        <ele>222.9</ele>
        <time>2017-01-08T14:41:37Z</time>
      </trkpt>
      <trkpt lat="43.60812" lon="3.42953">
        <ele>222.3</ele>
        <time>2017-01-08T14:41:40Z</time>
      </trkpt>
      <trkpt lat="43.60808" lon="3.42944">
        <ele>221.5</ele>
        <time>2017-01-08T14:41:44Z</time>
      </trkpt>
      <trkpt lat="43.60806" lon="3.42942">
        <ele>220.2</ele>
        <time>2017-01-08T14:41:51Z</time>
      </trkpt>
      <trkpt lat="43.60796" lon="3.42957">
        <ele>219.5</ele>
        <time>2017-01-08T14:41:55Z</time>
      </trkpt>
      <trkpt lat="43.60791" lon="3.4296">
        <ele>218.3</ele>
        <time>2017-01-08T14:42:02Z</time>
      </trkpt>
      <trkpt lat="43.60786" lon="3.42952">
        <ele>217.5</ele>
        <time>2017-01-08T14:42:05Z</time>
      </trkpt>
      <trkpt lat="43.60776" lon="3.42954">
        <ele>216.4</ele>
        <time>2017-01-08T14:42:08Z</time>
      </trkpt>
      <trkpt lat="43.60768" lon="3.42953">
        <ele>215.4</ele>
        <time>2017-01-08T14:42:11Z</time>
      </trkpt>
      <trkpt lat="43.60761" lon="3.42958">
        <ele>214.1</ele>
        <time>2017-01-08T14:42:14Z</time>
      </trkpt>
      <trkpt lat="43.60753" lon="3.42957">
        <ele>212.5</ele>
        <time>2017-01-08T14:42:18Z</time>
      </trkpt>
      <trkpt lat="43.60747" lon="3.42948">
        <ele>211.4</ele>
        <time>2017-01-08T14:42:21Z</time>
      </trkpt>
      <trkpt lat="43.60739" lon="3.42953">
        <ele>210.3</ele>
        <time>2017-01-08T14:42:24Z</time>
      </trkpt>
      <trkpt lat="43.60737" lon="3.42965">
        <ele>209.4</ele>
        <time>2017-01-08T14:42:27Z</time>
      </trkpt>
      <trkpt lat="43.60734" lon="3.42975">
        <ele>208.5</ele>
        <time>2017-01-08T14:42:30Z</time>
      </trkpt>
      <trkpt lat="43.60733" lon="3.42987">
        <ele>204.2</ele>
        <time>2017-01-08T14:42:33Z</time>
      </trkpt>
      <trkpt lat="43.60738" lon="3.42999">
        <ele>198.7</ele>
        <time>2017-01-08T14:42:35Z</time>
      </trkpt>
      <trkpt lat="43.6074" lon="3.43012">
        <ele>195.7</ele>
        <time>2017-01-08T14:42:38Z</time>
      </trkpt>
      <trkpt lat="43.60741" lon="3.43026">
        <ele>192.8</ele>
        <time>2017-01-08T14:42:40Z</time>
      </trkpt>
      <trkpt lat="43.60743" lon="3.43043">
        <ele>190.5</ele>
        <time>2017-01-08T14:42:42Z</time>
      </trkpt>
      <trkpt lat="43.60746" lon="3.43061">
        <ele>189.5</ele>
        <time>2017-01-08T14:42:44Z</time>
      </trkpt>
      <trkpt lat="43.6075" lon="3.43078">
        <ele>188.7</ele>
        <time>2017-01-08T14:42:46Z</time>
      </trkpt>
      <trkpt lat="43.60758" lon="3.43093">
        <ele>188</ele>
        <time>2017-01-08T14:42:48Z</time>
      </trkpt>
      <trkpt lat="43.60763" lon="3.431">
        <ele>188.1</ele>
        <time>2017-01-08T14:42:50Z</time>
      </trkpt>
      <trkpt lat="43.6077" lon="3.43106">
        <ele>188.5</ele>
        <time>2017-01-08T14:42:53Z</time>
      </trkpt>
      <trkpt lat="43.6078" lon="3.43113">
        <ele>188.6</ele>
        <time>2017-01-08T14:42:56Z</time>
      </trkpt>
      <trkpt lat="43.60786" lon="3.43118">
        <ele>188.6</ele>
        <time>2017-01-08T14:42:58Z</time>
      </trkpt>
      <trkpt lat="43.60793" lon="3.43124">
        <ele>188.4</ele>
        <time>2017-01-08T14:43:01Z</time>
      </trkpt>
      <trkpt lat="43.60801" lon="3.43131">
        <ele>188.3</ele>
        <time>2017-01-08T14:43:04Z</time>
      </trkpt>
      <trkpt lat="43.60809" lon="3.43139">
        <ele>188.1</ele>
        <time>2017-01-08T14:43:07Z</time>
      </trkpt>
      <trkpt lat="43.60818" lon="3.43145">
        <ele>187.9</ele>
        <time>2017-01-08T14:43:10Z</time>
      </trkpt>
      <trkpt lat="43.60828" lon="3.43153">
        <ele>186.3</ele>
        <time>2017-01-08T14:43:13Z</time>
      </trkpt>
      <trkpt lat="43.60835" lon="3.43158">
        <ele>186.4</ele>
        <time>2017-01-08T14:43:15Z</time>
      </trkpt>
      <trkpt lat="43.60844" lon="3.43165">
        <ele>186.8</ele>
        <time>2017-01-08T14:43:18Z</time>
      </trkpt>
      <trkpt lat="43.60851" lon="3.43169">
        <ele>187</ele>
        <time>2017-01-08T14:43:21Z</time>
      </trkpt>
      <trkpt lat="43.60859" lon="3.43173">
        <ele>187.1</ele>
        <time>2017-01-08T14:43:24Z</time>
      </trkpt>
      <trkpt lat="43.60866" lon="3.43177">
        <ele>187.2</ele>
        <time>2017-01-08T14:43:27Z</time>
      </trkpt>
      <trkpt lat="43.60874" lon="3.43182">
        <ele>187.5</ele>
        <time>2017-01-08T14:43:31Z</time>
      </trkpt>
      <trkpt lat="43.60882" lon="3.43186">
        <ele>187.7</ele>
        <time>2017-01-08T14:43:34Z</time>
      </trkpt>
      <trkpt lat="43.60887" lon="3.43193">
        <ele>188.1</ele>
        <time>2017-01-08T14:43:38Z</time>
      </trkpt>
      <trkpt lat="43.60886" lon="3.43205">
        <ele>187.8</ele>
        <time>2017-01-08T14:43:40Z</time>
      </trkpt>
      <trkpt lat="43.60881" lon="3.4322">
        <ele>187.3</ele>
        <time>2017-01-08T14:43:42Z</time>
      </trkpt>
      <trkpt lat="43.60877" lon="3.4323">
        <ele>186.2</ele>
        <time>2017-01-08T14:43:44Z</time>
      </trkpt>
      <trkpt lat="43.60872" lon="3.43242">
        <ele>184.6</ele>
        <time>2017-01-08T14:43:46Z</time>
      </trkpt>
      <trkpt lat="43.60865" lon="3.43258">
        <ele>183</ele>
        <time>2017-01-08T14:43:48Z</time>
      </trkpt>
      <trkpt lat="43.6086" lon="3.43268">
        <ele>182.3</ele>
        <time>2017-01-08T14:43:49Z</time>
      </trkpt>
      <trkpt lat="43.60856" lon="3.43278">
        <ele>181.7</ele>
        <time>2017-01-08T14:43:50Z</time>
      </trkpt>
      <trkpt lat="43.60854" lon="3.4329">
        <ele>181</ele>
        <time>2017-01-08T14:43:51Z</time>
      </trkpt>
      <trkpt lat="43.60853" lon="3.43303">
        <ele>179.9</ele>
        <time>2017-01-08T14:43:52Z</time>
      </trkpt>
      <trkpt lat="43.60853" lon="3.43317">
        <ele>178.8</ele>
        <time>2017-01-08T14:43:53Z</time>
      </trkpt>
      <trkpt lat="43.60855" lon="3.43332">
        <ele>177.7</ele>
        <time>2017-01-08T14:43:54Z</time>
      </trkpt>
      <trkpt lat="43.6086" lon="3.43348">
        <ele>176.8</ele>
        <time>2017-01-08T14:43:55Z</time>
      </trkpt>
      <trkpt lat="43.60864" lon="3.4336">
        <ele>175.6</ele>
        <time>2017-01-08T14:43:56Z</time>
      </trkpt>
      <trkpt lat="43.60867" lon="3.43374">
        <ele>174.2</ele>
        <time>2017-01-08T14:43:57Z</time>
      </trkpt>
      <trkpt lat="43.6087" lon="3.43389">
        <ele>173</ele>
        <time>2017-01-08T14:43:58Z</time>
      </trkpt>
      <trkpt lat="43.60872" lon="3.434">
        <ele>172.3</ele>
        <time>2017-01-08T14:43:59Z</time>
      </trkpt>
      <trkpt lat="43.6087" lon="3.43413">
        <ele>171.3</ele>
        <time>2017-01-08T14:44:00Z</time>
      </trkpt>
      <trkpt lat="43.60869" lon="3.43425">
        <ele>170.4</ele>
        <time>2017-01-08T14:44:01Z</time>
      </trkpt>
      <trkpt lat="43.60869" lon="3.43439">
        <ele>169.6</ele>
        <time>2017-01-08T14:44:02Z</time>
      </trkpt>
      <trkpt lat="43.60871" lon="3.4345">
        <ele>168.9</ele>
        <time>2017-01-08T14:44:03Z</time>
      </trkpt>
      <trkpt lat="43.60875" lon="3.43462">
        <ele>168.2</ele>
        <time>2017-01-08T14:44:04Z</time>
      </trkpt>
      <trkpt lat="43.6088" lon="3.43471">
        <ele>167.4</ele>
        <time>2017-01-08T14:44:05Z</time>
      </trkpt>
      <trkpt lat="43.60885" lon="3.43481">
        <ele>166.5</ele>
        <time>2017-01-08T14:44:06Z</time>
      </trkpt>
      <trkpt lat="43.60889" lon="3.4349">
        <ele>165.5</ele>
        <time>2017-01-08T14:44:07Z</time>
      </trkpt>
      <trkpt lat="43.60891" lon="3.43499">
        <ele>164.4</ele>
        <time>2017-01-08T14:44:08Z</time>
      </trkpt>
      <trkpt lat="43.60893" lon="3.4351">
        <ele>163.3</ele>
        <time>2017-01-08T14:44:09Z</time>
      </trkpt>
      <trkpt lat="43.60894" lon="3.43522">
        <ele>162.5</ele>
        <time>2017-01-08T14:44:10Z</time>
      </trkpt>
      <trkpt lat="43.60896" lon="3.43533">
        <ele>161.9</ele>
        <time>2017-01-08T14:44:11Z</time>
      </trkpt>
      <trkpt lat="43.60897" lon="3.43544">
        <ele>161.5</ele>
        <time>2017-01-08T14:44:12Z</time>
      </trkpt>
      <trkpt lat="43.60902" lon="3.43552">
        <ele>161.2</ele>
        <time>2017-01-08T14:44:13Z</time>
      </trkpt>
      <trkpt lat="43.60913" lon="3.43557">
        <ele>161.7</ele>
        <time>2017-01-08T14:44:15Z</time>
      </trkpt>
      <trkpt lat="43.60924" lon="3.43559">
        <ele>162.7</ele>
        <time>2017-01-08T14:44:17Z</time>
      </trkpt>
      <trkpt lat="43.60931" lon="3.4356">
        <ele>163.2</ele>
        <time>2017-01-08T14:44:19Z</time>
      </trkpt>
      <trkpt lat="43.60941" lon="3.43561">
        <ele>163.3</ele>
        <time>2017-01-08T14:44:22Z</time>
      </trkpt>
      <trkpt lat="43.6095" lon="3.43562">
        <ele>163.7</ele>
        <time>2017-01-08T14:44:26Z</time>
      </trkpt>
      <trkpt lat="43.60954" lon="3.43571">
        <ele>164.2</ele>
        <time>2017-01-08T14:44:32Z</time>
      </trkpt>
      <trkpt lat="43.60952" lon="3.43573">
        <ele>164.6</ele>
        <time>2017-01-08T14:44:39Z</time>
      </trkpt>
    </trkseg>
  </trk>
</gpx>